[[{"header":{"parameterUnit":"m.s-1","parameterCategory":1,"la1":30.6,"la2":29.2853,"lo1":-89.7004,"lo2":-87.6739,"dy":0.0162,"dx":0.0183,"nx":112,"ny":82,"refTime":"2023-09-29T00:00:00:Z","depth":0,"parameterNumber":2,"parameterNumberName":"U-component_of_WINDS"},"data":[0.0,0.0,0.0,0.0,0.0,0.0,0.0,0.0,0.0,0.0,0.0,0.0,0.0,0.0,0.0,0.0,0.0,0.0,0.0,0.0,0.0,0.0,0.0,0.0,0.0,0.0,0.0,0.0,0.0,0.0,0.0,0.0,0.0,0.0,0.0,0.0,0.0,0.0,0.0,0.0,0.0,0.0,0.0,0.0,0.0,0.0,0.0,0.0,0.0,0.0,0.0,0.0,0.0,0.0,0.0,0.0,0.0,0.0,0.0,0.0,0.0,0.0,0.0,0.0,0.0,0.0,0.0,0.0,0.0,0.0,0.0,0.0,0.0,0.0,0.0,0.0,0.0,0.0,0.0,0.0,0.0,0.0,0.0,0.0,0.0,0.0,0.0,0.0,0.0,0.0,1.1241,1.0255,0.9218,0.859,0.859,0.878,0.8911,0.8955,0.0,0.0,0.0,0.0,0.0,0.0,0.0,0.0,0.0,0.0,0.0,0.0,0.0,0.0,0.0,0.0,0.0,0.0,0.0,0.0,0.0,0.0,0.0,0.0,0.0,0.0,0.0,0.0,0.0,0.0,0.0,0.0,0.0,0.0,0.0,0.0,0.0,0.0,0.0,0.0,0.0,0.0,0.0,0.0,0.0,0.0,0.0,0.0,0.0,0.0,0.0,0.0,0.0,0.0,0.0,0.0,0.0,0.0,0.0,0.0,0.0,0.0,0.0,0.0,0.0,0.0,0.0,0.0,0.0,0.0,0.0,0.0,0.0,0.0,0.0,0.0,0.0,0.0,0.0,0.0,0.0,0.0,0.0,0.0,0.0,0.0,0.0,0.0,0.0,0.0,0.0,0.0,0.0,0.0,0.0,0.0,0.0,0.0,0.0,0.0,0.0,0.0,0.0,0.0,1.0874,0.958,0.8933,0.859,0.859,0.878,0.8999,0.9218,0.0,0.0,0.0,0.0,0.0,0.0,0.0,0.0,0.0,0.0,0.0,0.0,0.0,0.0,0.0,0.0,0.0,0.0,0.0,0.0,0.0,0.0,0.0,0.0,0.0,0.0,0.0,0.0,0.0,0.0,0.0,0.0,0.0,0.0,0.0,0.0,0.0,0.0,0.0,0.0,0.0,0.0,0.0,0.0,0.0,0.0,0.0,0.0,0.0,0.0,0.0,0.0,0.0,0.0,0.0,0.0,0.0,0.0,0.0,0.0,0.0,0.0,0.0,0.0,0.0,0.0,0.0,0.0,0.0,0.0,0.0,0.0,0.0,0.0,0.0,0.0,0.0,0.0,0.0,0.0,0.0,0.0,0.0,0.0,0.0,0.0,0.0,0.0,0.0,0.0,0.0,0.0,0.0,0.0,0.0,0.0,0.0,0.0,0.0,0.0,0.0,0.0,0.0,1.1241,1.0255,0.9393,0.8867,0.859,0.859,0.9026,0.9389,0.9655,1.0314,0.0,0.0,0.0,0.0,0.0,0.0,0.0,0.0,0.0,0.0,0.0,0.0,0.0,0.0,0.0,0.0,0.0,0.0,0.0,0.0,0.0,0.0,0.0,0.0,0.0,0.0,0.0,0.0,0.0,0.0,0.0,0.0,0.0,0.0,0.0,0.0,0.0,0.0,0.0,0.0,0.0,0.0,0.0,0.0,0.0,0.0,0.0,0.0,0.0,0.0,0.0,0.0,0.0,0.0,0.0,0.0,0.0,0.0,0.0,0.0,0.0,0.0,0.0,0.0,0.0,0.0,0.0,0.0,0.0,0.0,0.0,0.0,0.0,0.0,0.0,0.0,0.0,0.0,0.0,0.0,0.0,0.0,0.0,0.0,0.0,0.0,0.0,0.0,0.0,0.0,0.0,0.0,0.0,0.0,0.0,0.0,0.0,0.0,0.0,0.0,0.0,0.0,1.0686,0.9873,0.9398,0.8977,0.8712,0.8712,0.9278,0.9763,1.0035,1.0895,0.0,0.0,0.0,0.0,0.0,0.0,0.0,0.0,0.0,0.0,0.0,0.0,0.0,0.0,0.0,0.0,0.0,0.0,0.0,0.0,0.0,0.0,0.0,0.0,0.0,0.0,0.0,0.0,0.0,0.0,0.0,0.0,0.0,0.0,0.0,0.0,0.0,0.0,0.0,0.0,0.0,0.0,0.0,0.0,0.0,0.0,0.0,0.0,0.0,0.0,0.0,0.0,0.0,0.0,0.0,0.0,0.0,0.0,0.0,0.0,0.0,0.0,0.0,0.0,0.0,0.0,0.0,0.0,0.0,0.0,0.0,0.0,0.0,0.0,0.0,0.0,0.0,0.0,0.0,0.0,0.0,0.0,0.0,0.0,0.0,0.0,0.0,0.0,0.0,0.0,0.0,0.0,0.0,0.0,0.0,0.0,0.0,0.0,0.0,0.0,0.0,0.0,1.0674,0.9997,0.9534,0.9234,0.9056,0.9056,0.9505,0.9908,1.0177,1.113,0.0,0.0,0.0,0.0,0.0,0.0,0.0,0.0,0.0,0.0,0.0,0.0,0.0,0.0,0.0,0.0,0.0,0.0,0.0,0.0,0.0,0.0,0.0,0.0,0.0,0.0,0.0,0.0,0.0,0.0,0.0,0.0,0.0,0.0,0.0,0.0,0.0,0.0,0.0,0.0,0.0,0.0,0.0,0.0,0.0,0.0,0.0,0.0,0.0,0.0,0.0,0.0,0.0,0.0,0.0,0.0,0.0,0.0,0.0,0.0,0.0,0.0,0.0,0.0,0.0,0.0,0.0,0.0,0.0,0.0,0.0,0.0,0.0,0.0,0.0,0.0,0.0,0.0,0.0,0.0,0.0,0.0,0.0,0.0,0.0,0.0,0.0,0.0,0.0,0.0,0.0,0.0,0.0,0.0,0.0,0.0,0.0,0.0,0.0,0.0,0.0,0.0,1.0735,1.0003,0.9497,0.9241,0.9096,0.9096,0.9641,1.0174,1.0622,0.0,0.0,0.0,0.0,0.0,0.0,0.0,0.0,0.0,0.0,0.0,0.0,0.0,0.0,0.0,0.0,0.0,0.0,0.0,0.0,0.0,0.0,0.0,0.0,0.0,0.0,0.0,0.0,0.0,0.0,0.0,0.0,0.0,0.0,0.0,0.0,0.0,0.0,0.0,0.0,0.0,0.0,0.0,0.0,0.0,0.0,0.0,0.0,0.0,0.0,0.0,0.0,0.0,0.0,0.0,0.0,0.0,0.0,0.0,0.0,0.0,0.0,0.0,0.0,0.0,0.0,0.0,0.0,0.0,0.0,0.0,0.0,0.0,0.0,0.0,0.0,0.0,0.0,0.0,0.0,0.0,0.0,0.0,0.0,0.0,0.0,0.0,0.0,0.0,0.0,0.0,0.0,0.0,0.0,0.0,0.0,0.0,0.0,0.0,0.0,0.0,0.0,1.1723,1.0823,1.007,0.9545,0.9344,0.9267,0.9267,0.982,1.0428,1.0948,0.0,0.0,0.0,0.0,0.0,0.0,0.0,0.0,0.0,0.0,0.0,0.0,0.0,0.0,0.0,0.0,0.0,0.0,0.0,0.0,0.0,0.0,0.0,0.0,0.0,0.0,0.0,0.0,0.0,0.0,0.0,0.0,0.0,0.0,0.0,0.0,0.0,0.0,0.0,0.0,0.0,0.0,0.0,0.0,0.0,0.0,0.0,0.0,0.0,0.0,0.0,0.0,0.0,0.0,0.0,0.0,0.0,0.0,0.0,0.0,0.0,0.0,0.0,0.0,0.0,0.0,0.0,0.0,0.0,0.0,0.0,0.0,0.0,0.0,0.0,0.0,0.0,0.0,0.0,0.0,0.0,0.0,0.0,0.0,0.0,0.0,0.0,0.0,0.0,0.0,0.0,0.0,0.0,0.0,0.0,0.0,0.0,0.0,0.0,0.0,0.0,0.0,1.1787,1.0952,1.0218,0.9755,0.9641,0.9599,0.9607,1.0093,1.0634,0.0,0.0,0.0,0.0,0.0,0.0,0.0,0.0,0.0,0.0,0.0,0.0,0.0,0.0,0.0,0.0,0.0,0.0,0.0,0.0,0.0,0.0,0.0,0.0,0.0,0.0,0.0,0.0,0.0,0.0,0.0,0.0,0.0,0.0,0.0,0.0,0.0,0.0,0.0,0.0,0.0,0.0,0.0,0.0,0.0,0.0,0.0,0.0,0.0,0.0,0.0,0.0,0.0,0.0,0.0,0.0,0.0,0.0,0.0,0.0,0.0,0.0,0.0,0.0,0.0,0.0,0.0,0.0,0.0,0.0,0.0,0.0,0.0,0.0,0.0,0.0,0.0,0.0,0.0,0.0,0.0,0.0,0.0,0.0,0.0,0.0,0.0,0.0,0.0,0.0,0.0,0.0,0.0,0.0,0.0,0.0,0.0,0.0,0.0,0.0,0.0,0.0,0.0,1.176,1.0924,1.0203,0.969,0.9616,0.9648,0.9803,1.0297,1.0828,1.1318,0.0,0.0,0.0,0.0,0.0,0.0,0.0,0.0,0.0,0.0,0.0,0.0,0.0,0.0,0.0,0.0,0.0,0.0,0.0,0.0,0.0,0.0,0.0,0.0,0.0,0.0,0.0,0.0,0.0,0.0,0.0,0.0,0.0,0.0,0.0,0.0,0.0,0.0,0.0,0.0,0.0,0.0,0.0,0.0,0.0,0.0,0.0,0.0,0.0,0.0,0.0,0.0,0.0,0.0,0.0,0.0,0.0,0.0,0.0,0.0,0.0,0.0,0.0,0.0,0.0,0.0,0.0,0.0,0.0,0.0,0.0,0.0,0.0,0.0,0.0,0.0,0.0,0.0,0.0,0.0,0.0,0.0,0.0,0.0,0.0,0.0,0.0,0.0,0.0,0.0,0.0,0.0,0.0,0.0,0.0,0.0,0.0,0.0,0.0,0.0,0.0,0.0,1.1878,1.1042,1.0303,0.978,0.9795,0.9884,1.0015,1.051,1.0998,1.1373,0.0,0.0,0.0,0.0,0.0,0.0,0.0,0.0,0.0,0.0,0.0,0.0,0.0,0.0,0.0,0.0,0.0,0.0,0.0,0.0,0.0,0.0,0.0,0.0,0.0,0.0,0.0,0.0,0.0,0.0,0.0,0.0,0.0,0.0,0.0,0.0,0.0,0.0,0.0,0.0,0.0,0.0,0.0,0.0,0.0,0.0,0.0,0.0,0.0,0.0,0.0,0.0,0.0,0.0,0.0,0.0,0.0,0.0,0.0,0.0,0.0,0.0,0.0,0.0,0.0,0.0,0.0,0.0,0.0,0.0,0.0,0.0,0.0,0.0,0.0,0.0,0.0,0.0,0.0,0.0,0.0,0.0,0.0,0.0,0.0,0.0,0.0,0.0,0.0,0.0,0.0,0.0,0.0,0.0,0.0,0.0,0.0,0.0,0.0,0.0,0.0,0.0,1.2127,1.1266,1.0526,0.9985,1.0088,1.022,1.0211,1.068,1.1106,1.1358,0.0,0.0,0.0,0.0,0.0,0.0,0.0,0.0,0.0,0.0,0.0,0.0,0.0,0.0,0.0,0.0,0.0,0.0,0.0,0.0,0.0,0.0,0.0,0.0,0.0,0.0,0.0,0.0,0.0,0.0,0.0,0.0,0.0,0.0,0.0,0.0,0.0,0.0,0.0,0.0,0.0,0.0,0.0,0.0,0.0,0.0,0.0,0.0,0.0,0.0,0.0,0.0,0.0,0.0,0.0,0.0,0.0,0.0,0.0,0.0,0.9694,1.0241,0.0,0.0,0.0,0.0,0.0,0.0,0.0,0.0,0.0,0.0,0.0,0.0,0.0,0.0,0.0,0.0,0.0,0.0,0.0,0.0,0.0,0.0,0.0,0.0,0.0,0.0,0.0,0.0,0.0,0.0,0.0,0.0,0.0,0.0,0.0,0.0,0.0,0.0,0.0,0.0,1.2298,1.1436,1.0724,1.0181,1.0162,1.0243,1.0336,1.0699,1.0998,1.1162,1.2008,0.0,0.0,0.0,0.0,0.0,0.0,0.0,0.0,0.0,0.0,0.0,0.0,0.0,0.0,0.0,0.0,0.0,0.0,0.0,0.0,0.0,0.0,0.0,0.0,0.0,0.0,0.0,0.0,0.0,0.0,0.0,0.0,0.0,0.0,0.0,0.0,0.0,0.0,0.0,0.0,0.0,0.0,0.0,0.0,0.0,0.0,0.0,0.0,0.0,0.0,0.0,0.0,0.0,0.0,0.0,0.0,0.0,0.0,0.0,0.8788,0.9368,0.0,0.0,0.0,0.0,0.0,0.0,0.0,0.0,0.0,0.0,0.0,0.0,0.0,0.0,0.0,0.0,0.0,0.0,0.0,0.0,0.0,0.0,0.0,0.0,0.0,0.0,0.0,0.0,0.0,0.0,0.0,0.0,0.0,0.0,0.0,0.0,0.0,0.0,0.0,0.0,1.2329,1.1582,1.0923,1.0369,1.0363,1.0479,1.055,1.0829,1.1033,1.1091,1.1919,0.0,0.0,0.0,0.0,0.0,0.0,0.0,0.0,0.0,0.0,0.0,0.0,0.0,0.0,0.0,0.0,0.0,0.0,0.0,0.0,0.0,0.0,0.0,0.0,0.0,0.0,0.0,0.0,0.0,0.0,0.0,0.0,0.0,0.0,0.0,0.0,0.0,0.0,0.0,0.0,0.0,0.0,0.0,0.0,0.0,0.0,0.0,0.0,0.0,0.0,0.0,0.0,0.0,0.6087,0.607,0.5891,0.6496,0.677,0.6809,0.7461,0.8144,0.8802,0.9065,0.0,0.0,0.0,0.0,0.0,0.0,0.0,0.0,0.0,0.0,0.0,0.0,0.0,0.0,0.0,0.0,0.0,0.0,0.0,0.0,0.0,0.0,1.1526,1.1149,1.1065,1.1285,1.2094,0.0,0.0,0.0,0.0,0.0,0.0,0.0,0.0,0.0,0.0,0.0,1.231,1.1689,1.1138,1.058,1.0655,1.0753,1.0777,1.0979,1.1117,1.1117,1.1862,1.2302,0.0,0.0,0.0,0.0,0.0,0.0,0.0,0.0,0.0,0.0,0.0,0.0,0.0,0.0,0.0,0.0,0.0,0.0,0.0,0.0,0.0,0.0,0.0,0.0,0.0,0.0,0.0,0.0,0.0,0.0,0.0,0.0,0.5074,0.5048,0.0,0.0,0.0,0.0,0.0,0.0,0.0,0.0,0.0,0.0,0.0,0.0,0.0,0.5188,0.5166,0.5275,0.5169,0.489,0.5213,0.5214,0.4974,0.5308,0.5448,0.5472,0.5803,0.0,0.831,0.8522,0.0,0.0,0.0,0.0,0.0,0.0,0.0,0.0,0.0,0.0,0.0,0.0,0.0,0.0,0.0,0.0,0.0,0.0,0.0,0.0,0.0,0.0,1.0586,1.0508,1.0504,1.0574,1.0877,1.1579,1.2273,1.2734,1.3184,1.3653,0.0,0.0,0.0,0.0,0.0,0.0,1.2147,1.1756,1.1407,1.0967,1.0951,1.1017,1.1114,1.1179,1.1179,1.1179,1.158,1.1894,1.2122,1.3032,0.0,0.0,0.0,0.0,0.0,0.0,0.0,0.0,0.0,0.0,0.0,0.0,0.0,0.0,0.0,0.0,0.0,0.0,0.0,0.0,0.0,0.0,0.0,0.0,0.0,0.0,0.0,0.0,0.0,0.4015,0.3787,0.3787,0.3816,0.3908,0.0,0.0,0.0,0.0,0.0,0.0,0.0,0.0,0.0,0.4501,0.4381,0.4335,0.4335,0.4352,0.4231,0.3969,0.4269,0.4261,0.4023,0.4403,0.4593,0.4593,0.4877,0.5574,0.6586,0.7387,0.8026,0.8534,0.0,0.0,0.0,0.0,0.9332,0.9399,0.9399,0.9329,0.9259,0.9376,0.0,0.0,0.0,0.0,0.0,0.0,0.0,1.0684,1.0406,1.0436,1.0457,1.0315,1.0281,1.0306,1.039,1.083,1.135,1.1822,1.2324,1.272,1.2941,1.322,0.0,0.0,0.0,1.2683,1.1982,1.1747,1.1529,1.1159,1.111,1.1143,1.1187,1.1195,1.1195,1.1195,1.1512,1.1742,1.1857,1.2545,1.2974,0.0,0.0,0.0,0.0,0.0,0.0,0.0,0.0,0.0,0.0,0.0,0.0,0.0,0.0,0.0,0.0,0.0,0.0,0.0,0.0,0.0,0.0,0.0,0.0,0.0,0.0,0.0,0.0,0.2773,0.2628,0.2618,0.262,0.2648,0.0,0.0,0.0,0.0,0.0,0.0,0.307,0.3097,0.3192,0.3385,0.3456,0.3504,0.3504,0.3571,0.3538,0.3364,0.3576,0.3567,0.3414,0.3754,0.3925,0.3925,0.4195,0.4561,0.5041,0.6222,0.7161,0.7865,0.8239,0.8597,0.8902,0.902,0.9171,0.9299,0.9299,0.9332,0.9372,0.9372,0.9372,0.9372,0.9372,0.0,0.0,0.0,0.0,1.0527,1.0323,1.0398,1.0447,1.0238,1.0186,1.0202,1.0243,1.045,1.073,1.1124,1.1585,1.1926,1.2013,1.2341,0.0,1.2432,1.2478,1.2374,1.1848,1.1742,1.1586,1.1318,1.1289,1.1313,1.1362,1.1333,1.1333,1.1333,1.1595,1.177,1.1828,1.2197,1.2458,1.2554,0.0,0.0,0.0,0.0,0.0,0.0,0.0,0.0,0.0,0.0,0.0,0.0,0.0,0.0,0.0,0.0,0.0,0.0,0.0,0.0,0.0,0.0,0.0,0.0,0.0,0.0,0.0,0.0,0.0,0.1844,0.1849,0.0,0.0,0.0,0.0,0.2234,0.2234,0.2234,0.2262,0.2262,0.2262,0.2286,0.2523,0.2666,0.2666,0.2985,0.3164,0.3224,0.3281,0.3338,0.3395,0.3419,0.3445,0.3448,0.3707,0.3998,0.432,0.5294,0.6102,0.6838,0.7349,0.8004,0.8651,0.8916,0.9363,0.9869,0.9869,0.9991,1.0137,1.0137,1.0137,1.0137,1.0137,1.0163,0.0,0.0,1.0214,1.023,1.0204,1.0204,1.0212,1.0186,1.0186,1.0235,1.0361,1.055,1.0751,1.0881,1.1141,1.1442,1.1757,0.0,1.1926,1.2102,1.2146,1.204,1.1725,1.1705,1.1636,1.1497,1.1484,1.1557,1.1766,1.1782,1.1782,1.1782,1.1782,1.1924,1.2148,1.2209,1.2359,1.2689,1.3057,0.0,0.0,0.0,0.0,0.0,0.0,0.0,0.0,0.0,0.0,0.0,0.0,0.0,0.0,0.0,0.0,0.0,0.0,0.0,0.0,0.0,0.0,0.0,0.0,0.0,0.0,0.0,0.0,0.0566,0.0566,0.0,0.0714,0.0715,0.0742,0.0776,0.0776,0.0858,0.103,0.1208,0.1367,0.1562,0.1819,0.205,0.228,0.2579,0.2832,0.3085,0.3265,0.3366,0.3412,0.3412,0.3412,0.3412,0.3491,0.3701,0.3957,0.4295,0.5141,0.6266,0.6971,0.7636,0.8274,0.87,0.9156,0.9546,0.9701,0.9818,0.9899,1.0134,1.0186,1.0186,1.0186,1.0186,1.0186,1.0186,1.0276,1.0339,1.0339,1.0509,1.0707,1.0707,1.0789,1.0858,1.0895,1.096,1.1041,1.1068,1.1164,1.1262,1.1395,1.1412,1.1437,1.1503,1.1641,1.1607,1.1286,1.1353,1.1351,1.1086,1.1063,1.1094,1.1156,1.1156,1.1156,1.1156,1.1156,1.1186,1.1299,1.1299,1.136,1.148,1.2023,1.2303,0.0,0.0,0.0,0.0,0.0,0.0,0.0,0.0,0.0,0.0,0.0,0.0,0.0,0.0,0.0,0.0,0.0,0.0,0.0,0.0,0.0,0.0,0.0,0.0,0.0,-0.0213,-0.0335,-0.0337,-0.0337,-0.0338,-0.034,-0.0367,-0.0346,-0.03,-0.0302,-0.023,-0.0052,0.0209,0.0447,0.0612,0.0964,0.1316,0.1665,0.1892,0.2257,0.2736,0.3037,0.3238,0.3366,0.3476,0.3531,0.3531,0.3531,0.3642,0.3804,0.3804,0.4409,0.5412,0.6243,0.6927,0.7507,0.8157,0.8618,0.9017,0.9553,0.9846,1.0034,1.0356,1.0504,1.0544,1.0544,1.0544,1.0544,1.0544,1.0607,1.0677,1.0677,1.0875,1.1082,1.1082,1.1143,1.1195,1.1195,1.1244,1.1284,1.1284,1.1236,1.1211,1.1276,1.1284,1.1279,1.1248,1.1361,1.1314,1.0986,1.1056,1.1057,1.0823,1.0785,1.0785,1.0785,1.0785,1.0785,1.0785,1.0785,1.0785,1.0785,1.0785,1.0785,1.0785,1.1239,1.1518,1.1631,0.0,0.0,0.0,0.0,0.0,0.0,0.0,0.0,0.0,0.0,0.0,0.0,0.0,0.0,0.0,0.0,0.0,0.0,0.0,0.0,0.0,0.0,0.0,-0.1005,-0.0859,-0.0842,-0.0858,-0.086,-0.0842,-0.0858,-0.09,-0.0936,-0.0936,-0.0925,-0.0934,-0.0935,-0.0667,-0.0534,-0.0534,-0.0027,0.0411,0.0767,0.0975,0.1416,0.2158,0.2501,0.2869,0.3266,0.3621,0.3768,0.3798,0.3798,0.3798,0.3798,0.3798,0.3945,0.4266,0.5146,0.5811,0.6394,0.7235,0.7822,0.8331,0.9387,1.0047,1.0529,1.0839,1.1057,1.1195,1.1195,1.1195,1.1195,1.1195,1.1195,1.1195,1.1195,1.1195,1.1203,1.1203,1.1203,1.1211,1.1211,1.1378,1.1508,1.1508,1.1333,1.1268,1.1446,1.1479,1.1446,1.1306,1.1269,0.0,1.0815,1.0785,1.0785,1.0762,1.0762,1.0762,1.0762,1.0762,1.0762,1.0762,1.0762,1.0762,1.0762,1.0762,1.0762,1.0785,1.0785,1.0936,1.1269,0.0,0.0,0.0,0.0,0.0,0.0,0.0,0.0,0.0,0.0,0.0,0.0,0.0,0.0,0.0,0.0,0.0,0.0,0.0,0.0,0.0,-0.2347,-0.2349,-0.2005,-0.197,-0.1977,-0.204,-0.2043,-0.2058,-0.2097,-0.1951,-0.1852,-0.1852,-0.1667,-0.1557,-0.1548,-0.1287,-0.1161,-0.1147,-0.0835,-0.0491,-0.0144,0.0116,0.0466,0.0907,0.1432,0.1874,0.2235,0.2825,0.3207,0.3445,0.368,0.3798,0.3798,0.3798,0.3857,0.3966,0.4642,0.5268,0.5834,0.6289,0.693,0.7704,0.8231,0.8963,0.9695,1.0011,1.0436,1.0849,1.0849,1.1022,1.1195,1.1195,1.1195,1.1195,1.1195,1.1321,1.1419,1.1419,1.1524,1.1622,1.1622,1.1692,1.1733,1.1733,1.1475,1.1294,1.1349,1.1357,1.1252,1.0997,1.0936,1.0823,1.0482,1.0422,1.0338,1.0095,1.0065,1.0065,1.0065,1.0065,1.0065,1.0065,1.0065,1.0065,1.0065,1.0065,1.0186,1.0422,1.0422,1.0604,0.0,0.0,0.0,0.0,0.0,0.0,0.0,0.0,0.0,0.0,0.0,0.0,0.0,0.0,0.0,0.0,0.0,0.0,0.0,0.0,0.0,0.0,-0.298,-0.3122,-0.3185,-0.2794,-0.2488,-0.2541,-0.2545,-0.2555,-0.2609,-0.2484,-0.2397,-0.2397,-0.231,-0.2266,-0.226,-0.2108,-0.2041,-0.2031,-0.1867,-0.1636,-0.1309,-0.1167,-0.0871,-0.039,0.009,0.06,0.108,0.174,0.2311,0.2763,0.3123,0.3422,0.3665,0.3665,0.3665,0.372,0.0,0.0,0.0,0.0,0.6136,0.6861,0.7158,0.795,0.8877,0.9352,0.998,1.059,1.0855,1.1091,1.1267,1.1422,1.1451,1.1422,1.1267,1.1317,1.1367,1.1248,1.1297,1.1375,1.1375,1.1375,1.1375,1.1375,1.1216,0.0,1.0906,1.0997,1.0967,1.0634,1.0573,1.0459,1.0126,1.0095,1.0035,0.9822,0.9846,0.9886,0.9886,0.9978,0.0,0.0,0.0,1.0012,1.0012,1.0012,0.0,0.0,0.0,1.0414,1.06,1.0662,0.0,0.0,1.1032,1.1001,0.0,0.0,0.0,0.0,0.0,0.0,0.0,0.0,0.0,0.0,0.0,0.0,0.0,0.0,0.0,0.0,-0.3751,-0.4033,-0.4273,-0.3457,-0.2817,-0.2753,-0.273,-0.2708,-0.2714,-0.2741,-0.2765,-0.2765,-0.2844,-0.2892,-0.2892,-0.2897,0.0,0.0,0.0,-0.278,-0.2476,-0.2542,-0.2251,-0.1665,-0.1356,-0.0863,-0.0216,0.0431,0.1109,0.1788,0.2157,0.2714,0.3332,0.3363,0.3425,0.3477,0.3888,0.408,0.4139,0.4673,0.5234,0.5756,0.6016,0.0,0.0,0.8575,0.9376,1.021,1.0876,1.1118,1.1277,1.1587,1.1686,1.1617,1.1307,1.1239,1.1186,1.0883,1.0785,1.0785,1.0785,1.0785,1.0785,1.0785,1.0762,1.0634,1.0338,1.0543,1.0634,1.0308,1.0247,1.0156,0.9852,0.9805,0.9819,0.9819,0.9954,0.0,1.0042,1.0202,1.0315,1.0315,1.0315,1.0315,1.0315,1.0315,1.0315,1.0315,1.0315,1.0315,1.0315,1.0329,1.0304,1.0335,1.0601,1.0753,0.0,0.0,0.0,0.0,0.0,0.0,0.0,0.0,0.0,0.0,0.0,0.0,0.0,0.0,0.0,-0.4106,-0.4223,-0.4324,-0.4382,-0.4287,-0.4064,-0.3684,-0.3496,-0.3433,-0.348,-0.3318,-0.318,-0.318,-0.2998,-0.291,-0.291,-0.2946,-0.2997,-0.2997,-0.2975,-0.2948,-0.2887,-0.2895,-0.2837,-0.2714,-0.2652,0.0,-0.1603,-0.1201,-0.0493,0.0431,0.1017,0.1665,0.2313,0.259,0.2868,0.3114,0.3187,0.3239,0.3239,0.3363,0.3638,0.4035,0.4304,0.5045,0.6036,0.6708,0.7759,0.8873,0.9488,1.0065,0.0,1.0914,1.1005,1.0974,1.0906,1.0906,1.0876,1.0823,1.0785,1.0785,1.0785,1.0785,1.0785,1.0785,1.0573,1.0391,1.0308,1.0338,1.027,0.9943,0.9913,0.9883,0.9822,0.99,0.9974,0.9974,1.0141,1.0236,1.0236,1.0295,1.0315,1.0315,1.0315,1.0315,1.0315,1.0315,1.0315,1.0315,1.0315,1.0315,1.0315,1.0392,1.0453,1.0446,1.0427,1.041,0.0,0.0,0.0,0.0,0.0,0.0,0.0,0.0,0.0,0.0,0.0,-0.4942,-0.4937,0.0,-0.5028,-0.5099,-0.5155,-0.5282,-0.5467,-0.5434,-0.5123,-0.4354,-0.4208,-0.4207,-0.4241,-0.413,-0.405,-0.405,-0.396,-0.3902,-0.3902,-0.3929,-0.3887,-0.3699,-0.3699,-0.3609,-0.3455,-0.3609,-0.3699,-0.3699,-0.3887,-0.3699,-0.3174,-0.2864,-0.2156,-0.1202,-0.0555,0.0308,0.1295,0.1973,0.2344,0.2498,0.25,0.2716,0.2991,0.2991,0.3116,0.3271,0.3391,0.4099,0.4991,0.5479,0.6552,0.7775,0.8421,0.9055,0.9663,1.0149,1.0429,1.0543,1.0543,1.0543,1.052,1.0338,1.0308,1.0308,1.0308,1.0308,1.0329,1.0377,1.0275,1.0173,1.0287,1.0301,1.0211,0.9944,0.9998,1.0053,1.0053,1.012,1.0168,1.0168,1.0297,1.0385,1.0385,1.046,1.05,1.05,1.05,1.05,1.05,1.05,1.05,1.05,1.05,1.05,1.05,1.0568,1.0609,1.0602,1.0534,1.05,0.0,0.0,0.0,0.0,0.0,0.0,0.0,-0.6297,-0.6427,-0.637,-0.6443,-0.6436,-0.611,-0.6148,-0.6226,-0.6256,-0.636,-0.6484,-0.6774,-0.6623,-0.6165,-0.5309,-0.5072,-0.4965,-0.4906,-0.4917,-0.4902,-0.4811,-0.4869,-0.4902,-0.4902,-0.4902,-0.4779,-0.4499,-0.4499,-0.4379,-0.4105,-0.4349,-0.4499,-0.4499,-0.4841,-0.481,-0.4499,-0.4284,-0.3697,-0.2837,-0.2034,-0.0956,0.0277,0.1233,0.1695,0.182,0.1883,0.2284,0.2808,0.2808,0.2808,0.2808,0.2808,0.333,0.4099,0.4435,0.5387,0.6552,0.7194,0.7897,0.8562,0.9238,0.97,1.0035,1.0095,1.0156,1.0126,0.9852,0.9812,0.9832,0.9832,0.9859,0.9913,1.0042,1.0062,1.0103,1.0256,1.0335,1.027,1.0082,1.0202,1.0315,1.0315,1.0304,1.0356,1.0356,1.0453,1.0534,1.0534,1.0649,1.0684,1.0684,1.0684,1.0684,1.0684,1.0684,1.0684,1.0684,1.0684,1.0684,1.0684,1.0684,1.0684,1.0684,1.0718,1.0718,-0.6983,-0.7174,-0.7466,-0.7895,-0.8011,-0.8044,0.0,-0.8275,-0.8249,-0.8061,-0.8045,-0.7981,-0.777,-0.7874,-0.7918,-0.7618,-0.7732,-0.7788,-0.7537,-0.7512,-0.7487,-0.7382,-0.6354,-0.5586,-0.5283,-0.5297,-0.5195,-0.492,-0.4899,-0.4902,-0.4902,-0.4902,-0.4872,-0.4841,-0.4841,-0.4841,-0.4779,-0.481,-0.4841,-0.4841,-0.5176,-0.5176,-0.4841,-0.5114,-0.4838,-0.413,-0.2899,-0.1788,-0.0771,-0.0062,0.0586,0.1142,0.1451,0.1791,0.21,0.21,0.21,0.21,0.21,0.2376,0.2775,0.3114,0.3884,0.4807,0.5483,0.6337,0.7255,0.7933,0.8513,0.9031,0.9335,0.964,0.9852,0.9822,0.9893,0.9994,0.9994,1.0134,1.0236,1.0249,1.0288,1.0263,1.0308,1.0385,1.0419,1.0276,1.0301,1.0315,1.0315,1.0392,1.0466,1.0466,1.0602,1.0697,1.0697,1.0677,1.0684,1.0684,1.0684,1.0684,1.0684,1.0684,1.0684,1.0684,1.0684,1.0684,1.0684,1.0684,1.0684,1.0691,1.0826,1.0819,-0.8721,-0.894,-0.9156,-0.9345,-0.9419,-0.9434,-0.9511,-0.9628,-0.9686,-0.9594,-0.9637,-0.9667,-0.9551,-0.9581,-0.9596,-0.9461,-0.9339,-0.9235,-0.9172,-0.9026,-0.8907,-0.8907,-0.8461,-0.7705,-0.6614,-0.6377,-0.6127,-0.579,-0.5579,-0.5486,-0.5486,-0.5486,-0.5394,-0.5206,-0.5176,-0.5087,-0.4902,-0.5087,-0.5176,-0.5206,-0.5544,-0.5609,-0.5486,-0.564,-0.5329,-0.465,-0.3728,-0.2866,-0.2096,-0.1017,-0.0185,0.0494,0.1204,0.1699,0.2008,0.2008,0.2008,0.2008,0.2008,0.2222,0.2529,0.2652,0.3237,0.3918,0.4223,0.4957,0.5847,0.6307,0.7199,0.8133,0.873,0.9279,0.9762,1.0035,1.0134,1.0181,1.0181,1.0236,1.0304,1.0385,1.0437,1.0432,1.0521,1.0582,1.0602,1.0548,1.0534,1.0534,1.0534,1.0588,1.0622,1.0622,1.0683,1.0684,1.0684,1.0525,1.0425,1.0425,1.0226,1.0127,1.0127,1.0127,1.0127,1.0127,1.017,1.0175,1.0175,1.0494,1.0635,1.0642,1.094,1.1036,-1.0382,-1.0596,-1.0819,-1.095,-1.0967,-1.0976,-1.1037,-1.1177,-1.1263,-1.1261,-1.1328,-1.1372,-1.1307,-1.1317,-1.1327,-1.1149,-1.0962,-1.08,-1.071,-1.049,-1.0338,-1.0338,-1.0277,-0.9724,-0.8452,-0.7714,-0.7103,-0.6587,-0.6245,-0.6015,-0.5922,-0.5978,-0.5866,-0.5613,-0.5613,-0.5489,-0.5275,-0.5489,-0.5613,-0.5613,-0.5866,-0.599,-0.599,-0.599,-0.5675,-0.5084,-0.4618,-0.3995,-0.3247,-0.206,-0.1061,-0.0187,0.0812,0.15,0.1875,0.2001,0.2021,0.2008,0.2008,0.2166,0.2358,0.2358,0.2769,0.3249,0.3249,0.3839,0.4614,0.505,0.6017,0.7122,0.811,0.8854,0.9481,0.9996,1.0247,1.0369,1.0369,1.0371,1.0432,1.0534,1.0555,1.0556,1.0571,1.0558,1.0518,1.0459,1.0425,1.0459,1.0552,1.0485,1.0425,1.0425,1.0425,1.0425,1.0425,1.0193,1.0073,1.0078,0.9844,0.9734,0.9771,0.9771,0.9771,0.9771,0.9829,0.9837,0.9837,1.0251,1.0439,1.0439,1.0755,1.0913,-1.1761,-1.2019,-1.2336,-1.2805,-1.2908,-1.2969,-1.3163,-1.3224,-1.3202,-1.3125,-1.3119,-1.3103,-1.3041,-1.3182,-1.3119,-1.2542,-1.2553,-1.2414,-1.185,-1.176,-1.1722,-1.1722,-1.145,-1.1118,-1.0725,-0.9268,-0.7958,-0.695,-0.6647,-0.6329,-0.602,-0.6129,-0.6174,-0.6174,-0.6174,-0.6174,-0.6174,-0.6174,-0.6174,-0.6174,-0.6174,-0.6206,-0.6206,-0.6206,-0.6013,-0.5665,-0.5665,-0.5083,-0.412,-0.3346,-0.2251,-0.0966,0.0097,0.0934,0.1577,0.1965,0.2057,0.2008,0.2008,0.1994,0.2018,0.2018,0.2291,0.2641,0.2641,0.3059,0.37,0.4406,0.5109,0.5974,0.7358,0.8225,0.8895,0.9564,1.0121,1.0487,1.0487,1.0602,1.0677,1.0677,1.0677,1.0585,1.0259,1.0226,1.0093,0.9794,0.9728,0.9861,1.016,0.9927,0.9728,0.9728,0.9728,0.9728,0.9728,0.9728,0.9749,0.9804,0.981,0.9871,0.9971,0.9977,0.9977,0.9977,0.9977,0.9983,0.9983,1.0017,1.0024,1.0024,1.0158,1.0218,-1.2598,-1.2786,-1.3006,-1.3157,-1.3204,-1.3224,-1.3268,-1.3426,-1.3558,-1.3545,-1.3648,-1.3771,-1.3866,-1.3965,-1.3976,-1.3887,-1.3795,-1.3633,-1.3414,-1.3024,-1.2724,-1.2724,-1.2423,-1.2083,-1.1752,-1.0058,-0.8701,-0.8012,-0.7245,-0.6737,-0.6487,-0.6293,-0.6214,-0.6214,-0.6214,-0.6214,-0.6214,-0.6214,-0.6214,-0.6214,-0.6214,-0.6214,-0.6214,-0.6214,-0.615,-0.6021,-0.6021,-0.5572,-0.4801,-0.3833,-0.2642,-0.1289,0.0,0.0903,0.1547,0.1967,0.2084,0.2066,0.2066,0.2073,0.2081,0.2081,0.2152,0.2257,0.2257,0.258,0.2966,0.3192,0.4091,0.5129,0.589,0.695,0.7982,0.8776,0.9288,0.9714,1.0214,1.0353,1.0359,1.0359,1.0359,1.0259,0.9927,0.9861,0.9827,0.9728,0.9694,0.9728,0.9861,0.9761,0.9694,0.9694,0.9694,0.9731,0.9777,0.9553,0.9471,0.9601,0.9337,0.9216,0.9261,0.9261,0.9261,0.9261,0.9345,0.939,0.939,0.9747,0.993,0.993,1.0263,1.0388,-1.3252,-1.3419,-1.3623,-1.3623,-1.3623,-1.3634,-1.3716,-1.3851,-1.4023,-1.4189,-1.4344,-1.4491,-1.4709,-1.475,-1.4772,-1.4768,-1.462,-1.4471,-1.4351,-1.3963,-1.3684,-1.3684,-1.3324,-1.2991,-1.2872,-1.1271,-0.9876,-0.8913,-0.8001,-0.7284,-0.6813,-0.6491,-0.6312,-0.6312,-0.6312,-0.6312,-0.6312,-0.6312,-0.6312,-0.6312,-0.6312,-0.6312,-0.6312,-0.6312,-0.6312,-0.6312,-0.6312,-0.5983,-0.5363,-0.4417,-0.3306,-0.203,-0.0622,0.0426,0.1212,0.1735,0.1998,0.2125,0.2105,0.2103,0.2113,0.2113,0.212,0.2129,0.2129,0.2293,0.249,0.2588,0.324,0.4098,0.4925,0.5862,0.6907,0.7969,0.8451,0.8917,0.9655,0.9821,0.9854,0.9994,1.0027,0.9894,0.9555,0.9389,0.9295,0.9295,0.933,0.9415,0.9461,0.943,0.9365,0.9365,0.9407,0.9431,0.9473,0.928,0.9228,0.9358,0.9119,0.9,0.9038,0.9044,0.9044,0.9044,0.9119,0.9157,0.9157,0.9521,0.9699,0.9699,0.9951,1.0059,-1.3721,-1.3975,-1.4191,-1.4191,-1.4191,-1.4256,-1.4454,-1.4519,-1.4658,-1.5092,-1.5199,-1.5303,-1.5558,-1.5601,-1.5512,-1.5175,-1.5145,-1.4997,-1.4709,-1.465,-1.462,-1.462,-1.4112,-1.3829,-1.4028,-1.2899,-1.1456,-0.9804,-0.8916,-0.7986,-0.7018,-0.6677,-0.6489,-0.6489,-0.6489,-0.6489,-0.6489,-0.6489,-0.6489,-0.6489,-0.6489,-0.6489,-0.6489,-0.6489,-0.6489,-0.6489,-0.6489,-0.6284,-0.5845,-0.5141,-0.4202,-0.3094,-0.1682,-0.0505,0.0505,0.1279,0.1784,0.2112,0.2089,0.2087,0.2112,0.2112,0.2164,0.2189,0.2189,0.2189,0.2256,0.2593,0.2694,0.2997,0.4336,0.5007,0.5674,0.7011,0.7612,0.8079,0.8817,0.9017,0.915,0.9561,0.9628,0.9528,0.915,0.8823,0.8595,0.8595,0.8738,0.8872,0.9079,0.8906,0.8814,0.8814,0.8849,0.8919,0.8924,0.8924,0.8979,0.9098,0.9109,0.9157,0.9302,0.9302,0.9302,0.9302,0.9302,0.9302,0.9302,0.9302,0.9302,0.9302,0.9302,0.9307,-1.4056,-1.4137,-1.4191,-1.4191,-1.4191,-1.4256,-1.4454,-1.4637,-1.488,-1.5135,-1.5357,-1.5526,-1.5591,-1.5601,-1.5572,-1.5472,-1.5483,-1.5453,-1.5364,-1.5116,-1.4967,-1.4967,-1.462,-1.447,-1.4709,-1.4106,-1.3286,-1.2203,-1.0045,-0.8476,-0.7811,-0.6973,-0.6489,-0.6489,-0.6489,-0.6489,-0.6489,-0.6489,-0.6489,-0.6489,-0.6489,-0.6489,-0.6489,-0.6489,-0.6489,-0.6489,-0.6489,-0.6284,-0.5878,-0.5413,-0.4607,-0.3533,-0.2388,-0.1413,-0.0572,0.0404,0.0842,0.1009,0.1536,0.1936,0.2177,0.2177,0.2182,0.2189,0.2189,0.2189,0.2223,0.229,0.2492,0.2795,0.3131,0.3734,0.437,0.497,0.561,0.6347,0.7316,0.7717,0.8117,0.8756,0.8889,0.8856,0.8751,0.8733,0.8759,0.8759,0.8829,0.8861,0.8872,0.8863,0.887,0.887,0.8897,0.8952,0.9044,0.9054,0.9103,0.9253,0.9258,0.9275,0.9302,0.9302,0.9302,0.9302,0.9302,0.9302,0.9302,0.9302,0.9302,0.9302,0.9302,0.9205,-1.4542,-1.4542,-1.4542,-1.4542,-1.4646,-1.479,-1.5022,-1.5265,-1.5479,-1.5587,-1.5722,-1.5779,-1.5631,-1.5601,-1.5601,-1.5601,-1.5601,-1.5601,-1.5601,-1.5442,-1.5324,-1.5324,-1.513,-1.5094,-1.532,-1.4786,-1.4207,-1.3658,-1.1196,-0.9366,-0.8584,-0.7388,-0.6719,-0.6719,-0.6585,-0.6489,-0.6489,-0.6489,-0.6489,-0.6489,-0.6489,-0.6489,-0.6489,-0.6489,-0.6489,-0.6489,-0.6489,-0.6384,-0.615,-0.5781,-0.5178,-0.4406,-0.3495,-0.2588,-0.1682,-0.0774,-0.0135,0.037,0.0909,0.138,0.1784,0.2087,0.2189,0.2189,0.2189,0.2189,0.2189,0.2189,0.2324,0.2492,0.2492,0.2793,0.3196,0.353,0.4034,0.4672,0.561,0.6347,0.7116,0.8189,0.839,0.8439,0.866,0.8759,0.8825,0.884,0.8919,0.8973,0.8938,0.8957,0.8995,0.8995,0.9044,0.9098,0.9168,0.9174,0.9237,0.9302,0.9302,0.9302,0.9302,0.9302,0.9302,0.9302,0.9302,0.9302,0.9302,0.9302,0.922,0.9128,0.9128,0.8861,-1.5014,-1.5014,-1.5014,-1.5014,-1.5197,-1.5475,-1.5754,-1.6006,-1.6194,-1.612,-1.6087,-1.5998,-1.5661,-1.5601,-1.5601,-1.5601,-1.5601,-1.5601,-1.5601,-1.5601,-1.5612,-1.5645,-1.5587,-1.5667,-1.5888,-1.5235,-1.4759,-1.4618,-1.2454,-1.0604,-0.9383,-0.7984,-0.7149,-0.7016,-0.6686,-0.6489,-0.6489,-0.6489,-0.6489,-0.6489,-0.6489,-0.6489,-0.6489,-0.6489,-0.6489,-0.6489,-0.6489,-0.6489,-0.6489,-0.6116,-0.5781,-0.5413,-0.4705,-0.383,-0.289,-0.2151,-0.1277,-0.037,0.0135,0.0538,0.101,0.1784,0.2053,0.2053,0.2053,0.2053,0.2053,0.2053,0.2053,0.2053,0.2053,0.2053,0.212,0.2422,0.2758,0.3194,0.3864,0.4937,0.615,0.7541,0.7914,0.8117,0.8604,0.867,0.8713,0.8785,0.8903,0.8983,0.8983,0.9048,0.9119,0.9119,0.9242,0.9302,0.9302,0.9302,0.9302,0.9302,0.9302,0.9266,0.923,0.923,0.9193,0.9127,0.9193,0.9204,0.9184,0.922,0.9066,0.8738,0.8738,0.8346,-1.5014,-1.5014,-1.5014,-1.5014,-1.5197,-1.5475,-1.5754,-1.6006,-1.6194,-1.612,-1.6087,-1.5998,-1.5661,-1.5601,-1.5601,-1.5601,-1.5601,-1.5601,-1.5601,-1.5601,-1.5666,-1.589,-1.5924,-1.6088,-1.6497,-1.6118,-1.5817,-1.5726,-1.4268,-1.2487,-1.0538,-0.9084,-0.7922,-0.702,-0.6686,-0.6489,-0.6489,-0.6489,-0.6489,-0.6489,-0.6489,-0.6489,-0.6489,-0.6489,-0.6489,-0.6489,-0.6489,-0.6489,-0.6489,-0.6418,-0.615,-0.5778,-0.5379,-0.491,-0.437,-0.3665,-0.3094,-0.2455,-0.1244,-0.0572,-0.0067,0.0976,0.1279,0.1279,0.1279,0.1279,0.1279,0.1279,0.1279,0.1279,0.1279,0.1279,0.1313,0.138,0.1649,0.2018,0.2454,0.383,0.5258,0.6172,0.6868,0.741,0.7892,0.8054,0.8157,0.8141,0.8239,0.8271,0.8271,0.8842,0.9275,0.9275,0.9291,0.9302,0.9302,0.9302,0.9302,0.9302,0.9302,0.9157,0.8837,0.8801,0.8657,0.8331,0.862,0.8697,0.8457,0.8793,0.8632,0.7986,0.7986,0.7431,-1.5458,-1.5458,-1.5458,-1.5458,-1.5764,-1.612,-1.6238,-1.6579,-1.6809,-1.6614,-1.6431,-1.6224,-1.5928,-1.572,-1.5601,-1.5601,-1.5601,-1.5601,-1.5601,-1.5728,-1.5858,-1.5996,-1.6234,-1.644,-1.6667,-1.6445,-1.6272,-1.6256,-1.5127,-1.3645,-1.1894,-0.9941,-0.8451,-0.7588,-0.7054,-0.6753,-0.6753,-0.6585,-0.6489,-0.6489,-0.6489,-0.6489,-0.6489,-0.6489,-0.6489,-0.6489,-0.6489,-0.6489,-0.6522,-0.6686,-0.6652,-0.6481,-0.6485,-0.6284,-0.5845,-0.5141,-0.4537,-0.3833,-0.242,-0.1546,-0.0908,-0.0034,0.064,0.1111,0.1111,0.1111,0.1111,0.1111,0.1111,0.1043,0.0842,0.0774,0.0741,0.0572,0.0774,0.1245,0.2017,0.3008,0.4051,0.5205,0.5897,0.6472,0.716,0.7141,0.7082,0.7164,0.721,0.7204,0.7204,0.7928,0.8579,0.8946,0.9157,0.9302,0.9302,0.9121,0.8982,0.8982,0.8801,0.8512,0.8145,0.8109,0.7956,0.7572,0.7975,0.8021,0.7708,0.8127,0.784,0.6907,0.6713,0.5992,-1.5885,-1.5885,-1.5885,-1.5885,-1.6296,-1.6706,-1.6706,-1.7105,-1.7391,-1.7079,-1.6785,-1.6508,-1.6176,-1.5868,-1.569,-1.5601,-1.5601,-1.5612,-1.5666,-1.5858,-1.605,-1.6147,-1.6462,-1.671,-1.6764,-1.6679,-1.6591,-1.6591,-1.5551,-1.4211,-1.2659,-1.0439,-0.8884,-0.8223,-0.7488,-0.7121,-0.7121,-0.6853,-0.6723,-0.6723,-0.6723,-0.6723,-0.6723,-0.6723,-0.6723,-0.6723,-0.6723,-0.6723,-0.6723,-0.6987,-0.7121,-0.7121,-0.7393,-0.7321,-0.7054,-0.6447,-0.5778,-0.4973,-0.3631,-0.2622,-0.1782,-0.0908,0.0034,0.0875,0.0875,0.0875,0.0875,0.0875,0.0875,0.0808,0.0471,0.0404,0.0337,0.0067,0.0202,0.0674,0.162,0.2112,0.275,0.4077,0.464,0.5155,0.5973,0.584,0.5643,0.5775,0.5785,0.5822,0.5894,0.6547,0.7236,0.7892,0.8615,0.9049,0.9049,0.8693,0.8476,0.8476,0.8005,0.7579,0.7233,0.716,0.6946,0.663,0.7001,0.7045,0.6713,0.702,0.6606,0.5604,0.5177,0.443,-1.5885,-1.5885,-1.5885,-1.5885,-1.6296,-1.6706,-1.6706,-1.7105,-1.7391,-1.7079,-1.6991,-1.6785,-1.6205,-1.6057,-1.5968,-1.5661,-1.5601,-1.5707,-1.5912,-1.5996,-1.6169,-1.658,-1.6667,-1.6775,-1.6947,-1.6958,-1.6936,-1.6936,-1.5681,-1.4015,-1.2008,-1.0412,-0.925,-0.8584,-0.7822,-0.7459,-0.7459,-0.7426,-0.7393,-0.7393,-0.7393,-0.7393,-0.7393,-0.7393,-0.7393,-0.7393,-0.7393,-0.7393,-0.7426,-0.7426,-0.7459,-0.7459,-0.7493,-0.7493,-0.7459,-0.7393,-0.6924,-0.6183,-0.5007,-0.3933,-0.2825,-0.148,-0.0539,0.0101,0.0101,0.0101,0.0101,0.0101,0.0101,0.0101,0.0067,0.0034,0.0034,0.0,0.0034,0.0169,0.0581,0.0961,0.1489,0.2375,0.2815,0.3224,0.3699,0.378,0.3744,0.3748,0.3751,0.3896,0.426,0.4696,0.5093,0.5495,0.7131,0.8222,0.8222,0.7897,0.7711,0.7711,0.6982,0.6403,0.6075,0.5706,0.5366,0.5017,0.5359,0.5392,0.5113,0.5075,0.4722,0.3997,0.3525,0.2863,-1.5885,-1.5885,-1.5885,-1.5885,-1.6175,-1.6501,-1.667,-1.6984,-1.7269,-1.7308,-1.7138,-1.6932,-1.6696,-1.649,-1.6312,-1.6153,-1.6016,-1.5986,-1.6216,-1.6197,-1.6322,-1.6656,-1.6818,-1.6904,-1.699,-1.7001,-1.6839,-1.6418,-1.5486,-1.417,-1.2495,-1.1042,-0.9954,-0.9295,-0.8356,-0.7861,-0.7861,-0.7627,-0.7493,-0.7493,-0.7493,-0.7493,-0.7493,-0.7493,-0.7493,-0.7493,-0.7493,-0.7493,-0.7526,-0.776,-0.7861,-0.7894,-0.8089,-0.8156,-0.8123,-0.7922,-0.7694,-0.7254,-0.5912,-0.4906,-0.39,-0.2287,-0.1278,-0.0572,-0.0135,0.0,0.0,0.0,0.0,0.0,0.0,0.0,0.0,0.0,0.0,0.0034,0.0172,0.0522,0.0954,0.1534,0.1907,0.2281,0.2694,0.2586,0.2404,0.2404,0.2404,0.2477,0.2622,0.3205,0.3676,0.3785,0.5564,0.6728,0.6728,0.6366,0.6076,0.5858,0.5317,0.4725,0.4117,0.3924,0.37,0.3366,0.371,0.3771,0.3465,0.3661,0.3398,0.263,0.2199,0.1688,-1.5885,-1.5885,-1.5885,-1.5885,-1.6103,-1.6368,-1.6634,-1.6899,-1.7165,-1.743,-1.7315,-1.7109,-1.702,-1.6814,-1.6626,-1.6508,-1.6342,-1.6306,-1.663,-1.6635,-1.6712,-1.705,-1.7129,-1.7141,-1.7141,-1.7066,-1.6753,-1.6201,-1.5486,-1.4497,-1.321,-1.1814,-1.0665,-0.9728,-0.8756,-0.8256,-0.8256,-0.7956,-0.7842,-0.7877,-0.7877,-0.7892,-0.7921,-0.7921,-0.7921,-0.7921,-0.7921,-0.7921,-0.7921,-0.8225,-0.8327,-0.8361,-0.8597,-0.8693,-0.8659,-0.8428,-0.8259,-0.8018,-0.6766,-0.5817,-0.4935,-0.3131,-0.2071,-0.1286,-0.044,-0.0101,0.0,0.0,0.0,0.0,0.0,0.0,0.0,0.0,0.0,0.0,0.0,0.0212,0.0501,0.0791,0.1051,0.1276,0.1567,0.1385,0.1203,0.1203,0.1203,0.1239,0.1349,0.1858,0.2258,0.2368,0.3639,0.462,0.5093,0.4766,0.4402,0.4184,0.3686,0.3161,0.2612,0.2456,0.2297,0.2094,0.2365,0.2374,0.2158,0.2276,0.2081,0.1493,0.1099,0.0746,-1.5885,-1.5885,-1.5885,-1.5885,-1.6091,-1.6384,-1.6634,-1.6899,-1.7165,-1.743,-1.7508,-1.7391,-1.705,-1.6991,-1.6903,-1.6537,-1.6508,-1.6679,-1.7222,-1.7302,-1.7454,-1.7944,-1.769,-1.7497,-1.7497,-1.7206,-1.685,-1.6536,-1.5876,-1.502,-1.394,-1.2686,-1.127,-0.9734,-0.8989,-0.859,-0.859,-0.859,-0.8649,-0.8803,-0.8803,-0.8829,-0.8879,-0.8879,-0.8879,-0.8879,-0.8879,-0.8879,-0.8879,-0.8879,-0.8879,-0.8879,-0.8914,-0.8914,-0.8914,-0.8879,-0.8665,-0.8278,-0.7553,-0.6791,-0.588,-0.3993,-0.2881,-0.2059,-0.0927,-0.0306,0.0,0.0,0.0,0.0,0.0,0.0,0.0,0.0,0.0,0.0,0.0,0.0,0.0,0.0,0.0,0.0036,0.0036,0.0036,0.0,0.0,0.0,0.0146,0.0547,0.062,0.0766,0.1168,0.1241,0.186,0.3387,0.3167,0.2912,0.2912,0.2176,0.1756,0.1816,0.1417,0.1241,0.1296,0.1335,0.1335,0.1296,0.0864,0.0628,0.0589,0.0196,0.0,-1.5885,-1.5885,-1.5885,-1.5885,-1.5946,-1.6139,-1.6598,-1.6767,-1.6948,-1.7423,-1.7508,-1.7479,-1.7373,-1.7344,-1.7315,-1.7185,-1.6979,-1.7018,-1.756,-1.7457,-1.7454,-1.7944,-1.7905,-1.784,-1.784,-1.7529,-1.7206,-1.6882,-1.6234,-1.5315,-1.4101,-1.2959,-1.169,-1.0227,-0.9541,-0.9074,-0.88,-0.88,-0.8822,-0.8859,-0.8859,-0.8881,-0.8919,-0.8919,-0.8919,-0.8919,-0.8919,-0.8919,-0.8919,-0.8919,-0.8919,-0.8919,-0.8919,-0.8919,-0.8919,-0.8919,-0.8844,-0.867,-0.8214,-0.7557,-0.6686,-0.5073,-0.3876,-0.2786,-0.1428,-0.0548,0.0,0.0,0.0,0.0,0.0,0.0,0.0,0.0,0.0,0.0,0.0,0.0,0.0,0.0,0.0,0.0,0.0,0.0,0.0,0.0,0.0,0.0036,0.0182,0.0182,0.0255,0.0365,0.0365,0.0802,0.1824,0.1824,0.161,0.1329,0.1084,0.0832,0.0575,0.0466,0.0391,0.0393,0.0393,0.0393,0.0393,0.0275,0.0196,0.0196,0.0079,0.0,-1.5861,-1.5885,-1.5885,-1.5885,-1.5885,-1.603,-1.6573,-1.6706,-1.6851,-1.7399,-1.7508,-1.7508,-1.7508,-1.7508,-1.7508,-1.7508,-1.7315,-1.7375,-1.7897,-1.7826,-1.7797,-1.818,-1.8238,-1.8173,-1.8001,-1.769,-1.74,-1.7206,-1.6664,-1.586,-1.48,-1.3832,-1.2604,-1.1029,-1.0005,-0.9296,-0.8919,-0.8919,-0.8941,-0.8984,-0.8984,-0.9006,-0.9049,-0.9049,-0.9049,-0.9049,-0.9049,-0.9049,0.0,-0.9049,-0.9049,-0.9049,-0.9049,-0.9049,-0.9049,-0.9049,-0.9049,-0.9014,-0.8621,-0.8202,-0.7566,-0.6072,-0.439,-0.2751,-0.1581,-0.0624,0.0,0.0,0.0,0.0,0.0,0.0,0.0,0.0,0.0,0.0,0.0,0.0,0.0,0.0,0.0,0.0,0.0,0.0,0.0,0.0,0.0,0.0,0.0,0.0,0.0,0.0,0.0,0.0219,0.0693,0.073,0.0624,0.0372,0.0376,0.0267,0.0,0.0,0.0,0.0,0.0,0.0,0.0,0.0,0.0,0.0,0.0,0.0,0.0,-1.5885,-1.5885,-1.5885,-1.5885,-1.603,-1.6573,-1.6706,0.0,-1.7399,-1.7508,-1.7508,-1.7508,-1.7508,-1.7508,-1.7508,-1.7532,-1.7726,-1.8215,-1.8324,-1.8436,-1.8608,-1.8635,-1.8507,-1.8098,-1.7787,-1.7561,-1.7529,-1.7205,-1.665,-1.5862,-1.5126,-1.3873,-1.1987,-1.0423,-0.9393,-0.8941,-0.8941,-0.9,-0.9114,-0.9114,-0.9168,-0.9302,-0.9302,-0.9302,-0.9302,-0.9302,-0.9302,-0.9302,-0.9302,-0.9302,-0.9302,-0.9302,-0.9302,-0.9302,-0.9302,-0.9302,-0.923,-0.8874,-0.8729,-0.844,-0.6914,-0.4585,-0.225,-0.1518,-0.0668,0.0,0.0,0.0,0.0,0.0,0.0,0.0,0.0,0.0,0.0,0.0,0.0,0.0,0.0,0.0,0.0,0.0,0.0,0.0,0.0,0.0,0.0,0.0,0.0,0.0,0.0,0.0,0.0,0.0,0.0,0.0,0.0,0.0,0.0,0.0,0.0,0.0,0.0,0.0,0.0,0.0,0.0,0.0,0.0,0.0,0.0,-1.5765,0.0,-1.5885,-1.5885,-1.5885,-1.603,0.0,-1.6706,-1.6851,-1.7399,-1.7508,-1.7508,-1.7508,-1.7508,-1.7508,-1.7508,-1.7677,-1.7931,-1.8239,-1.8638,-1.8939,-1.8964,-1.8988,-1.8944,-1.8848,-1.8539,-1.8206,-1.7905,-1.7751,-1.7177,-1.6001,-1.5397,-1.4168,-1.2187,-1.1161,-1.0179,-0.922,-0.922,-0.9237,-0.9264,-0.9264,-0.928,-0.9302,-0.9302,-0.9302,-0.9302,-0.9302,-0.9302,-0.9302,-0.9302,-0.9302,-0.9302,-0.9302,-0.9302,-0.9302,-0.9302,-0.9302,-0.9302,-0.9193,-0.8946,-0.844,-0.6914,-0.4939,-0.3079,-0.2277,-0.1076,0.0,0.0,0.0,0.0,0.0,0.0,0.0,0.0,0.0,0.0,0.0,0.0,0.0,0.0,0.0,0.0,0.0,0.0,0.0,0.0,0.0,0.0,0.0,0.0,0.0,0.0,0.0,0.0,0.0,0.0,0.0,0.0,0.0,0.0,0.0,0.0,0.0,0.0,0.0,0.0,0.0,0.0,0.0,0.0,0.0,0.0,-1.5777,-1.5885,-1.5885,-1.5885,-1.5885,-1.603,-1.6573,-1.6706,-1.6851,-1.7399,-1.7508,-1.7508,-1.7508,-1.7508,-1.7508,-1.7508,-1.7738,-1.804,-1.842,-1.885,-1.9104,-1.9104,-1.9104,-1.9104,-1.9104,-1.8796,-1.8553,-1.8464,-1.8379,-1.7927,-1.7001,-1.6292,-1.4982,-1.3024,-1.1886,-1.0635,-0.9302,-0.9302,-0.9302,-0.9302,-0.9302,-0.9302,-0.9302,-0.9302,-0.9302,-0.9302,-0.9302,-0.9302,-0.9302,-0.9302,-0.9302,-0.9302,-0.9302,-0.9302,-0.9302,-0.9302,-0.9302,-0.9302,-0.9302,-0.9049,-0.8512,-0.7349,-0.5858,-0.433,-0.3205,-0.1885,-0.0686,-0.0144,0.0,0.0,0.0,0.0,0.0,0.0,0.0,0.0,0.0,0.0,0.0,0.0,0.0,0.0,0.0,0.0,0.0,0.0,0.0,0.0,0.0,0.0,0.0,0.0,0.0,0.0,0.0,0.0,0.0,0.0,0.0,0.0,0.0,0.0,0.0,0.0,0.0,0.0,0.0,0.0,0.0,0.0,0.0,0.0,-1.5813,-1.5885,-1.5885,-1.5885,-1.5885,-1.603,-1.6573,-1.6706,-1.6851,-1.7399,-1.7508,-1.7508,-1.7508,-1.7508,-1.7508,-1.7508,-1.7774,-1.8161,-1.8705,-1.8971,-1.9104,-1.9104,-1.9104,-1.9104,-1.9104,-1.886,-1.8774,-1.8968,-1.8928,-1.8631,-1.8125,-1.7212,-1.5841,-1.3951,-1.2459,-1.0995,-0.9482,-0.9374,-0.9302,-0.9302,-0.9302,-0.9302,-0.9302,-0.9302,-0.9302,-0.9302,-0.9302,-0.9302,-0.9302,-0.9302,-0.9302,-0.9302,-0.9302,-0.9302,-0.9302,-0.9302,-0.9302,-0.9302,-0.9302,-0.9049,-0.8584,-0.7964,-0.691,-0.5637,-0.4187,-0.2877,-0.164,-0.0511,-0.0109,0.0,0.0,0.0,0.0,0.0,0.0,0.0,0.0,0.0,0.0,0.0,0.0,0.0,0.0,0.0,0.0,0.0,0.0,0.0,0.0,0.0,0.0,0.0,0.0,0.0,0.0,0.0,0.0,0.0,0.0,0.0,0.0,0.0,0.0,0.0,0.0,0.0,0.0,0.0,0.0,0.0,0.0,0.0,-1.5813,-1.5885,-1.5885,-1.5885,-1.5885,-1.603,-1.6573,-1.6706,-1.6851,-1.7399,-1.7508,-1.7508,-1.7508,-1.7508,-1.7508,-1.7508,-1.7931,-1.842,-1.8971,-1.908,-1.9104,-1.9104,-1.9104,-1.9104,-1.9104,-1.904,-1.9032,-1.9001,-1.9149,-1.8901,-1.8125,-1.7212,-1.5841,-1.3951,-1.2745,-1.1534,-1.0347,-0.9627,-0.9302,-0.9302,-0.9302,-0.9302,-0.9302,-0.9302,-0.9302,-0.9302,-0.9302,-0.9302,-0.9302,-0.9302,-0.9302,-0.9302,-0.9302,-0.9302,-0.9302,-0.9302,-0.9302,-0.9302,-0.9302,-0.9049,-0.8693,-0.8584,-0.753,-0.6148,-0.5204,-0.3896,-0.2478,-0.1349,-0.0511,0.0,0.0,0.0,0.0,0.0,0.0,0.0,0.0,0.0,0.0,0.0,0.0,0.0,0.0,0.0,0.0,0.0,0.0,0.0,0.0,0.0,0.0,0.0,0.0,0.0,0.0,0.0,0.0,0.0,0.0,0.0,0.0,0.0,0.0,0.0,0.0,0.0,0.0,0.0,0.0,0.0,0.0,0.0,-1.5861,-1.5885,-1.5885,-1.5885,-1.6006,-1.6223,-1.661,-1.6815,-1.702,-1.7436,-1.7508,-1.7508,-1.7508,-1.7508,-1.7575,-1.7907,-1.8131,-1.8481,-1.9032,-1.9104,-1.9104,-1.9104,-1.9104,-1.9104,-1.9104,-1.9104,-1.9221,-1.9465,-1.9576,-1.9409,-1.8932,-1.7728,-1.6266,-1.4564,-1.2996,-1.1749,-1.0786,-1.0203,-0.9843,-0.9627,-0.941,-0.9302,-0.9302,-0.9302,-0.9302,-0.9302,-0.9302,-0.9302,-0.9302,-0.9302,-0.9302,-0.9302,-0.9302,-0.9302,-0.9302,-0.9302,-0.9302,-0.9302,-0.9302,-0.9193,-0.8982,-0.8765,-0.8218,-0.7421,-0.6221,-0.5059,-0.3826,-0.2223,-0.1094,-0.0292,-0.0073,0.0,0.0,0.0,0.0,0.0,0.0,0.0,0.0,0.0,0.0,0.0,0.0,0.0,0.0,0.0,0.0,0.0,0.0,0.0,0.0,0.0,0.0,0.0,0.0,0.0,0.0,0.0,0.0,0.0,0.0,0.0,0.0,0.0,0.0,0.0,0.0,0.0,0.0,0.0,0.0,0.0,-1.5885,-1.5885,-1.5885,-1.5885,-1.6103,-1.6368,-1.6634,-1.6899,-1.7165,-1.743,-1.7508,-1.7508,-1.7508,-1.7556,-1.7762,-1.8215,-1.8348,-1.8553,-1.9044,-1.9104,-1.9104,-1.9104,-1.9104,-1.9104,-1.9104,-1.9104,-1.9334,-1.9845,-1.9814,-1.9671,-1.9483,-1.7991,-1.6478,-1.4919,-1.3246,-1.1965,-1.1152,-1.0786,-1.0419,-1.0023,-0.9627,-0.9446,-0.9446,-0.9338,-0.9302,-0.9302,-0.9302,-0.9302,-0.9302,-0.9302,-0.9302,-0.9302,-0.9302,-0.9302,-0.9302,-0.9302,-0.9302,-0.9302,-0.9302,-0.9302,-0.923,-0.8946,-0.8765,-0.844,-0.7095,-0.6039,-0.495,-0.3096,-0.175,-0.0729,-0.0146,0.0,0.0,0.0,0.0,0.0,0.0,0.0,0.0,0.0,0.0,0.0,0.0,0.0,0.0,0.0,0.0,0.0,0.0,0.0,0.0,0.0,0.0,0.0,0.0,0.0,0.0,0.0,0.0,0.0,0.0,0.0,0.0,0.0,0.0,0.0,0.0,0.0,0.0,0.0,0.0,0.0,-1.5885,-1.5885,-1.5885,-1.5885,-1.6091,-1.6384,-1.6634,-1.6899,-1.7165,-1.743,-1.7508,-1.7508,-1.7508,-1.7714,-1.798,-1.8239,-1.8505,-1.879,-1.9068,-1.9104,-1.9104,-1.9104,-1.9104,-1.9104,-1.9104,-1.9104,-1.9334,-1.9845,-1.9535,-1.9253,-1.9065,-1.758,-1.6054,-1.4564,-1.3389,-1.2359,-1.1548,-1.1152,-1.0786,-1.0455,-1.0059,-0.9843,-0.9843,-0.9482,-0.9302,-0.9302,-0.9302,-0.9302,-0.9302,-0.9302,-0.9302,-0.9302,-0.9302,-0.9302,-0.9302,-0.9302,-0.9302,-0.9302,-0.9302,-0.9302,-0.9302,-0.9266,-0.9018,-0.8548,-0.7747,-0.6696,-0.5426,-0.386,-0.255,-0.1385,-0.0292,0.0,0.0,0.0,0.0,0.0,0.0,0.0,0.0,0.0,0.0,0.0,0.0,0.0,0.0,0.0,0.0,0.0,0.0,0.0,0.0,0.0,0.0,0.0,0.0,0.0,0.0,0.0,0.0,0.0,0.0,0.0,0.0,0.0,0.0,0.0,0.0,0.0,0.0,0.0,0.0,0.0,-1.5885,-1.5885,-1.5934,-1.6118,-1.6344,-1.6573,-1.667,-1.7032,-1.7387,-1.7496,-1.7508,-1.7508,-1.7508,-1.7726,-1.7992,-1.8251,-1.8517,-1.877,-1.9068,-1.9104,-1.9104,-1.9104,-1.9104,-1.9104,-1.9104,-1.9249,-1.9405,-1.9511,-1.9555,-1.9187,-1.8377,-1.7077,-1.57,-1.4181,-1.3011,-1.2151,-1.1619,-1.144,-1.1296,-1.1181,-1.0563,-1.0275,-1.0275,-0.9843,-0.9663,-0.9663,-0.941,-0.9302,-0.9302,-0.9302,-0.9302,-0.9302,-0.9302,-0.9302,-0.9302,-0.9302,-0.9302,-0.9302,-0.9302,-0.9302,-0.9302,-0.9302,-0.9199,-0.8977,-0.8435,-0.7638,-0.6587,-0.4987,-0.3532,-0.2113,-0.0729,-0.0182,0.0,0.0,0.0,0.0,0.0,0.0,0.0,0.0,0.0,0.0,0.0,0.0,0.0,0.0,0.0,0.0,0.0,0.0,0.0,0.0,0.0,0.0,0.0,0.0,0.0,0.0,0.0,0.0,0.0,0.0,0.0,0.0,0.0,0.0,0.0,0.0,0.0,0.0,0.0,0.0,-1.5885,-1.5885,-1.5946,-1.6238,-1.6489,-1.6718,-1.6803,-1.7165,-1.7508,-1.7508,-1.7508,-1.7532,-1.7617,-1.7859,-1.8094,-1.8372,-1.8638,-1.8899,-1.908,-1.9104,-1.9104,-1.9104,-1.9104,-1.9104,-1.9104,-1.9346,-1.9448,-1.9311,-1.9344,-1.8807,-1.7605,-1.6442,-1.5132,-1.3611,-1.2653,-1.2015,-1.1584,-1.1584,-1.1584,-1.1584,-1.1074,-1.0779,-1.0635,-1.0275,-1.0095,-1.0059,-0.9663,-0.9482,-0.9482,-0.9338,-0.9302,-0.9302,-0.9302,-0.9302,-0.9302,-0.9302,-0.9302,-0.9302,-0.9302,-0.9302,-0.9302,-0.9302,-0.9302,-0.923,-0.8837,-0.8181,-0.7276,-0.5822,-0.4296,-0.2768,-0.1312,-0.0474,0.0,0.0,0.0,0.0,0.0,0.0,0.0,0.0,0.0,0.0,0.0,0.0,0.0,0.0,0.0,0.0,0.0,0.0,0.0,0.0,0.0,0.0,0.0,0.0,0.0,0.0,0.0,0.0,0.0,0.0,0.0,0.0,0.0,0.0,0.0,0.0,0.0,0.0,0.0,0.0,-1.5885,-1.5885,-1.5985,-1.6251,-1.6489,-1.6767,-1.7032,-1.7298,-1.7508,-1.7508,-1.7508,-1.7593,-1.7859,-1.8137,-1.8384,-1.8669,-1.8935,-1.9104,-1.9104,-1.9104,-1.9104,-1.9104,-1.9104,-1.9104,-1.9104,-1.9346,-1.9448,-1.9311,-1.8857,-1.8036,-1.676,-1.5593,-1.4315,-1.2824,-1.2402,-1.2015,-1.1584,-1.1584,-1.1584,-1.1584,-1.1584,-1.1404,-1.1008,-1.0671,-1.0491,-1.0491,-1.0095,-0.9915,-0.9879,-0.9482,-0.9302,-0.9302,-0.9302,-0.9302,-0.9302,-0.9302,-0.9302,-0.9302,-0.9302,-0.9302,-0.9302,-0.9302,-0.9302,-0.923,-0.8837,-0.8181,-0.7349,-0.6152,-0.4696,-0.3241,-0.204,-0.0875,0.0,0.0,0.0,0.0,0.0,0.0,0.0,0.0,0.0,0.0,0.0,0.0,0.0,0.0,0.0,0.0,0.0,0.0,0.0,0.0,0.0,0.0,0.0,0.0,0.0,0.0,0.0,0.0,0.0,0.0,0.0,0.0,0.0,0.0,0.0,0.0,0.0,0.0,0.0,0.0,-1.5885,-1.5885,-1.6006,-1.6465,-1.6634,-1.6815,-1.729,-1.743,-1.7508,-1.7508,-1.7508,-1.7593,-1.7859,-1.8137,-1.8384,-1.8669,-1.8935,-1.9104,-1.9104,-1.9104,-1.9104,-1.9104,-1.9104,-1.9104,-1.9104,-1.9527,-1.9564,-1.9,-1.8638,-1.7708,-1.6028,-1.4857,-1.3646,-1.2402,-1.1979,-1.1727,-1.1584,-1.1584,-1.1584,-1.1584,-1.1584,-1.1548,-1.1404,-1.1044,-1.0858,-1.0822,-1.0491,-1.0167,-0.9879,-0.9482,-0.9302,-0.9302,-0.9302,-0.9302,-0.9302,-0.9302,-0.9302,-0.9302,-0.9302,-0.9302,-0.9302,-0.9302,-0.9302,-0.9266,-0.9157,-0.8765,-0.8181,-0.7312,-0.5749,-0.4075,-0.2839,-0.1494,-0.0365,-0.0073,0.0,0.0,0.0,0.0,0.0,0.0,0.0,0.0,0.0,0.0,0.0,0.0,0.0,0.0,0.0,0.0,0.0,0.0,0.0,0.0,0.0,0.0,0.0,0.0,0.0,0.0,0.0,0.0,0.0,0.0,0.0,0.0,0.0,0.0,0.0,0.0,0.0,0.0,-1.5885,-1.5997,-1.6151,-1.6585,-1.6779,-1.696,-1.7382,-1.7508,-1.7508,-1.7508,-1.7593,-1.775,-1.8016,-1.8263,-1.8541,-1.8826,-1.9007,-1.9104,-1.9104,-1.9104,-1.9104,-1.9104,-1.9104,-1.904,-1.8912,-1.937,-1.9301,-1.8429,-1.8108,-1.7137,-1.5239,-1.4217,-1.3154,-1.2015,-1.1727,-1.1584,-1.1584,-1.1584,-1.1584,-1.1584,-1.1584,-1.1584,-1.1584,-1.1368,-1.1224,-1.1224,-1.0858,-1.0383,-0.9879,-0.9627,-0.9446,-0.9302,-0.9302,-0.9302,-0.9302,-0.9302,-0.9302,-0.9302,-0.9302,-0.9302,-0.9302,-0.9302,-0.9302,-0.9302,-0.9302,-0.9018,-0.8548,-0.782,-0.6402,-0.4805,-0.3276,-0.1967,-0.0875,-0.0182,0.0,0.0,0.0,0.0,0.0,0.0,0.0,0.0,0.0,0.0,0.0,0.0,0.0,0.0,0.0,0.0,0.0,0.0,0.0,0.0,0.0,0.0,0.0,0.0,0.0,0.0,0.0,0.0,0.0,0.0,0.0,0.0,0.0,0.0,0.0,0.0,0.0,0.0,-1.5871,-1.6079,-1.6344,-1.6634,-1.6911,-1.7189,-1.743,-1.7508,-1.7508,-1.7508,-1.7726,-1.7992,-1.8239,-1.8505,-1.8802,-1.9068,-1.9104,-1.9104,-1.9104,-1.9104,-1.9104,-1.9104,-1.9072,-1.8924,-1.8635,-1.894,-1.8764,-1.7712,-1.7361,-1.6378,-1.4529,-1.3682,-1.276,-1.1655,-1.1584,-1.1584,-1.1584,-1.1584,-1.1584,-1.1584,-1.1584,-1.1584,-1.1584,-1.1584,-1.1584,-1.1584,-1.1188,-1.0606,-0.9951,-0.9915,-0.9663,-0.9302,-0.9302,-0.9302,-0.9302,-0.9302,-0.9302,-0.9302,-0.9302,-0.9302,-0.9302,-0.9302,-0.9302,-0.9302,-0.9302,-0.9049,-0.8584,-0.7856,-0.6769,-0.5426,-0.3494,-0.2368,-0.1422,-0.0328,-0.0036,0.0,0.0,0.0,0.0,0.0,0.0,0.0,0.0,0.0,0.0,0.0,0.0,0.0,0.0,0.0,0.0,0.0,0.0,0.0,0.0,0.0,0.0,0.0,0.0,0.0,0.0,0.0,0.0,0.0,0.0,0.0,0.0,0.0,0.0,0.0,0.0,0.0,-1.5589,-1.5928,-1.6344,-1.6634,-1.7056,-1.7448,-1.7496,-1.7508,-1.7508,-1.7508,-1.7726,-1.7992,-1.8239,-1.8505,-1.8802,-1.9068,-1.9104,-1.9104,-1.9104,-1.9104,-1.9104,-1.9104,-1.886,-1.8667,-1.8603,-1.8363,-1.794,-1.7286,-1.6609,-1.5569,-1.4102,-1.3325,-1.251,-1.1619,-1.1584,-1.1584,-1.1584,-1.1584,-1.1584,-1.1584,-1.1584,-1.1584,-1.1584,-1.1584,-1.1584,-1.1584,-1.1188,-1.075,-1.0347,-1.0023,-0.9663,-0.9302,-0.9302,-0.9302,-0.9302,-0.9302,-0.9302,-0.9302,-0.9302,-0.9302,-0.9302,-0.9302,-0.9302,-0.9302,-0.9302,-0.923,-0.9018,-0.8222,-0.7167,-0.5894,-0.426,-0.2804,-0.1567,-0.0693,-0.0219,0.0,0.0,0.0,0.0,0.0,0.0,0.0,0.0,0.0,0.0,0.0,0.0,0.0,0.0,0.0,0.0,0.0,0.0,0.0,0.0,0.0,0.0,0.0,0.0,0.0,0.0,0.0,0.0,0.0,0.0,0.0,0.0,0.0,0.0,0.0,0.0,0.0,-1.558,-1.5983,-1.6462,-1.7155,-1.7518,-1.7726,-1.7726,-1.7726,-1.7733,-1.7707,-1.7889,-1.8118,-1.8263,-1.8613,-1.8947,-1.908,-1.9104,-1.9104,-1.9104,-1.9104,-1.904,-1.8892,-1.8699,-1.8346,-1.7658,-1.7446,-1.6955,-1.589,-1.5355,-1.4587,-1.3424,-1.2832,-1.2223,-1.1619,-1.1584,-1.1584,-1.1584,-1.1584,-1.1584,-1.1584,-1.1584,-1.1584,-1.1584,-1.1584,-1.1584,-1.1584,-1.1368,-1.1002,-1.0491,-1.0275,-0.9843,-0.9302,-0.9302,-0.9302,-0.9302,-0.9302,-0.9302,-0.9302,-0.9302,-0.9302,-0.9302,-0.9302,-0.9302,-0.9302,-0.9302,-0.9302,-0.9127,-0.8331,-0.7425,-0.6297,-0.4553,-0.3061,-0.1786,-0.0839,-0.0292,0.0,0.0,0.0,0.0,0.0,0.0,0.0,0.0,0.0,0.0,0.0,0.0,0.0,0.0,0.0,0.0,0.0,0.0,0.0,0.0,0.0,0.0,0.0,0.0,0.0,0.0,0.0,0.0,0.0,0.0,0.0,0.0,0.0,0.0,0.0,0.0,0.0,-1.5377,-1.5969,-1.662,-1.7732,-1.8002,-1.8002,-1.8002,-1.8002,-1.7988,-1.7906,-1.8094,-1.8312,-1.8348,-1.879,-1.9104,-1.9104,-1.9104,-1.9072,-1.9008,-1.9008,-1.886,-1.8474,-1.8314,-1.7723,-1.644,-1.629,-1.5715,-1.4335,-1.4052,-1.3606,-1.2745,-1.2373,-1.2015,-1.1619,-1.1584,-1.1584,-1.1584,-1.1584,-1.1584,-1.1584,-1.1584,-1.1584,-1.1584,-1.1584,-1.1584,-1.1584,-1.1584,-1.1181,-1.0491,-1.0491,-1.0023,-0.9302,-0.9302,-0.9302,-0.9302,-0.9302,-0.9302,-0.9302,-0.9302,-0.9302,-0.9302,-0.9302,-0.9302,-0.9302,-0.9302,-0.9266,-0.9049,-0.8295,-0.7462,-0.637,-0.4553,-0.317,-0.1932,-0.0875,-0.0292,0.0,0.0,0.0,0.0,0.0,0.0,0.0,0.0,0.0,0.0,0.0,0.0,0.0,0.0,0.0,0.0,0.0,0.0,0.0,0.0,0.0,0.0,0.0,0.0,0.0,0.0,0.0,0.0,0.0,0.0,0.0,0.0,0.0,0.0,0.0,0.0,0.0,-1.424,-1.544,-1.6788,-1.7769,-1.8002,-1.8002,-1.8002,-1.8002,-1.7988,-1.7906,-1.8094,-1.836,-1.8589,-1.8911,-1.9104,-1.9104,-1.9104,-1.9008,-1.8699,-1.8667,-1.841,-1.7734,-1.713,-1.644,-1.5629,-1.4777,-1.4068,-1.3472,-1.3144,-1.2781,-1.2323,-1.223,-1.2015,-1.1619,-1.1584,-1.1584,-1.1584,-1.1584,-1.1584,-1.1584,-1.1584,-1.1584,-1.1584,-1.1584,-1.1584,-1.1584,-1.1584,-1.1181,-1.0491,-1.0491,-1.0023,-0.9302,-0.9302,-0.9302,-0.9302,-0.9302,-0.9302,-0.9302,-0.9302,-0.9302,-0.9302,-0.9302,-0.9302,-0.9302,-0.9302,-0.9054,-0.8693,-0.8222,-0.7063,-0.568,-0.4408,-0.2988,-0.164,-0.0802,-0.0292,0.0,0.0,0.0,0.0,0.0,0.0,0.0,0.0,0.0,0.0,0.0,0.0,0.0,0.0,0.0,0.0,0.0,0.0,0.0,0.0,0.0,0.0,0.0,0.0,0.0,0.0,0.0,0.0,0.0,0.0,0.0,0.0,0.0,0.0,0.0,0.0,0.0,-1.4148,-1.5488,-1.678,-1.7718,-1.8106,-1.8223,-1.8223,-1.8223,-1.8202,-1.8143,-1.8203,-1.8372,-1.8638,-1.8935,-1.9104,-1.9104,-1.8944,-1.8764,-1.8603,-1.8249,-1.7723,-1.7034,-1.6311,-1.5466,-1.439,-1.3669,-1.2996,-1.2357,-1.2216,-1.206,-1.1768,-1.1822,-1.1763,-1.1619,-1.1584,-1.1584,-1.1584,-1.1584,-1.1584,-1.1584,-1.1584,-1.1584,-1.1584,-1.1584,-1.1584,-1.1584,-1.1584,-1.1296,-1.0786,-1.0563,-1.0167,-0.9627,-0.9374,-0.9302,-0.9302,-0.9302,-0.9302,-0.9302,-0.9302,-0.9302,-0.9302,-0.9302,-0.9302,-0.9302,-0.9302,-0.9018,-0.8584,-0.8005,-0.6841,-0.5498,-0.4114,-0.2804,-0.1604,-0.0802,-0.0292,0.0,0.0,0.0,0.0,0.0,0.0,0.0,0.0,0.0,0.0,0.0,0.0,0.0,0.0,0.0,0.0,0.0,0.0,0.0,0.0,0.0,0.0,0.0,0.0,0.0,0.0,0.0,0.0,0.0,0.0,0.0,0.0,0.0,0.0,0.0,0.0,0.0,-1.4031,-1.532,-1.639,-1.7437,-1.7918,-1.8181,-1.8282,-1.8361,-1.8373,-1.8313,-1.8348,-1.8469,-1.8734,-1.8983,-1.9104,-1.9104,-1.8828,-1.8539,-1.8346,-1.7626,-1.6839,-1.6051,-1.5238,-1.4292,-1.312,-1.2626,-1.2102,-1.1408,-1.1495,-1.1504,-1.1417,-1.1538,-1.1584,-1.1584,-1.1584,-1.1584,-1.1584,-1.1584,-1.1584,-1.1584,-1.1584,-1.1584,-1.1584,-1.1584,-1.1584,-1.1584,-1.1584,-1.1368,-1.0972,-1.0635,-1.0275,-0.9843,-0.9446,-0.9302,-0.9302,-0.9302,-0.9302,-0.9302,-0.9302,-0.9302,-0.9302,-0.9302,-0.9302,-0.9302,-0.9302,-0.8946,-0.8403,-0.7783,-0.6587,-0.5171,-0.3714,-0.2513,-0.1459,-0.0657,-0.0219,0.0,0.0,0.0,0.0,0.0,0.0,0.0,0.0,0.0,0.0,0.0,0.0,0.0,0.0,0.0,0.0,0.0,0.0,0.0,0.0,0.0,0.0,0.0,0.0,0.0,0.0,0.0,0.0,0.0,0.0,0.0,0.0,0.0,0.0,0.0,0.0,0.0,-1.3451,-1.4497,-1.5461,-1.6732,-1.7291,-1.7638,-1.7931,-1.823,-1.8371,-1.83,-1.8493,-1.8778,-1.9044,-1.9092,-1.9104,-1.9104,-1.8828,-1.8346,-1.7669,-1.671,-1.5694,-1.4628,-1.358,-1.2659,-1.1942,-1.1512,-1.1178,-1.0934,-1.1118,-1.1268,-1.1382,-1.1538,-1.1584,-1.1584,-1.1584,-1.1584,-1.1584,-1.1584,-1.1584,-1.1584,-1.1584,-1.1584,-1.1584,-1.1584,-1.1584,-1.1584,-1.1584,-1.1368,-1.0972,-1.0635,-1.0275,-0.9843,-0.9446,-0.9302,-0.9302,-0.9302,-0.9302,-0.9302,-0.9302,-0.9302,-0.9302,-0.9302,-0.9302,-0.9302,-0.9302,-0.8765,-0.8041,-0.7711,-0.6224,-0.448,-0.3241,-0.2078,-0.1022,-0.0219,0.0,0.0,0.0,0.0,0.0,0.0,0.0,0.0,0.0,0.0,0.0,0.0,0.0,0.0,0.0,0.0,0.0,0.0,0.0,0.0,0.0,0.0,0.0,0.0,0.0,0.0,0.0,0.0,0.0,0.0,0.0,0.0,0.0,0.0,0.0,0.0,0.0,0.0,-1.2239,-1.317,-1.4122,-1.5194,-1.6053,-1.6685,-1.6979,-1.7399,-1.775,-1.7687,-1.8026,-1.8475,-1.8748,-1.8956,-1.9104,-1.9104,-1.8591,-1.798,-1.7271,-1.6084,-1.4912,-1.3875,-1.2824,-1.1975,-1.1446,-1.1082,-1.0844,-1.0765,-1.0907,-1.109,-1.1274,-1.1389,-1.1518,-1.1613,-1.1584,-1.1584,-1.1584,-1.1584,-1.1584,-1.1584,-1.1584,-1.1584,-1.1584,-1.1584,-1.1584,-1.1584,-1.1584,-1.1512,-1.1332,-1.0743,-1.0419,-1.0203,-0.9554,-0.9302,-0.9302,-0.9302,-0.9302,-0.9302,-0.9302,-0.9302,-0.9302,-0.9302,-0.9302,-0.9302,-0.9302,-0.891,-0.8367,-0.7783,-0.6366,-0.4696,-0.3276,-0.2041,-0.0985,-0.0182,0.0,0.0,0.0,0.0,0.0,0.0,0.0,0.0,0.0,0.0,0.0,0.0,0.0,0.0,0.0,0.0,0.0,0.0,0.0,0.0,0.0,0.0,0.0,0.0,0.0,0.0,0.0,0.0,0.0,0.0,0.0,0.0,0.0,0.0,0.0,0.0,0.0,0.0,-1.129,-1.2092,-1.2964,-1.3884,-1.4808,-1.5572,-1.6045,-1.6616,-1.7047,-1.7061,-1.7559,-1.803,-1.8215,-1.8495,-1.8816,-1.9072,-1.8495,-1.7776,-1.7098,-1.5596,-1.4226,-1.3317,-1.2132,-1.1314,-1.1049,-1.0817,-1.0684,-1.0684,-1.0826,-1.0975,-1.1193,-1.1342,-1.1463,-1.1613,-1.1584,-1.1584,-1.1584,-1.1584,-1.1584,-1.1584,-1.1584,-1.1584,-1.1584,-1.1584,-1.1584,-1.1584,-1.1584,-1.1584,-1.1548,-1.0815,-1.0491,-1.0419,-0.9627,-0.9302,-0.9302,-0.9302,-0.9302,-0.9302,-0.9302,-0.9302,-0.9302,-0.9302,-0.9302,-0.9302,-0.9302,-0.9018,-0.8548,-0.782,-0.6438,-0.4841,-0.3312,-0.1859,-0.0657,-0.0109,0.0,0.0,0.0,0.0,0.0,0.0,0.0,0.0,0.0,0.0,0.0,0.0,0.0,0.0,0.0,0.0,0.0,0.0,0.0,0.0,0.0,0.0,0.0,0.0,0.0,0.0,0.0,0.0,0.0,0.0,0.0,0.0,0.0,0.0,0.0,0.0,0.0,0.0079,0.0,0.0,0.0,-1.2904,-1.3614,-1.4351,-1.5115,-1.5781,-1.6262,-1.6476,-1.7011,-1.7432,-1.7432,-1.7723,-1.8162,-1.888,-1.8419,-1.7744,-1.7034,-1.5183,-1.3613,-1.2849,-1.1538,-1.0684,-1.0684,-1.0684,-1.0684,-1.0684,-1.0826,-1.0968,-1.1186,-1.1307,-1.1463,-1.1613,-1.1584,-1.1584,-1.1584,-1.1584,-1.1584,-1.1584,-1.1584,-1.1584,-1.1584,-1.1584,-1.1584,-1.1584,-1.1584,-1.1584,-1.1548,-1.0815,-1.0527,-1.0419,-0.9627,-0.9302,-0.9302,-0.9302,-0.9302,-0.9302,-0.9302,-0.9302,-0.9302,-0.9302,-0.9302,-0.9302,-0.9302,-0.9018,-0.8548,-0.782,-0.6438,-0.4841,-0.3276,-0.1421,0.0,0.0,0.0,0.0,0.0,0.0,0.0,0.0,0.0,0.0,0.0,0.0,0.0,0.0,0.0,0.0,0.0,0.0,0.0,0.0,0.0,0.0,0.0,0.0,0.0,0.0,0.0,0.0,0.0,0.0,0.0,0.0,0.0,0.0,0.0,0.0,0.0,0.0,0.0,0.0236,-1.0051,0.0,0.0,0.0,0.0,0.0,-1.3175,-1.393,-1.4543,-1.469,-1.5384,-1.5996,-1.5996,-1.6278,-1.6635,-1.6829,-1.7087,-1.6936,-1.5986,-1.4455,-1.312,-1.2206,-1.1247,-1.0684,-1.0684,-1.0684,-1.0684,-1.0684,-1.0725,-1.0813,-1.0968,-1.1253,-1.1463,-1.1613,-1.1584,-1.1584,-1.1584,-1.1584,-1.1584,-1.1584,-1.1584,-1.1584,-1.1584,-1.1584,-1.1584,-1.1584,-1.1584,-1.1584,-1.1548,-1.1074,-1.0714,-1.0455,-0.9951,-0.9554,-0.9302,-0.9302,-0.9302,-0.9302,-0.9302,-0.9302,-0.9302,-0.9302,-0.9302,-0.9302,-0.9302,-0.923,-0.8977,-0.8186,-0.6837,-0.502,-0.2369,-0.0839,0.0,0.0,0.0,0.0,0.0,0.0,0.0,0.0,0.0,0.0,0.0,0.0,0.0,0.0,0.0,0.0,0.0,0.0,0.0,0.0,0.0,0.0,0.0,0.0,0.0,0.0,0.0,0.0,0.0,0.0,0.0,0.0,0.0,0.0,0.0,0.0,0.0,0.0,0.0314,0.051,-0.9792,-0.9943,-1.0186,-1.052,0.0,0.0,-1.2077,-1.2716,-1.3248,-1.3444,-1.4047,-1.452,-1.452,-1.4847,-1.5108,-1.5108,-1.5303,-1.5401,-1.5206,-1.3997,-1.2824,-1.2074,-1.1214,-1.0684,-1.0684,-1.0684,-1.0684,-1.0684,-1.0684,-1.0812,-1.1029,-1.126,-1.1463,-1.1613,-1.1584,-1.1584,-1.1584,-1.1584,-1.1584,-1.1584,-1.1584,-1.1584,-1.1584,-1.1584,-1.1584,-1.1584,-1.1584,-1.1584,-1.1584,-1.1368,-1.0966,-1.0455,-1.0059,-0.9663,-0.9302,-0.9302,-0.9302,-0.9302,-0.9302,-0.9302,-0.9302,-0.9302,-0.9302,-0.9302,-0.9302,-0.9302,-0.9127,-0.8331,-0.6511,-0.4293,-0.1824,-0.062,0.0,0.0,0.0,0.0,0.0,0.0,0.0,0.0,0.0,0.0,0.0,0.0,0.0,0.0,0.0,0.0,0.0,0.0,0.0,0.0,0.0,0.0,0.0,0.0,0.0,0.0,0.0,0.0,0.0,0.0,0.0,0.0,0.0,0.0,0.0,0.0,0.0079,0.0275,0.0471,0.0785,-0.9792,-0.9792,-0.9883,-1.0186,-1.0467,0.0,-1.1493,-1.1893,-1.225,-1.2554,-1.2882,-1.3112,-1.3112,-1.3416,-1.3678,-1.3678,-1.3383,-1.3506,-1.452,-1.3538,-1.2561,-1.2206,-1.1314,-1.0684,-1.0684,-1.0684,-1.0684,-1.0684,-1.0684,-1.0846,-1.1179,-1.1329,-1.1443,-1.1613,-1.1584,-1.1584,-1.1584,-1.1584,-1.1584,-1.1584,-1.1584,-1.1584,-1.1584,-1.1584,-1.1584,-1.1584,-1.1584,-1.1584,-1.1584,-1.1584,-1.1181,-1.0455,-1.0095,-0.9699,-0.9302,-0.9302,-0.9302,-0.9302,-0.9302,-0.9302,-0.9302,-0.9302,-0.9302,-0.9302,-0.9302,-0.9302,-0.9085,-0.8114,-0.5749,-0.3132,-0.1605,-0.062,0.0,0.0,0.0,0.0,0.0,0.0,0.0,0.0,0.0,0.0,0.0,0.0,0.0,0.0,0.0,0.0,0.0,0.0,0.0,0.0,0.0,0.0,0.0,0.0,0.0,0.0,0.0,0.0,0.0,0.0,0.0,0.0,0.0,0.0,0.0,0.0039,0.0236,0.0589,0.0707,0.1178,-0.9792,-0.9792,-0.9822,-0.9883,-1.0033,0.0,-1.0521,-1.0941,-1.1304,-1.1468,-1.181,-1.2107,-1.2107,-1.2173,-1.2206,-1.2206,-1.214,-1.233,-1.3112,-1.2495,-1.1843,-1.1446,-1.0982,-1.0684,-1.0684,-1.0684,-1.0684,-1.0684,-1.0684,-1.0846,-1.1179,-1.1227,-1.1335,-1.1577,-1.1584,-1.1584,-1.1584,-1.1584,-1.1584,-1.1584,-1.1584,-1.1584,-1.1584,-1.1584,-1.1584,-1.1584,-1.1584,-1.1584,-1.1584,-1.1584,-1.1181,-1.0491,-1.0419,-0.9951,-0.9302,-0.9302,-0.9302,-0.9302,-0.9302,-0.9302,-0.9302,-0.9302,-0.9302,-0.9302,-0.9302,-0.9302,-0.8868,-0.6837,-0.4911,-0.3132,-0.1605,-0.062,0.0,0.0,0.0,0.0,0.0,0.0,0.0,0.0,0.0,0.0,0.0,0.0,0.0,0.0,0.0,0.0,0.0,0.0,0.0,0.0,0.0,0.0,0.0,0.0,0.0,0.0,0.0,0.0,0.0,0.0,0.0,0.0,0.0,0.0,0.0,0.0314,0.051,0.0628,0.1336,0.1728,-0.9792,-0.9792,-0.9805,-0.9886,-0.9961,0.0,0.0,-1.0568,-1.0795,-1.0922,-1.1115,-1.1247,-1.1247,-1.1247,-1.1247,-1.1247,-1.1247,-1.138,-1.1703,-1.1611,-1.1413,-1.1214,-1.0883,-1.0684,-1.0684,-1.0684,-1.0684,-1.0684,-1.0684,-1.0786,-1.1043,-1.1159,-1.1302,-1.1497,-1.1579,-1.1584,-1.1584,-1.1584,-1.1584,-1.1584,-1.1584,-1.1584,-1.1584,-1.1584,-1.1584,-1.1584,-1.1584,-1.1584,-1.1584,-1.1584,-1.1253,-1.0714,-1.0563,-1.0131,-0.959,-0.9374,-0.9302,-0.9302,-0.9302,-0.9302,-0.9302,-0.9302,-0.9302,-0.9302,-0.9302,-0.9018,-0.8326,-0.6583,-0.4838,-0.3205,-0.1859,-0.0766,0.0,0.0,0.0,0.0,0.0,0.0,0.0,0.0,0.0,0.0,0.0,0.0,0.0,0.0,0.0,0.0,0.0,0.0,0.0,0.0,0.0,0.0,0.0,0.0,0.0,0.0,0.0,0.0,0.0,0.0,0.0,0.0,0.0,0.0118,0.0314,0.0746,0.0942,0.0982,0.1611,0.2003,-0.9792,-0.9812,-0.9866,-0.9988,-1.0062,-1.0163,0.0,0.0,0.0,-1.0697,-1.0684,-1.0684,-1.0684,-1.0684,-1.0684,-1.0684,-1.0684,-1.0684,-1.0684,-1.0916,-1.1115,-1.1115,-1.085,-1.0684,-1.0684,-1.0684,-1.0684,-1.0684,-1.0684,-1.0752,-1.0907,-1.1084,-1.1268,-1.1389,-1.1538,-1.1584,-1.1584,-1.1584,-1.1584,-1.1584,-1.1584,-1.1584,-1.1584,-1.1584,-1.1584,-1.1584,-1.1584,-1.1584,-1.1584,-1.1584,-1.1404,-1.108,-1.0671,-1.0239,-0.9843,-0.9446,-0.9302,-0.9302,-0.9302,-0.9302,-0.9302,-0.9302,-0.9302,-0.9302,-0.9302,-0.8729,-0.786,-0.6732,-0.5059,-0.335,-0.2113,-0.0948,-0.0109,-0.0036,0.0,0.0,0.0,0.0,0.0,0.0,0.0,0.0,0.0,0.0,0.0,0.0,0.0,0.0,0.0,0.0,0.0,0.0,0.0,0.0,0.0,0.0,0.0,0.0,0.0,0.0,0.0,0.0,0.0,0.0,0.0079,0.0275,0.0589,0.1139,0.1414,0.1414,0.1846,0.22,-0.9792,-0.9886,-0.9963,-0.9984,-1.0218,-1.0453,-1.0487,0.0,-1.0664,-1.0684,0.0,-1.0684,-1.0684,0.0,0.0,-1.0684,-1.0684,-1.0684,-1.0684,-1.0717,-1.075,-1.075,-1.0717,-1.0684,-1.0684,-1.0684,-1.0684,-1.0684,-1.0684,-1.0752,-1.0907,-1.1084,-1.1268,-1.1389,-1.1538,-1.1584,-1.1584,-1.1584,-1.1584,-1.1584,-1.1584,-1.1584,-1.1584,-1.1584,-1.1584,-1.1584,-1.1584,-1.1584,-1.1584,-1.1584,-1.1584,-1.1476,-1.0779,-1.0239,-0.9843,-0.9446,-0.9302,-0.9302,-0.9302,-0.9302,-0.9302,-0.9302,-0.9302,-0.9302,-0.9302,-0.8729,-0.786,-0.6732,-0.5241,-0.368,-0.2186,-0.1167,-0.0438,-0.0073,0.0,0.0,0.0,0.0,0.0,0.0,0.0,0.0,0.0,0.0,0.0,0.0,0.0,0.0,0.0,0.0,0.0,0.0,0.0,0.0,0.0,0.0,0.0,0.0,0.0,0.0,0.0,0.0,0.0,0.0,0.0353,0.055,0.0589,0.1414,0.1846,0.1846,0.2239,0.2475,-1.0086,-1.0134,-1.0202,-1.0283,-1.0399,-1.0514,-1.0602,-1.0677,-1.0684,-1.0684,0.0,0.0,0.0,0.0,0.0,0.0,-1.0684,-1.0684,-1.0684,-1.0684,-1.0684,-1.0684,-1.0684,-1.0684,-1.0684,-1.0684,-1.0684,-1.0684,-1.0684,-1.0718,-1.0779,-1.1036,-1.1227,-1.1288,-1.1491,-1.1584,-1.1584,-1.1584,-1.1584,-1.1584,-1.1584,-1.1584,-1.1584,-1.1584,-1.1584,-1.1584,-1.1584,-1.1584,-1.1584,-1.1584,-1.1584,-1.1548,-1.0779,-1.0383,-1.0167,-0.9518,-0.9302,-0.9302,-0.9302,-0.9302,-0.9302,-0.9302,-0.9302,-0.9302,-0.9302,-0.8729,-0.7897,-0.6986,-0.5462,-0.3789,-0.2442,-0.1349,-0.0511,-0.0109,0.0,0.0,0.0,0.0,0.0,0.0,0.0,0.0,0.0,0.0,0.0,0.0,0.0,0.0,0.0,0.0,0.0,0.0,0.0,0.0,0.0,0.0,0.0,0.0,0.0,0.0,0.0,0.0,0.0118,0.0353,0.051,0.0864,0.1375,0.1728,0.2003,0.2239,0.2435,0.2514,-1.0315,-1.0342,-1.0397,-1.0466,-1.0521,-1.0582,-1.0697,-1.0684,-1.0684,-1.0684,-1.0684,0.0,0.0,0.0,-1.0684,-1.0684,0.0,-1.0684,-1.0684,-1.0684,-1.0684,-1.0684,-1.0684,-1.0684,-1.0684,-1.0684,-1.0684,-1.0684,-1.0684,-1.0684,-1.0684,-1.1036,-1.12,-1.12,-1.1457,-1.1584,-1.1584,-1.1584,-1.1584,-1.1584,-1.1584,-1.1584,-1.1584,-1.1584,-1.1584,-1.1584,-1.1584,-1.1584,-1.1584,-1.1584,-1.1584,-1.1548,-1.0779,-1.0491,-1.0383,-0.959,-0.9302,-0.9302,-0.9302,-0.9302,-0.9302,-0.9302,-0.9302,-0.9302,-0.9302,-0.8729,-0.7933,-0.7208,-0.568,-0.3971,-0.2624,-0.1532,-0.062,-0.0109,0.0,0.0,0.0,0.0,0.0,0.0,0.0,0.0,0.0,0.0,0.0,0.0,0.0,0.0,0.0,0.0,0.0,0.0,0.0,0.0,0.0,0.0,0.0,0.0,0.0,0.0,0.0,0.0118,0.0314,0.0589,0.0825,0.1256,0.1886,0.2003,0.22,0.2514,0.2514,0.2514,-1.0315,-1.0378,-1.0487,-1.0487,-1.0602,-1.0684,-1.0684,-1.0684,-1.0684,-1.0684,-1.0684,-1.0684,-1.0684,-1.0684,-1.0684,0.0,-1.0684,0.0,0.0,-1.0684,-1.0684,-1.0684,-1.0684,-1.0684,-1.0684,-1.0684,-1.0684,-1.0684,-1.0684,-1.0684,-1.0684,-1.1036,-1.12,-1.12,-1.1457,-1.1584,-1.1584,-1.1584,-1.1584,-1.1584,-1.1584,-1.1584,-1.1584,-1.1584,-1.1584,-1.1584,-1.1584,-1.1584,-1.1584,-1.1584,-1.1584,-1.1548,-1.0779,-1.0491,-1.0383,-0.959,-0.9302,-0.9302,-0.9302,-0.9302,-0.9302,-0.9302,-0.9302,-0.9302,-0.9302,-0.8729,-0.7933,-0.7208,-0.5865,-0.4301,-0.2697,-0.1751,-0.0985,-0.0182,0.0,0.0,0.0,0.0,0.0,0.0,0.0,0.0,0.0,0.0,0.0,0.0,0.0,0.0,0.0,0.0,0.0,0.0,0.0,0.0,0.0,0.0,0.0,0.0,0.0,0.0,0.0,0.0393,0.0589,0.0589,0.1414,0.1886,0.1886,0.2278,0.2475,0.2514,0.2514,0.2514,-1.0568,-1.0609,-1.0643,-1.0643,-1.0683,-1.0684,-1.0684,-1.0684,-1.0684,-1.0684,-1.0684,-1.0684,-1.0684,-1.0684,-1.0684,0.0,-1.0684,-1.0684,0.0,-1.0684,-1.0684,-1.0684,-1.0684,-1.0684,-1.0684,-1.0684,-1.0684,-1.0684,-1.0684,-1.0684,-1.0684,-1.1036,-1.12,-1.12,-1.1457,-1.1584,-1.1584,-1.1584,-1.1584,-1.1584,-1.1584,-1.1584,-1.1584,-1.1584,-1.1584,-1.1584,-1.1584,-1.1584,-1.1584,-1.1584,-1.144,-1.1152,-1.0671,-1.0347,-1.0023,-0.9482,-0.9302,-0.9302,-0.9302,-0.9302,-0.9302,-0.9302,-0.9302,-0.9302,-0.9302,-0.8729,-0.7933,-0.7208,-0.5901,-0.4337,-0.2733,-0.1751,-0.0985,-0.0182,0.0,0.0,0.0,0.0,0.0,0.0,0.0,0.0,0.0,0.0,0.0,0.0,0.0,0.0,0.0,0.0,0.0,0.0,0.0,0.0,0.0,0.0,0.0118,0.0393,0.0393,0.055,0.0864,0.0982,0.1178,0.1454,0.1768,0.2043,0.2278,0.2435,0.2514,0.2514,0.2514,0.2514,-1.0684,-1.0684,-1.0684,-1.0684,-1.0684,-1.0684,-1.0684,-1.0684,-1.0684,-1.0684,-1.0684,-1.0684,-1.0684,-1.0684,-1.0684,0.0,0.0,-1.0684,0.0,-1.0684,-1.0684,-1.0684,-1.0684,-1.0684,-1.0684,-1.0684,-1.0684,-1.0684,-1.0684,-1.0684,-1.0684,-1.1036,-1.12,-1.12,-1.1457,-1.1584,-1.1584,-1.1584,-1.1584,-1.1584,-1.1584,-1.1584,-1.1584,-1.1584,-1.1584,-1.1584,-1.1584,-1.1584,-1.1584,-1.144,-1.1224,-1.0936,-1.0455,-1.0131,-0.9843,-0.9446,-0.9302,-0.9302,-0.9302,-0.9302,-0.9302,-0.9302,-0.9302,-0.9302,-0.9302,-0.8837,-0.815,-0.7425,-0.6079,-0.4517,-0.2914,-0.186,-0.0985,-0.0182,0.0,0.0,0.0,0.0,0.0,0.0,0.0,0.0,0.0,0.0,0.0,0.0,0.0,0.0,0.0,0.0,0.0,0.0,0.0,0.0,0.0,0.0,0.0157,0.0589,0.0589,0.0825,0.1296,0.1454,0.165,0.1886,0.2043,0.2239,0.2514,0.2514,0.2514,0.2514,0.2514,0.2514]},{"header":{"parameterUnit":"m.s-1","parameterCategory":1,"la1":30.6,"la2":29.2853,"lo1":-89.7004,"lo2":-87.6739,"dy":0.0162,"dx":0.0183,"nx":112,"ny":82,"refTime":"2023-09-29T00:00:00:Z","depth":0,"parameterNumber":3,"parameterNumberName":"V-component_of_WINDS"},"data":[0.0,0.0,0.0,0.0,0.0,0.0,0.0,0.0,0.0,0.0,0.0,0.0,0.0,0.0,0.0,0.0,0.0,0.0,0.0,0.0,0.0,0.0,0.0,0.0,0.0,0.0,0.0,0.0,0.0,0.0,0.0,0.0,0.0,0.0,0.0,0.0,0.0,0.0,0.0,0.0,0.0,0.0,0.0,0.0,0.0,0.0,0.0,0.0,0.0,0.0,0.0,0.0,0.0,0.0,0.0,0.0,0.0,0.0,0.0,0.0,0.0,0.0,0.0,0.0,0.0,0.0,0.0,0.0,0.0,0.0,0.0,0.0,0.0,0.0,0.0,0.0,0.0,0.0,0.0,0.0,0.0,0.0,0.0,0.0,0.0,0.0,0.0,0.0,0.0,0.0,3.9526,3.9834,4.0127,4.0306,4.0306,4.0225,4.0196,4.0186,0.0,0.0,0.0,0.0,0.0,0.0,0.0,0.0,0.0,0.0,0.0,0.0,0.0,0.0,0.0,0.0,0.0,0.0,0.0,0.0,0.0,0.0,0.0,0.0,0.0,0.0,0.0,0.0,0.0,0.0,0.0,0.0,0.0,0.0,0.0,0.0,0.0,0.0,0.0,0.0,0.0,0.0,0.0,0.0,0.0,0.0,0.0,0.0,0.0,0.0,0.0,0.0,0.0,0.0,0.0,0.0,0.0,0.0,0.0,0.0,0.0,0.0,0.0,0.0,0.0,0.0,0.0,0.0,0.0,0.0,0.0,0.0,0.0,0.0,0.0,0.0,0.0,0.0,0.0,0.0,0.0,0.0,0.0,0.0,0.0,0.0,0.0,0.0,0.0,0.0,0.0,0.0,0.0,0.0,0.0,0.0,0.0,0.0,0.0,0.0,0.0,0.0,0.0,0.0,3.9629,4.0001,4.0191,4.0306,4.0306,4.0225,4.0176,4.0127,0.0,0.0,0.0,0.0,0.0,0.0,0.0,0.0,0.0,0.0,0.0,0.0,0.0,0.0,0.0,0.0,0.0,0.0,0.0,0.0,0.0,0.0,0.0,0.0,0.0,0.0,0.0,0.0,0.0,0.0,0.0,0.0,0.0,0.0,0.0,0.0,0.0,0.0,0.0,0.0,0.0,0.0,0.0,0.0,0.0,0.0,0.0,0.0,0.0,0.0,0.0,0.0,0.0,0.0,0.0,0.0,0.0,0.0,0.0,0.0,0.0,0.0,0.0,0.0,0.0,0.0,0.0,0.0,0.0,0.0,0.0,0.0,0.0,0.0,0.0,0.0,0.0,0.0,0.0,0.0,0.0,0.0,0.0,0.0,0.0,0.0,0.0,0.0,0.0,0.0,0.0,0.0,0.0,0.0,0.0,0.0,0.0,0.0,0.0,0.0,0.0,0.0,0.0,3.9526,3.9834,4.0086,4.0206,4.0306,4.0306,4.061,4.0769,4.0706,4.0988,0.0,0.0,0.0,0.0,0.0,0.0,0.0,0.0,0.0,0.0,0.0,0.0,0.0,0.0,0.0,0.0,0.0,0.0,0.0,0.0,0.0,0.0,0.0,0.0,0.0,0.0,0.0,0.0,0.0,0.0,0.0,0.0,0.0,0.0,0.0,0.0,0.0,0.0,0.0,0.0,0.0,0.0,0.0,0.0,0.0,0.0,0.0,0.0,0.0,0.0,0.0,0.0,0.0,0.0,0.0,0.0,0.0,0.0,0.0,0.0,0.0,0.0,0.0,0.0,0.0,0.0,0.0,0.0,0.0,0.0,0.0,0.0,0.0,0.0,0.0,0.0,0.0,0.0,0.0,0.0,0.0,0.0,0.0,0.0,0.0,0.0,0.0,0.0,0.0,0.0,0.0,0.0,0.0,0.0,0.0,0.0,0.0,0.0,0.0,0.0,0.0,0.0,3.9882,4.0252,4.0406,4.0701,4.0879,4.0879,4.1315,4.1564,4.1499,4.2129,0.0,0.0,0.0,0.0,0.0,0.0,0.0,0.0,0.0,0.0,0.0,0.0,0.0,0.0,0.0,0.0,0.0,0.0,0.0,0.0,0.0,0.0,0.0,0.0,0.0,0.0,0.0,0.0,0.0,0.0,0.0,0.0,0.0,0.0,0.0,0.0,0.0,0.0,0.0,0.0,0.0,0.0,0.0,0.0,0.0,0.0,0.0,0.0,0.0,0.0,0.0,0.0,0.0,0.0,0.0,0.0,0.0,0.0,0.0,0.0,0.0,0.0,0.0,0.0,0.0,0.0,0.0,0.0,0.0,0.0,0.0,0.0,0.0,0.0,0.0,0.0,0.0,0.0,0.0,0.0,0.0,0.0,0.0,0.0,0.0,0.0,0.0,0.0,0.0,0.0,0.0,0.0,0.0,0.0,0.0,0.0,0.0,0.0,0.0,0.0,0.0,0.0,4.0451,4.1147,4.1296,4.2085,4.2603,4.2603,4.2545,4.2493,4.2389,4.3037,0.0,0.0,0.0,0.0,0.0,0.0,0.0,0.0,0.0,0.0,0.0,0.0,0.0,0.0,0.0,0.0,0.0,0.0,0.0,0.0,0.0,0.0,0.0,0.0,0.0,0.0,0.0,0.0,0.0,0.0,0.0,0.0,0.0,0.0,0.0,0.0,0.0,0.0,0.0,0.0,0.0,0.0,0.0,0.0,0.0,0.0,0.0,0.0,0.0,0.0,0.0,0.0,0.0,0.0,0.0,0.0,0.0,0.0,0.0,0.0,0.0,0.0,0.0,0.0,0.0,0.0,0.0,0.0,0.0,0.0,0.0,0.0,0.0,0.0,0.0,0.0,0.0,0.0,0.0,0.0,0.0,0.0,0.0,0.0,0.0,0.0,0.0,0.0,0.0,0.0,0.0,0.0,0.0,0.0,0.0,0.0,0.0,0.0,0.0,0.0,0.0,0.0,4.1324,4.2069,4.2186,4.2563,4.2794,4.2794,4.3155,4.3313,4.3205,0.0,0.0,0.0,0.0,0.0,0.0,0.0,0.0,0.0,0.0,0.0,0.0,0.0,0.0,0.0,0.0,0.0,0.0,0.0,0.0,0.0,0.0,0.0,0.0,0.0,0.0,0.0,0.0,0.0,0.0,0.0,0.0,0.0,0.0,0.0,0.0,0.0,0.0,0.0,0.0,0.0,0.0,0.0,0.0,0.0,0.0,0.0,0.0,0.0,0.0,0.0,0.0,0.0,0.0,0.0,0.0,0.0,0.0,0.0,0.0,0.0,0.0,0.0,0.0,0.0,0.0,0.0,0.0,0.0,0.0,0.0,0.0,0.0,0.0,0.0,0.0,0.0,0.0,0.0,0.0,0.0,0.0,0.0,0.0,0.0,0.0,0.0,0.0,0.0,0.0,0.0,0.0,0.0,0.0,0.0,0.0,0.0,0.0,0.0,0.0,0.0,0.0,4.1136,4.2229,4.2976,4.3056,4.338,4.3596,4.3596,4.3955,4.4177,4.401,0.0,0.0,0.0,0.0,0.0,0.0,0.0,0.0,0.0,0.0,0.0,0.0,0.0,0.0,0.0,0.0,0.0,0.0,0.0,0.0,0.0,0.0,0.0,0.0,0.0,0.0,0.0,0.0,0.0,0.0,0.0,0.0,0.0,0.0,0.0,0.0,0.0,0.0,0.0,0.0,0.0,0.0,0.0,0.0,0.0,0.0,0.0,0.0,0.0,0.0,0.0,0.0,0.0,0.0,0.0,0.0,0.0,0.0,0.0,0.0,0.0,0.0,0.0,0.0,0.0,0.0,0.0,0.0,0.0,0.0,0.0,0.0,0.0,0.0,0.0,0.0,0.0,0.0,0.0,0.0,0.0,0.0,0.0,0.0,0.0,0.0,0.0,0.0,0.0,0.0,0.0,0.0,0.0,0.0,0.0,0.0,0.0,0.0,0.0,0.0,0.0,0.0,4.197,4.3123,4.3824,4.389,4.4755,4.5283,4.5321,4.5175,4.5051,0.0,0.0,0.0,0.0,0.0,0.0,0.0,0.0,0.0,0.0,0.0,0.0,0.0,0.0,0.0,0.0,0.0,0.0,0.0,0.0,0.0,0.0,0.0,0.0,0.0,0.0,0.0,0.0,0.0,0.0,0.0,0.0,0.0,0.0,0.0,0.0,0.0,0.0,0.0,0.0,0.0,0.0,0.0,0.0,0.0,0.0,0.0,0.0,0.0,0.0,0.0,0.0,0.0,0.0,0.0,0.0,0.0,0.0,0.0,0.0,0.0,0.0,0.0,0.0,0.0,0.0,0.0,0.0,0.0,0.0,0.0,0.0,0.0,0.0,0.0,0.0,0.0,0.0,0.0,0.0,0.0,0.0,0.0,0.0,0.0,0.0,0.0,0.0,0.0,0.0,0.0,0.0,0.0,0.0,0.0,0.0,0.0,0.0,0.0,0.0,0.0,0.0,0.0,4.295,4.4016,4.475,4.4864,4.5119,4.5512,4.6118,4.609,4.6209,4.6695,0.0,0.0,0.0,0.0,0.0,0.0,0.0,0.0,0.0,0.0,0.0,0.0,0.0,0.0,0.0,0.0,0.0,0.0,0.0,0.0,0.0,0.0,0.0,0.0,0.0,0.0,0.0,0.0,0.0,0.0,0.0,0.0,0.0,0.0,0.0,0.0,0.0,0.0,0.0,0.0,0.0,0.0,0.0,0.0,0.0,0.0,0.0,0.0,0.0,0.0,0.0,0.0,0.0,0.0,0.0,0.0,0.0,0.0,0.0,0.0,0.0,0.0,0.0,0.0,0.0,0.0,0.0,0.0,0.0,0.0,0.0,0.0,0.0,0.0,0.0,0.0,0.0,0.0,0.0,0.0,0.0,0.0,0.0,0.0,0.0,0.0,0.0,0.0,0.0,0.0,0.0,0.0,0.0,0.0,0.0,0.0,0.0,0.0,0.0,0.0,0.0,0.0,4.3849,4.4912,4.5648,4.5764,4.608,4.65,4.6991,4.6923,4.7052,4.7485,0.0,0.0,0.0,0.0,0.0,0.0,0.0,0.0,0.0,0.0,0.0,0.0,0.0,0.0,0.0,0.0,0.0,0.0,0.0,0.0,0.0,0.0,0.0,0.0,0.0,0.0,0.0,0.0,0.0,0.0,0.0,0.0,0.0,0.0,0.0,0.0,0.0,0.0,0.0,0.0,0.0,0.0,0.0,0.0,0.0,0.0,0.0,0.0,0.0,0.0,0.0,0.0,0.0,0.0,0.0,0.0,0.0,0.0,0.0,0.0,0.0,0.0,0.0,0.0,0.0,0.0,0.0,0.0,0.0,0.0,0.0,0.0,0.0,0.0,0.0,0.0,0.0,0.0,0.0,0.0,0.0,0.0,0.0,0.0,0.0,0.0,0.0,0.0,0.0,0.0,0.0,0.0,0.0,0.0,0.0,0.0,0.0,0.0,0.0,0.0,0.0,0.0,4.4672,4.5823,4.6519,4.6598,4.7335,4.7826,4.7908,4.7806,4.7749,4.777,0.0,0.0,0.0,0.0,0.0,0.0,0.0,0.0,0.0,0.0,0.0,0.0,0.0,0.0,0.0,0.0,0.0,0.0,0.0,0.0,0.0,0.0,0.0,0.0,0.0,0.0,0.0,0.0,0.0,0.0,0.0,0.0,0.0,0.0,0.0,0.0,0.0,0.0,0.0,0.0,0.0,0.0,0.0,0.0,0.0,0.0,0.0,0.0,0.0,0.0,0.0,0.0,0.0,0.0,0.0,0.0,0.0,0.0,0.0,0.0,3.7316,3.7007,0.0,0.0,0.0,0.0,0.0,0.0,0.0,0.0,0.0,0.0,0.0,0.0,0.0,0.0,0.0,0.0,0.0,0.0,0.0,0.0,0.0,0.0,0.0,0.0,0.0,0.0,0.0,0.0,0.0,0.0,0.0,0.0,0.0,0.0,0.0,0.0,0.0,0.0,0.0,0.0,4.5597,4.6626,4.7395,4.7515,4.7679,4.8061,4.876,4.8762,4.8976,4.9579,4.9421,0.0,0.0,0.0,0.0,0.0,0.0,0.0,0.0,0.0,0.0,0.0,0.0,0.0,0.0,0.0,0.0,0.0,0.0,0.0,0.0,0.0,0.0,0.0,0.0,0.0,0.0,0.0,0.0,0.0,0.0,0.0,0.0,0.0,0.0,0.0,0.0,0.0,0.0,0.0,0.0,0.0,0.0,0.0,0.0,0.0,0.0,0.0,0.0,0.0,0.0,0.0,0.0,0.0,0.0,0.0,0.0,0.0,0.0,0.0,3.8542,3.8284,0.0,0.0,0.0,0.0,0.0,0.0,0.0,0.0,0.0,0.0,0.0,0.0,0.0,0.0,0.0,0.0,0.0,0.0,0.0,0.0,0.0,0.0,0.0,0.0,0.0,0.0,0.0,0.0,0.0,0.0,0.0,0.0,0.0,0.0,0.0,0.0,0.0,0.0,0.0,0.0,4.6519,4.7555,4.8272,4.8394,4.8754,4.9169,4.9633,4.9613,4.9768,5.0156,5.0005,0.0,0.0,0.0,0.0,0.0,0.0,0.0,0.0,0.0,0.0,0.0,0.0,0.0,0.0,0.0,0.0,0.0,0.0,0.0,0.0,0.0,0.0,0.0,0.0,0.0,0.0,0.0,0.0,0.0,0.0,0.0,0.0,0.0,0.0,0.0,0.0,0.0,0.0,0.0,0.0,0.0,0.0,0.0,0.0,0.0,0.0,0.0,0.0,0.0,0.0,0.0,0.0,0.0,4.1035,4.1077,4.1103,4.1012,4.1007,4.0961,4.0133,3.992,4.022,4.0162,0.0,0.0,0.0,0.0,0.0,0.0,0.0,0.0,0.0,0.0,0.0,0.0,0.0,0.0,0.0,0.0,0.0,0.0,0.0,0.0,0.0,0.0,4.2366,4.2629,4.2691,4.2674,4.2614,0.0,0.0,0.0,0.0,0.0,0.0,0.0,0.0,0.0,0.0,0.0,4.7493,4.8454,4.9224,4.9507,5.013,5.0588,5.0703,5.07,5.067,5.067,5.05,5.0395,0.0,0.0,0.0,0.0,0.0,0.0,0.0,0.0,0.0,0.0,0.0,0.0,0.0,0.0,0.0,0.0,0.0,0.0,0.0,0.0,0.0,0.0,0.0,0.0,0.0,0.0,0.0,0.0,0.0,0.0,0.0,0.0,3.8062,3.8183,0.0,0.0,0.0,0.0,0.0,0.0,0.0,0.0,0.0,0.0,0.0,0.0,0.0,4.0607,4.061,4.1463,4.1909,4.1903,4.2651,4.3045,4.3034,4.3033,4.3016,4.3013,4.2812,0.0,4.0284,4.02,0.0,0.0,0.0,0.0,0.0,0.0,0.0,0.0,0.0,0.0,0.0,0.0,0.0,0.0,0.0,0.0,0.0,0.0,0.0,0.0,0.0,0.0,4.3777,4.4519,4.472,4.4905,4.5636,4.4373,4.3335,4.4137,4.4779,4.5455,0.0,0.0,0.0,0.0,0.0,0.0,4.8381,4.9321,5.0285,5.1182,5.1385,5.1691,5.2429,5.2455,5.2455,5.2455,5.2368,5.2297,5.2245,5.2025,0.0,0.0,0.0,0.0,0.0,0.0,0.0,0.0,0.0,0.0,0.0,0.0,0.0,0.0,0.0,0.0,0.0,0.0,0.0,0.0,0.0,0.0,0.0,0.0,0.0,0.0,0.0,0.0,0.0,3.9444,3.9781,3.9781,4.0092,4.0358,0.0,0.0,0.0,0.0,0.0,0.0,0.0,0.0,0.0,4.2379,4.2352,4.2357,4.2357,4.2748,4.2956,4.2942,4.3345,4.3503,4.3525,4.3489,4.3469,4.3469,4.3438,4.2881,4.2026,4.1893,4.1775,4.1714,0.0,0.0,0.0,0.0,4.2423,4.2728,4.2728,4.2744,4.2759,4.2733,0.0,0.0,0.0,0.0,0.0,0.0,0.0,4.4718,4.5184,4.5658,4.6094,4.6527,4.6614,4.6728,4.711,4.6449,4.5842,4.6126,4.6399,4.6656,4.696,4.7369,0.0,0.0,0.0,4.9938,5.0151,5.1008,5.1739,5.2219,5.227,5.2422,5.2772,5.2811,5.2811,5.2811,5.2743,5.2692,5.2666,5.2506,5.2402,0.0,0.0,0.0,0.0,0.0,0.0,0.0,0.0,0.0,0.0,0.0,0.0,0.0,0.0,0.0,0.0,0.0,0.0,0.0,0.0,0.0,0.0,0.0,0.0,0.0,0.0,0.0,0.0,4.0608,4.1127,4.1323,4.1362,4.1439,0.0,0.0,0.0,0.0,0.0,0.0,4.3564,4.3601,4.3594,4.3619,4.3613,4.3609,4.3609,4.3839,4.4038,4.4286,4.4505,4.4702,4.4949,4.4882,4.4868,4.4868,4.4843,4.4807,4.4677,4.3581,4.3081,4.2958,4.2887,4.2977,4.3154,4.3129,4.3377,4.3749,4.3749,4.3902,4.4093,4.4093,4.4093,4.4093,4.4093,0.0,0.0,0.0,0.0,4.6759,4.6805,4.7268,4.7737,4.7783,4.7794,4.787,4.8061,4.8256,4.8275,4.7945,4.7796,4.7832,4.8294,4.8816,0.0,4.9518,5.0634,5.1543,5.1707,5.2291,5.2806,5.3104,5.311,5.3225,5.3454,5.346,5.346,5.346,5.3404,5.3366,5.3353,5.323,5.3169,5.3187,0.0,0.0,0.0,0.0,0.0,0.0,0.0,0.0,0.0,0.0,0.0,0.0,0.0,0.0,0.0,0.0,0.0,0.0,0.0,0.0,0.0,0.0,0.0,0.0,0.0,0.0,0.0,0.0,0.0,4.2225,4.2342,0.0,0.0,0.0,0.0,4.3536,4.3536,4.3536,4.3613,4.3613,4.3613,4.3612,4.3599,4.359,4.359,4.4431,4.5241,4.6098,4.6917,4.7735,4.8553,4.8512,4.8511,4.8549,4.8452,4.8429,4.8166,4.4727,4.3243,4.3173,4.3049,4.3449,4.4121,4.4068,4.5013,4.6304,4.6304,4.6877,4.7564,4.7564,4.7564,4.7564,4.7564,4.7559,0.0,0.0,4.7668,4.7744,4.775,4.775,4.7788,4.7794,4.7794,4.8023,4.8875,4.9633,4.991,4.9082,4.8863,4.9315,5.0926,0.0,5.1528,5.229,5.248,5.2544,5.2616,5.266,5.3035,5.3945,5.4027,5.4371,5.5205,5.5282,5.5282,5.5282,5.5282,5.5211,5.5082,5.5069,5.5036,5.496,5.4914,0.0,0.0,0.0,0.0,0.0,0.0,0.0,0.0,0.0,0.0,0.0,0.0,0.0,0.0,0.0,0.0,0.0,0.0,0.0,0.0,0.0,0.0,0.0,0.0,0.0,0.0,0.0,0.0,4.3199,4.3238,0.0,4.3627,4.3666,4.39,4.4446,4.4485,4.4953,4.6043,4.6117,4.6386,4.6927,4.6957,4.6947,4.6937,4.7234,4.7572,4.7869,4.821,4.8516,4.8787,4.8787,4.8787,4.8787,4.8781,4.8727,4.8589,4.7305,4.671,4.6612,4.6472,4.6565,4.6774,4.6657,4.6967,4.7448,4.7416,4.7592,4.7854,4.7805,4.7794,4.7794,4.7794,4.7794,4.7794,4.7794,4.8214,4.864,4.864,4.9442,5.0239,5.0239,5.0621,5.1085,5.1397,5.1702,5.1805,5.152,5.1419,5.1598,5.2208,5.2285,5.2399,5.2704,5.3194,5.3601,5.367,5.4135,5.4574,5.4947,5.4992,5.5145,5.5451,5.5451,5.5451,5.5451,5.5451,5.5445,5.5382,5.5382,5.537,5.5345,5.523,5.5208,0.0,0.0,0.0,0.0,0.0,0.0,0.0,0.0,0.0,0.0,0.0,0.0,0.0,0.0,0.0,0.0,0.0,0.0,0.0,0.0,0.0,0.0,0.0,0.0,0.0,4.3359,4.3827,4.41,4.4139,4.4256,4.4569,4.4842,4.5272,4.5819,4.6132,4.6796,4.789,4.7968,4.8201,4.8785,4.9092,4.924,4.923,4.9534,4.9832,5.0121,5.0103,5.0247,5.0513,5.0505,5.0502,5.0502,5.0502,5.0494,5.0443,5.0443,5.0393,5.0178,4.886,4.8334,4.8248,4.8102,4.826,4.8505,4.8721,4.8941,4.9182,4.9115,4.9284,4.9475,4.9475,4.9475,4.9475,4.9475,4.9901,5.0365,5.0365,5.1162,5.1996,5.1996,5.2422,5.2811,5.2811,5.304,5.3231,5.3231,5.3002,5.2887,5.3193,5.3231,5.3352,5.3638,5.4173,5.4542,5.4609,5.5113,5.5431,5.5517,5.5485,5.5485,5.5485,5.5485,5.5485,5.5485,5.5485,5.5485,5.5485,5.5485,5.5485,5.5485,5.5395,5.5377,5.5314,0.0,0.0,0.0,0.0,0.0,0.0,0.0,0.0,0.0,0.0,0.0,0.0,0.0,0.0,0.0,0.0,0.0,0.0,0.0,0.0,0.0,0.0,0.0,4.3856,4.3741,4.4093,4.4953,4.507,4.5422,4.6281,4.714,4.7647,4.7647,4.8429,4.8936,4.8975,4.8941,4.8942,4.8942,4.9766,5.0233,5.0228,5.1045,5.1895,5.2729,5.2675,5.3086,5.3885,5.3902,5.3892,5.389,5.389,5.389,5.389,5.389,5.3879,5.3463,5.0009,4.8638,4.8565,4.8408,4.887,4.9618,5.0343,5.1092,5.1752,5.1688,5.2161,5.2811,5.2811,5.2811,5.2811,5.2811,5.2811,5.2811,5.2811,5.2811,5.2849,5.2849,5.2849,5.2887,5.2887,5.3531,5.4142,5.4142,5.346,5.3155,5.3995,5.4148,5.4434,5.5261,5.5389,0.0,5.5479,5.5485,5.5485,5.5529,5.5529,5.5529,5.5529,5.5529,5.5529,5.5529,5.5529,5.5529,5.5529,5.5529,5.5529,5.5485,5.5485,5.5455,5.5389,0.0,0.0,0.0,0.0,0.0,0.0,0.0,0.0,0.0,0.0,0.0,0.0,0.0,0.0,0.0,0.0,0.0,0.0,0.0,0.0,0.0,4.6229,4.6268,4.4799,4.5113,4.5856,4.6713,4.6791,4.7142,4.804,4.832,4.848,4.848,4.9269,5.0054,5.0679,5.1273,5.1901,5.2565,5.2806,5.2927,5.2929,5.3164,5.3396,5.3625,5.3574,5.3678,5.3899,5.391,5.3889,5.3913,5.3898,5.389,5.389,5.389,5.3885,5.376,5.2726,5.2313,5.2214,5.2161,5.2198,5.2326,5.2523,5.268,5.2789,5.273,5.2767,5.2883,5.2883,5.2847,5.2811,5.2811,5.2811,5.2811,5.2811,5.3263,5.3722,5.3722,5.4218,5.4677,5.4677,5.4861,5.5052,5.5052,5.4867,5.4746,5.5013,5.5052,5.5153,5.5443,5.5455,5.5517,5.5543,5.5554,5.561,5.5654,5.566,5.566,5.566,5.566,5.566,5.566,5.566,5.566,5.566,5.566,5.5638,5.5554,5.5554,5.552,0.0,0.0,0.0,0.0,0.0,0.0,0.0,0.0,0.0,0.0,0.0,0.0,0.0,0.0,0.0,0.0,0.0,0.0,0.0,0.0,0.0,0.0,4.7445,4.7632,4.6649,4.6948,4.7474,4.798,4.8058,4.8253,4.8758,4.9469,4.9903,4.9903,5.1002,5.1904,5.2412,5.2927,5.3437,5.3946,5.4304,5.4507,5.4515,5.487,5.5032,5.5038,5.5,5.4997,5.4989,5.4972,5.499,5.5009,5.4989,5.4972,5.4995,5.4995,5.4995,5.4913,0.0,0.0,0.0,0.0,5.3595,5.3468,5.3468,5.3593,5.3764,5.3723,5.3848,5.401,5.3958,5.391,5.3873,5.3881,5.3874,5.3881,5.3873,5.4262,5.465,5.4675,5.5064,5.5447,5.5447,5.5447,5.5447,5.5447,5.5439,0.0,5.5461,5.5443,5.5449,5.5514,5.5526,5.5587,5.5649,5.5654,5.5665,5.5703,5.6016,5.6247,5.6247,5.6588,0.0,0.0,0.0,5.678,5.678,5.678,0.0,0.0,0.0,5.6708,5.6673,5.7178,0.0,0.0,5.6591,5.6597,0.0,0.0,0.0,0.0,0.0,0.0,0.0,0.0,0.0,0.0,0.0,0.0,0.0,0.0,0.0,0.0,4.8331,4.8857,4.8837,4.9058,4.9138,4.8946,4.9025,4.9105,4.9222,5.0707,5.1684,5.1684,5.3166,5.4063,5.4063,5.4141,0.0,0.0,0.0,5.536,5.5335,5.6114,5.6518,5.6499,5.6507,5.6517,5.6484,5.6483,5.6473,5.6495,5.6482,5.6497,5.6503,5.6501,5.6498,5.6338,5.4745,5.4104,5.41,5.4095,5.4044,5.3912,5.3845,0.0,0.0,5.4723,5.5106,5.5594,5.5467,5.5419,5.5427,5.5403,5.5422,5.5396,5.5421,5.5395,5.5445,5.5505,5.5485,5.5485,5.5485,5.5485,5.5485,5.5485,5.5529,5.5514,5.561,5.5531,5.5514,5.5615,5.5626,5.5643,5.5698,5.5785,5.5862,5.5862,5.6632,0.0,5.7132,5.7857,5.8313,5.8313,5.8313,5.8313,5.8313,5.8313,5.8313,5.8313,5.8313,5.8313,5.8313,5.839,5.8434,5.8429,5.8262,5.8194,0.0,0.0,0.0,0.0,0.0,0.0,0.0,0.0,0.0,0.0,0.0,0.0,0.0,0.0,0.0,4.8459,4.9194,4.9734,4.9768,5.0914,5.1284,4.9942,5.0387,5.1096,5.1797,5.2825,5.3421,5.3421,5.437,5.4962,5.4962,5.5625,5.6014,5.6014,5.6171,5.6251,5.6254,5.641,5.6491,5.6497,5.65,0.0,5.6501,5.6432,5.6443,5.6483,5.6514,5.6499,5.6515,5.6503,5.649,5.6477,5.612,5.5961,5.5961,5.5993,5.5976,5.5948,5.585,5.5906,5.5964,5.5888,5.587,5.5823,5.5761,5.566,0.0,5.5499,5.5482,5.5488,5.5461,5.5461,5.5467,5.5517,5.5485,5.5485,5.5485,5.5485,5.5485,5.5485,5.5526,5.556,5.5615,5.561,5.5582,5.5682,5.5687,5.5692,5.5703,5.6324,5.6747,5.6747,5.7511,5.805,5.805,5.8198,5.8313,5.8313,5.8313,5.8313,5.8313,5.8313,5.8313,5.8313,5.8313,5.8313,5.8313,5.8934,5.9281,5.9242,5.8571,5.8296,0.0,0.0,0.0,0.0,0.0,0.0,0.0,0.0,0.0,0.0,0.0,4.8028,4.8499,0.0,4.9393,4.9818,5.0637,5.133,5.1743,5.2532,5.2603,5.1378,5.2017,5.2723,5.3151,5.3983,5.4498,5.4498,5.5327,5.5801,5.5801,5.6191,5.6468,5.6441,5.6441,5.6486,5.6496,5.6486,5.6441,5.6441,5.6468,5.6441,5.6434,5.6412,5.6443,5.6511,5.6482,5.6483,5.6508,5.6489,5.6514,5.6507,5.6546,5.6536,5.6483,5.6483,5.6516,5.6507,5.6461,5.6414,5.6342,5.6257,5.6142,5.5986,5.5932,5.5793,5.5691,5.5605,5.5593,5.5531,5.5531,5.5531,5.5575,5.561,5.5615,5.5615,5.5615,5.5615,5.573,5.6159,5.6296,5.6434,5.689,5.6967,5.6824,5.6395,5.6703,5.7011,5.7011,5.7396,5.7665,5.7665,5.8396,5.8896,5.8896,5.9319,5.955,5.955,5.955,5.955,5.955,5.955,5.955,5.955,5.955,5.955,5.955,5.9935,6.0165,6.0127,5.9742,5.955,0.0,0.0,0.0,0.0,0.0,0.0,0.0,4.6844,4.7418,4.7583,4.8125,4.8678,4.8877,4.9621,5.0477,5.1181,5.2034,5.2806,5.3479,5.3695,5.3592,5.3016,5.3589,5.403,5.4035,5.4819,5.533,5.5338,5.6,5.6389,5.6389,5.6389,5.6399,5.6383,5.6383,5.6432,5.6492,5.6434,5.6383,5.6383,5.6394,5.6397,5.6383,5.64,5.6402,5.6491,5.6487,5.6515,5.6484,5.651,5.6498,5.6533,5.657,5.6555,5.6532,5.6532,5.6532,5.6532,5.6532,5.6464,5.6414,5.6349,5.6266,5.6142,5.6064,5.5969,5.5832,5.5763,5.5724,5.5665,5.5654,5.5643,5.5649,5.5698,5.5824,5.5939,5.5939,5.6093,5.6401,5.7132,5.7247,5.7478,5.8165,5.8429,5.8242,5.7363,5.7857,5.8313,5.8313,5.8434,5.8544,5.8544,5.9281,5.9742,5.9742,6.0396,6.0787,6.0787,6.0787,6.0787,6.0787,6.0787,6.0787,6.0787,6.0787,6.0787,6.0787,6.0787,6.0787,6.0787,6.0979,6.0979,4.5206,4.5453,4.5683,4.6403,4.6621,4.6814,0.0,4.7844,4.8166,4.899,4.923,4.9517,5.0302,5.1155,5.182,5.1944,5.2717,5.3301,5.3416,5.409,5.4567,5.4463,5.471,5.4873,5.4863,5.5647,5.6206,5.623,5.635,5.6389,5.6389,5.6389,5.6391,5.6394,5.6394,5.6394,5.6399,5.6397,5.6394,5.6394,5.6325,5.6325,5.6394,5.6331,5.6355,5.6411,5.6488,5.6495,5.6518,5.6484,5.652,5.659,5.6583,5.6612,5.6602,5.6602,5.6602,5.6602,5.6602,5.6552,5.6494,5.6477,5.6429,5.6358,5.6296,5.6167,5.6056,5.6003,5.5918,5.5837,5.5787,5.5735,5.5698,5.5703,5.6285,5.6863,5.6863,5.7473,5.805,5.8127,5.8159,5.8204,5.8275,5.8896,5.9088,5.828,5.8236,5.8313,5.8313,5.8934,5.9358,5.9358,6.0127,6.0666,6.0666,6.0748,6.0787,6.0787,6.0787,6.0787,6.0787,6.0787,6.0787,6.0787,6.0787,6.0787,6.0787,6.0787,6.0787,6.0825,6.1595,6.1556,4.5937,4.6532,4.6967,4.7249,4.7353,4.743,4.7813,4.8268,4.8694,4.9071,4.958,5.0171,5.1067,5.1539,5.2092,5.3149,5.3646,5.41,5.4626,5.5046,5.5263,5.5263,5.5373,5.5483,5.5624,5.5966,5.623,5.6265,5.6326,5.6335,5.6335,5.6335,5.6344,5.6322,5.6325,5.6372,5.6389,5.6372,5.6325,5.6322,5.629,5.6323,5.6335,5.632,5.6311,5.6332,5.64,5.6451,5.6484,5.6514,5.6523,5.656,5.6589,5.6615,5.6605,5.6605,5.6605,5.6605,5.6605,5.6558,5.6506,5.65,5.647,5.6466,5.6405,5.6306,5.622,5.617,5.6102,5.6093,5.6517,5.6588,5.6626,5.7093,5.7473,5.7742,5.7742,5.805,5.8434,5.8896,5.9006,5.9165,5.9665,6.0012,6.0127,5.9819,5.9742,5.9742,5.9742,6.005,6.0242,6.0242,6.0589,6.0787,6.0787,6.0854,6.0871,6.0871,6.0905,6.0922,6.0922,6.0922,6.0922,6.0922,6.139,6.1627,6.1627,6.2088,6.2302,6.234,6.2645,6.2589,4.6591,4.7184,4.7694,4.7905,4.7981,4.8019,4.8286,4.8775,4.9276,4.9517,5.0062,5.0773,5.1668,5.1985,5.2583,5.3898,5.4335,5.4765,5.542,5.5581,5.561,5.561,5.5621,5.5681,5.5927,5.5994,5.6075,5.6178,5.6452,5.6634,5.6644,5.6874,5.7004,5.699,5.699,5.7002,5.7061,5.7002,5.699,5.699,5.7004,5.6991,5.6991,5.6991,5.6984,5.7039,5.7079,5.7126,5.7173,5.7189,5.7217,5.7226,5.726,5.7285,5.7274,5.7309,5.6995,5.6605,5.6605,5.6716,5.6865,5.6865,5.7003,5.7212,5.7212,5.7137,5.704,5.7003,5.6949,5.6978,5.7477,5.7526,5.7623,5.8171,5.8484,5.8621,5.8621,5.8819,5.9165,5.9742,5.9858,6.0056,6.0727,6.0848,6.0816,6.0866,6.0871,6.0866,6.081,6.0821,6.0871,6.0871,6.0871,6.0871,6.0871,6.0911,6.101,6.1247,6.1285,6.146,6.1692,6.1692,6.1692,6.1692,6.2276,6.2551,6.2551,6.3158,6.3444,6.3444,6.3629,6.372,4.739,4.7326,4.7486,4.8211,4.8386,4.8612,4.945,4.9676,4.9924,5.0752,5.0955,5.1242,5.2184,5.2994,5.3613,5.3791,5.4511,5.5143,5.5307,5.5326,5.5295,5.5295,5.5351,5.5419,5.5497,5.5758,5.596,5.6094,5.6957,5.7504,5.7577,5.8311,5.8739,5.8739,5.8739,5.8739,5.8739,5.8739,5.8739,5.8739,5.8739,5.8735,5.8735,5.8735,5.8755,5.8829,5.8829,5.8843,5.8918,5.8928,5.8941,5.9015,5.9023,5.9016,5.9002,5.903,5.801,5.6605,5.6605,5.7113,5.7777,5.7777,5.8314,5.9003,5.9003,5.8983,5.8907,5.8859,5.8763,5.8681,5.8602,5.8526,5.8428,5.8322,5.8902,5.9473,5.9473,6.0127,6.0748,6.0748,6.0748,6.0804,6.09,6.0905,6.0927,6.0976,6.0987,6.0965,6.0916,6.0955,6.0987,6.0987,6.0987,6.0987,6.0987,6.0987,6.1339,6.2122,6.216,6.2546,6.34,6.3439,6.3439,6.3439,6.3439,6.3477,6.3477,6.3472,6.3511,6.3511,6.4359,6.4745,4.8064,4.8459,4.8966,4.9209,4.9277,4.9353,4.9624,5.0107,5.0598,5.0884,5.1382,5.2077,5.29,5.3278,5.3679,5.4307,5.4693,5.4935,5.4949,5.5042,5.5113,5.5113,5.5181,5.5217,5.5288,5.5621,5.6126,5.6781,5.7199,5.7733,5.8351,5.8648,5.8813,5.8813,5.8813,5.8813,5.8813,5.8813,5.8813,5.8813,5.8813,5.8813,5.8813,5.8813,5.882,5.8833,5.8833,5.8877,5.8945,5.8977,5.9042,5.9087,5.9101,5.9095,5.9081,5.9108,5.8752,5.8244,5.8244,5.844,5.8674,5.8674,5.8867,5.9097,5.9097,5.9084,5.9066,5.9054,5.896,5.8996,5.9474,5.9557,5.9624,6.0065,6.0344,6.0475,6.0432,6.0646,6.0883,6.0883,6.0883,6.09,6.0955,6.0965,6.0971,6.0987,6.0992,6.0987,6.0965,6.0981,6.0992,6.0992,6.0992,6.1224,6.173,6.1844,6.2213,6.3062,6.3181,6.3317,6.3626,6.3626,6.3626,6.3626,6.4206,6.4515,6.4515,6.4976,6.5225,6.5225,6.549,6.5589,4.8819,4.9219,4.9649,4.9649,4.9649,4.9687,4.9988,5.0478,5.0998,5.16,5.2165,5.2813,5.3604,5.3755,5.3952,5.452,5.4681,5.472,5.4752,5.4852,5.4882,5.4882,5.4971,5.5171,5.5479,5.5866,5.6368,5.7082,5.7848,5.8533,5.9219,5.9569,5.9745,5.9745,5.9745,5.9745,5.9745,5.9745,5.9745,5.9745,5.9745,5.9745,5.9745,5.9745,5.9745,5.9745,5.9745,5.974,5.9799,5.9876,5.9948,6.0005,6.0036,6.0037,6.0027,6.0014,6.0045,5.9923,5.9338,5.9299,5.9572,5.9572,5.9767,6.004,6.004,6.0034,6.0026,6.0022,5.9951,6.0016,6.0464,6.0537,6.0623,6.1044,6.1098,6.1032,6.0959,6.0932,6.0927,6.0944,6.0938,6.096,6.0974,6.1,6.1054,6.1054,6.1286,6.1392,6.1029,6.1271,6.1518,6.1518,6.1788,6.2179,6.2686,6.2794,6.3157,6.4046,6.412,6.4295,6.4566,6.4604,6.4604,6.4604,6.5146,6.5417,6.5417,6.5917,6.6128,6.6128,6.6091,6.6074,4.9582,4.9551,4.949,4.949,4.949,4.9715,5.0512,5.0737,5.1225,5.2848,5.3224,5.3478,5.4259,5.4409,5.4434,5.4489,5.4497,5.4538,5.4657,5.4673,5.4681,5.4681,5.4814,5.5208,5.6004,5.6435,5.6785,5.7054,5.8781,5.99,6.0139,6.0963,6.1416,6.1416,6.1416,6.1416,6.1416,6.1416,6.1416,6.1416,6.1416,6.1416,6.1416,6.1416,6.1416,6.1416,6.1416,6.1398,6.1402,6.1465,6.1536,6.1602,6.1657,6.1717,6.1717,6.1705,6.1693,6.1448,5.9807,5.9768,6.0471,6.0471,6.1016,6.1719,6.1719,6.1719,6.1716,6.1703,6.1699,6.1685,6.1527,6.1476,6.1379,6.124,6.1169,6.1109,6.1046,6.1017,6.0997,6.1013,6.1003,6.1018,6.0997,6.1085,6.1157,6.1157,6.1926,6.2143,6.1205,6.1901,6.2467,6.2467,6.3212,6.3715,6.3753,6.3753,6.414,6.4991,6.5069,6.5417,6.6185,6.6185,6.6185,6.6185,6.6185,6.6185,6.6185,6.6185,6.6185,6.6185,6.6185,6.6224,4.9528,4.9505,4.949,4.949,4.949,4.9715,5.0512,5.115,5.1893,5.2998,5.3666,5.4146,5.4371,5.4409,5.4417,5.4405,5.4443,5.4451,5.4476,5.4505,5.4546,5.4546,5.4681,5.5084,5.5869,5.6709,5.7549,5.8347,5.9232,6.0069,6.0868,6.1205,6.1416,6.1416,6.1416,6.1416,6.1416,6.1416,6.1416,6.1416,6.1416,6.1416,6.1416,6.1416,6.1416,6.1416,6.1416,6.1398,6.1399,6.1481,6.1546,6.1617,6.1633,6.1663,6.1716,6.1717,6.1713,6.1632,6.1192,6.118,6.1368,6.1368,6.1524,6.1719,6.1719,6.1719,6.1718,6.1715,6.1707,6.1694,6.1678,6.1606,6.1525,6.144,6.1424,6.1352,6.1244,6.1195,6.1143,6.1094,6.1075,6.108,6.1056,6.165,6.208,6.208,6.282,6.3052,6.2143,6.2815,6.3366,6.3366,6.356,6.3947,6.4604,6.4682,6.503,6.5837,6.5876,6.5992,6.6185,6.6185,6.6185,6.6185,6.6185,6.6185,6.6185,6.6185,6.6185,6.6185,6.6185,6.6554,4.9388,4.9388,4.9388,4.9388,4.9642,5.0129,5.0916,5.174,5.2573,5.3478,5.4049,5.4357,5.44,5.4409,5.4409,5.4409,5.4409,5.4409,5.4409,5.4414,5.4447,5.4447,5.4906,5.5483,5.6313,5.7303,5.8334,5.9307,5.986,6.0411,6.1079,6.1275,6.1352,6.1352,6.1366,6.1416,6.1416,6.1416,6.1416,6.1416,6.1416,6.1416,6.1416,6.1416,6.1416,6.1416,6.1416,6.1388,6.1411,6.1447,6.1501,6.1561,6.1541,6.1586,6.1657,6.1675,6.1679,6.1717,6.1712,6.1703,6.1693,6.1683,6.1719,6.1719,6.1719,6.1719,6.1719,6.1719,6.1714,6.1707,6.1707,6.1655,6.1636,6.1578,6.1547,6.1502,6.1424,6.1352,6.1268,6.1173,6.1146,6.1257,6.1621,6.208,6.2544,6.2897,6.3715,6.4101,6.3594,6.3985,6.4256,6.4256,6.4604,6.4991,6.5494,6.5533,6.5721,6.6185,6.6185,6.6185,6.6185,6.6185,6.6185,6.6185,6.6185,6.6185,6.6185,6.6185,6.6394,6.6801,6.6801,6.731,4.9205,4.9205,4.9205,4.9205,4.9803,5.0617,5.143,5.2252,5.3175,5.4094,5.4308,5.4334,5.4392,5.4409,5.4409,5.4409,5.4409,5.4409,5.4409,5.4409,5.4446,5.4559,5.5266,5.6136,5.7048,5.7993,5.8922,5.9882,6.0369,6.0721,6.0962,6.1161,6.1264,6.1279,6.1355,6.1416,6.1416,6.1416,6.1416,6.1416,6.1416,6.1416,6.1416,6.1416,6.1416,6.1416,6.1416,6.1416,6.1416,6.1415,6.1447,6.1481,6.15,6.1521,6.1573,6.1603,6.1627,6.1678,6.1679,6.1677,6.171,6.1693,6.1684,6.1684,6.1684,6.1684,6.1684,6.1684,6.1684,6.1684,6.1684,6.1684,6.1682,6.1632,6.1618,6.1597,6.1519,6.1442,6.1411,6.1414,6.1406,6.1655,6.2457,6.2684,6.2994,6.3773,6.4624,6.5204,6.5204,6.5156,6.5146,6.5146,6.576,6.6185,6.6185,6.6185,6.6185,6.6185,6.6185,6.619,6.6195,6.6195,6.62,6.6249,6.62,6.6278,6.6399,6.6394,6.6888,6.7798,6.7798,6.8281,4.9205,4.9205,4.9205,4.9205,4.9803,5.0617,5.143,5.2252,5.3175,5.4094,5.4308,5.4334,5.4392,5.4409,5.4409,5.4409,5.4409,5.4409,5.4409,5.4409,5.4634,5.5301,5.5535,5.622,5.7769,5.8119,5.8647,5.9601,6.0007,6.0362,6.0733,6.1007,6.1208,6.1318,6.1355,6.1416,6.1416,6.1416,6.1416,6.1416,6.1416,6.1416,6.1416,6.1416,6.1416,6.1416,6.1416,6.1416,6.1416,6.1384,6.1411,6.1408,6.1484,6.1523,6.1525,6.1571,6.1602,6.1631,6.1628,6.1638,6.1719,6.1711,6.1705,6.1705,6.1705,6.1705,6.1705,6.1705,6.1705,6.1705,6.1705,6.1705,6.1705,6.1703,6.1697,6.1647,6.1592,6.1521,6.1651,6.2312,6.2396,6.261,6.3417,6.4145,6.4683,6.4842,6.5617,6.6165,6.6165,6.6051,6.5992,6.5992,6.6108,6.6185,6.6185,6.6185,6.6185,6.6185,6.6185,6.6205,6.6288,6.6293,6.6312,6.6354,6.6317,6.6622,6.7362,6.7358,6.7851,6.8756,6.8756,6.9251,4.9027,4.9027,4.9027,4.9027,4.9996,5.103,5.1402,5.2483,5.3516,5.4026,5.4164,5.4227,5.4314,5.4375,5.4409,5.4409,5.4409,5.4409,5.4409,5.4738,5.5189,5.5555,5.6381,5.7216,5.8004,5.8555,5.9049,5.9499,5.9836,6.0151,6.0482,6.0834,6.1098,6.125,6.1314,6.1348,6.1348,6.1366,6.1416,6.1416,6.1416,6.1416,6.1416,6.1416,6.1416,6.1416,6.1416,6.1416,6.1412,6.1355,6.1359,6.1338,6.1377,6.1398,6.1402,6.1465,6.1512,6.156,6.1593,6.1621,6.1634,6.168,6.1715,6.1709,6.1709,6.1709,6.1709,6.1709,6.1709,6.171,6.1713,6.1714,6.1714,6.1716,6.1714,6.1667,6.1607,6.1919,6.2329,6.2636,6.3045,6.3578,6.4408,6.4881,6.532,6.5744,6.6171,6.6446,6.6446,6.6364,6.6283,6.6274,6.6205,6.6185,6.6185,6.621,6.6269,6.6269,6.6293,6.6331,6.6338,6.6342,6.6597,6.7113,6.7066,6.7454,6.8316,6.8346,6.8812,6.9737,6.9716,7.0253,4.889,4.889,4.889,4.889,5.0153,5.1416,5.1416,5.2642,5.3823,5.3963,5.4055,5.41,5.4282,5.4332,5.4383,5.4409,5.4409,5.4446,5.4634,5.5189,5.5743,5.6081,5.7291,5.8155,5.8342,5.9016,5.9447,5.9447,5.9727,6.006,6.0366,6.075,6.1036,6.1168,6.1263,6.1306,6.1306,6.1337,6.1391,6.1391,6.1391,6.1391,6.1391,6.1391,6.1391,6.1391,6.1391,6.1391,6.1391,6.1322,6.1306,6.1306,6.1314,6.1283,6.1314,6.1342,6.1408,6.1479,6.1573,6.1585,6.1615,6.1673,6.1719,6.1712,6.1712,6.1712,6.1712,6.1712,6.1712,6.1713,6.1717,6.1717,6.1718,6.1719,6.1718,6.1754,6.1854,6.2425,6.2987,6.3267,6.3855,6.4599,6.5392,6.5521,6.5735,6.6429,6.6546,6.6543,6.6536,6.6475,6.6404,6.6368,6.6278,6.622,6.622,6.6307,6.6336,6.6336,6.6394,6.6523,6.6718,6.6726,6.7142,6.8076,6.8039,6.8466,6.9324,6.9333,6.9805,7.0716,7.0709,7.1151,4.889,4.889,4.889,4.889,5.0153,5.1416,5.1416,5.2642,5.3823,5.3963,5.3991,5.4055,5.4273,5.4317,5.4343,5.4392,5.4409,5.4663,5.5376,5.5555,5.6156,5.7704,5.8004,5.838,5.9102,5.9262,5.9309,5.9309,5.9693,6.0106,6.0539,6.0794,6.0982,6.1079,6.1221,6.1306,6.1306,6.131,6.1314,6.1314,6.1314,6.1314,6.1314,6.1314,6.1314,6.1314,6.1314,6.1314,6.131,6.131,6.1306,6.1306,6.1301,6.1301,6.1306,6.1314,6.1368,6.1408,6.1476,6.1554,6.1615,6.1662,6.1716,6.1719,6.1719,6.1719,6.1719,6.1719,6.1719,6.1719,6.1719,6.1719,6.1719,6.1719,6.1719,6.1914,6.2692,6.2922,6.3459,6.4956,6.5291,6.5624,6.642,6.6572,6.6574,6.6652,6.6691,6.6683,6.6661,6.6631,6.6563,6.657,6.6454,6.6367,6.6367,6.6407,6.6389,6.6389,6.6431,6.6882,6.7736,6.7768,6.8187,6.9037,6.905,6.9478,7.0361,7.0364,7.0858,7.1764,7.1749,7.1857,4.889,4.889,4.889,4.889,4.9782,5.0785,5.1305,5.2271,5.3246,5.3767,5.3944,5.401,5.4083,5.4146,5.42,5.4207,5.4288,5.4623,5.541,5.6026,5.6803,5.7967,5.853,5.8952,5.9253,5.929,5.9336,5.9454,5.9744,6.003,6.0401,6.0683,6.0911,6.1054,6.115,6.1255,6.1255,6.1285,6.1301,6.1301,6.1301,6.1301,6.1301,6.1301,6.1301,6.1301,6.1301,6.1301,6.1297,6.1268,6.1255,6.1251,6.1186,6.1177,6.1182,6.1208,6.1277,6.1291,6.1396,6.1484,6.1556,6.1637,6.1666,6.1716,6.1718,6.1719,6.1719,6.1719,6.1719,6.1719,6.1719,6.1719,6.1719,6.1719,6.2109,6.2578,6.2929,6.3826,6.4758,6.5412,6.5949,6.6367,6.6703,6.6747,6.6753,6.6753,6.6753,6.6751,6.6745,6.672,6.6656,6.665,6.6525,6.6457,6.6457,6.6493,6.652,6.6539,6.7094,6.7569,6.7922,6.8442,6.9159,7.0075,7.0058,7.0485,7.1322,7.1351,7.156,7.1944,7.1958,7.1972,4.889,4.889,4.889,4.889,4.9559,5.0376,5.1193,5.2011,5.2828,5.3645,5.3888,5.3954,5.3982,5.4046,5.4064,5.41,5.4191,5.461,5.5695,5.6386,5.7219,5.8259,5.8887,5.929,5.929,5.9272,5.9401,5.9554,5.9744,5.9952,6.0208,6.0776,6.1068,6.0987,6.1094,6.1164,6.1164,6.1204,6.1376,6.1647,6.1647,6.1763,6.1996,6.1996,6.1996,6.1996,6.1996,6.1996,6.1996,6.1956,6.1943,6.1938,6.1906,6.1853,6.1858,6.1929,6.1952,6.1944,6.2093,6.2189,6.2266,6.2343,6.2231,6.2057,6.2069,6.1914,6.1719,6.1719,6.1719,6.1719,6.1719,6.1875,6.207,6.207,6.2734,6.3476,6.3711,6.4726,6.5662,6.5933,6.6437,6.6824,6.6817,6.6821,6.6825,6.6825,6.6825,6.6824,6.6822,6.6771,6.6759,6.6755,6.6658,6.6598,6.6563,6.6587,6.6612,6.6626,6.7516,6.813,6.8387,6.9253,7.0158,7.1063,7.1054,7.1328,7.1921,7.1917,7.1962,7.2016,7.1984,7.1988,4.889,4.889,4.889,4.889,4.9522,5.033,5.1193,5.2011,5.2828,5.3645,5.3784,5.3823,5.3972,5.3991,5.4019,5.4091,5.41,5.466,5.6332,5.6594,5.7201,5.8807,5.9129,5.9187,5.9187,5.9272,5.9374,5.9503,5.9642,5.9823,6.0084,6.1159,6.1555,6.1025,6.106,6.1118,6.1118,6.1118,6.1543,6.239,6.239,6.282,6.3681,6.3681,6.3681,6.3681,6.3681,6.3681,6.3681,6.3681,6.3681,6.3681,6.3676,6.3676,6.3676,6.3681,6.3671,6.3683,6.3812,6.3937,6.3988,6.4133,6.3606,6.2896,6.2962,6.2382,6.1719,6.1719,6.1719,6.1719,6.1719,6.2344,6.3008,6.3008,6.3633,6.4531,6.539,6.5586,6.5859,6.6719,6.6875,6.6914,6.6914,6.6914,6.6914,6.6914,6.6914,6.6914,6.6912,6.6911,6.691,6.6904,6.6902,6.6849,6.6711,6.6683,6.6694,6.6694,6.7582,6.8493,6.9351,7.022,7.1083,7.198,7.198,7.198,7.2019,7.1987,7.1989,7.199,7.1992,7.1992,4.889,4.889,4.889,4.889,4.9076,4.967,5.1082,5.1602,5.2159,5.3524,5.3784,5.3794,5.3869,5.3879,5.3888,5.3889,5.3954,5.4597,5.6228,5.6546,5.7201,5.8807,5.9024,5.9043,5.9043,5.9177,5.9272,5.9365,5.9545,6.003,6.0928,6.1461,6.1755,6.1737,6.2439,6.2824,6.2863,6.2863,6.3018,6.3289,6.3289,6.3444,6.3715,6.3715,6.3715,6.3715,6.3715,6.3715,6.3715,6.3715,6.3715,6.3715,6.3715,6.3715,6.3715,6.3715,6.3686,6.3709,6.3731,6.3851,6.3948,6.4018,6.3945,6.3806,6.3851,6.2849,6.1836,6.2422,6.3008,6.3476,6.3476,6.3672,6.3906,6.3906,6.4531,6.5273,6.5547,6.6055,6.6562,6.6836,6.6914,6.6914,6.6914,6.6914,6.6914,6.6914,6.6914,6.6914,6.6914,6.6914,6.6913,6.6913,6.6913,6.687,6.685,6.685,6.709,6.7682,6.8507,6.937,7.0232,7.1131,7.1718,7.1991,7.1991,7.1991,7.1991,7.1991,7.1992,7.1992,7.1992,7.1992,4.8816,4.889,4.889,4.889,4.889,4.9336,5.1008,5.1416,5.1862,5.345,5.3784,5.3784,5.3784,5.3784,5.3784,5.3784,5.3888,5.4484,5.6121,5.6431,5.7095,5.8776,5.8962,5.8982,5.8994,5.9129,5.9215,5.9272,5.971,6.0373,6.1205,6.2071,6.2651,6.2947,6.3395,6.3621,6.3715,6.3715,6.3869,6.4179,6.4179,6.4334,6.4643,6.4643,6.4643,6.4643,6.4643,6.4643,0.0,6.4643,6.4643,6.4643,6.4643,6.4643,6.4643,6.4643,6.4643,6.4648,6.4662,6.4756,6.4833,6.4912,6.4812,6.4629,6.4395,6.3551,6.2773,6.3359,6.3867,6.4297,6.4297,6.4531,6.4805,6.4805,6.5469,6.6094,6.6094,6.6523,6.6914,6.6914,6.6914,6.6914,6.6914,6.6914,6.6914,6.6914,6.6914,6.6914,6.6914,6.6914,6.6914,6.6914,6.6914,6.6914,6.691,6.691,6.7263,6.8124,6.8944,6.9804,7.0664,7.1523,7.1992,7.1992,7.1992,7.1992,7.1992,7.1992,7.1992,7.1992,7.1992,7.1992,0.0,4.889,4.889,4.889,4.889,4.9336,5.1008,5.1416,0.0,5.345,5.3784,5.3784,5.3784,5.3784,5.3784,5.3784,5.3859,5.4453,5.606,5.6395,5.7056,5.8683,5.8879,5.892,5.8965,5.91,5.9167,5.9177,6.0126,6.0809,6.1059,6.2854,6.4062,6.4481,6.4,6.3804,6.3869,6.3869,6.4295,6.5107,6.5107,6.5494,6.6185,6.6185,6.6185,6.6185,6.6185,6.6185,6.6185,6.6185,6.6185,6.6185,6.6185,6.6185,6.6185,6.6185,6.6185,6.6195,6.6284,6.6303,6.634,6.6477,6.6091,6.5469,6.4709,6.445,6.4375,6.4375,6.4453,6.4492,6.4492,6.5078,6.5703,6.5703,6.6328,6.6914,6.6914,6.6914,6.6914,6.6914,6.6914,6.6914,6.6914,6.6914,6.6914,6.6914,6.6914,6.6914,6.6914,6.6914,6.6914,6.6914,6.6914,6.6914,6.6914,6.6914,6.7305,6.8242,6.8984,6.9805,7.0742,7.1562,7.1992,7.1992,7.1992,7.1992,7.1992,7.1992,7.1992,7.1992,7.1992,7.1992,4.8519,0.0,4.889,4.889,4.889,4.9336,0.0,5.1416,5.1862,5.345,5.3784,5.3784,5.3784,5.3784,5.3784,5.3784,5.4304,5.5085,5.6134,5.736,5.8289,5.8692,5.8766,5.8739,5.877,5.8909,5.8972,5.9024,5.9926,6.0905,6.1871,6.307,6.4237,6.5358,6.5382,6.5424,6.5605,6.5605,6.5721,6.5915,6.5915,6.6031,6.6185,6.6185,6.6185,6.6185,6.6185,6.6185,6.6185,6.6185,6.6185,6.6185,6.6185,6.6185,6.6185,6.6185,6.6185,6.6185,6.62,6.6274,6.634,6.6477,6.6457,6.6374,6.625,6.5772,6.5273,6.5273,6.5781,6.6289,6.6289,6.6445,6.6601,6.6601,6.6758,6.6914,6.6914,6.6914,6.6914,6.6914,6.6914,6.6914,6.6914,6.6914,6.6914,6.6914,6.6914,6.6914,6.6914,6.6914,6.6914,6.6914,6.6914,6.6914,6.6914,6.6914,6.7539,6.9023,6.9297,7.0078,7.164,7.1875,7.1992,7.1992,7.1992,7.1992,7.1992,7.1992,7.1992,7.1992,7.1992,7.1992,4.8556,4.889,4.889,4.889,4.889,4.9336,5.1008,5.1416,5.1862,5.345,5.3784,5.3784,5.3784,5.3784,5.3784,5.3784,5.449,5.5419,5.6692,5.7907,5.8687,5.8687,5.8687,5.8687,5.8687,5.8828,5.9069,5.9465,6.0349,6.1381,6.2494,6.357,6.4574,6.5475,6.5731,6.5984,6.6185,6.6185,6.6185,6.6185,6.6185,6.6185,6.6185,6.6185,6.6185,6.6185,6.6185,6.6185,6.6185,6.6185,6.6185,6.6185,6.6185,6.6185,6.6185,6.6185,6.6185,6.6185,6.6185,6.622,6.6331,6.6431,6.6539,6.6617,6.672,6.6457,6.6168,6.6172,6.6523,6.6914,6.6914,6.6914,6.6914,6.6914,6.6914,6.6914,6.6914,6.6914,6.6914,6.6914,6.6914,6.6914,6.6914,6.6914,6.6914,6.6914,6.6914,6.6914,6.6914,6.6914,6.6914,6.6914,6.6914,6.6914,6.6914,6.6914,6.7617,6.9336,6.9453,7.0195,7.1914,7.1992,7.1992,7.1992,7.1992,7.1992,7.1992,7.1992,7.1992,7.1992,7.1992,7.1992,4.8667,4.889,4.889,4.889,4.889,4.9336,5.1008,5.1416,5.1862,5.345,5.3784,5.3784,5.3784,5.3784,5.3784,5.3784,5.4602,5.579,5.7462,5.8279,5.8687,5.8687,5.8687,5.8687,5.8687,5.8807,5.9204,6.0044,6.0957,6.1905,6.295,6.4096,6.4891,6.5284,6.5624,6.5925,6.616,6.6175,6.6185,6.6185,6.6185,6.6185,6.6185,6.6185,6.6185,6.6185,6.6185,6.6185,6.6185,6.6185,6.6185,6.6185,6.6185,6.6185,6.6185,6.6185,6.6185,6.6185,6.6185,6.622,6.6322,6.636,6.6438,6.6519,6.6665,6.6735,6.6816,6.6873,6.6875,6.6914,6.6914,6.6914,6.6914,6.6914,6.6914,6.6914,6.6914,6.6914,6.6914,6.6914,6.6914,6.6914,6.6914,6.6914,6.6914,6.6914,6.6914,6.6914,6.6914,6.6914,6.6914,6.6914,6.6914,6.6914,6.6914,6.6914,6.7656,6.9375,6.9492,7.0234,7.1914,7.1992,7.1992,7.1992,7.1992,7.1992,7.1992,7.1992,7.1992,7.1992,7.1992,7.1992,4.8667,4.889,4.889,4.889,4.889,4.9336,5.1008,5.1416,5.1862,5.345,5.3784,5.3784,5.3784,5.3784,5.3784,5.3784,5.5085,5.6692,5.8279,5.8613,5.8687,5.8687,5.8687,5.8687,5.8687,5.8708,5.9122,6.0034,6.0847,6.1823,6.295,6.4096,6.4891,6.5284,6.5569,6.5833,6.603,6.6139,6.6185,6.6185,6.6185,6.6185,6.6185,6.6185,6.6185,6.6185,6.6185,6.6185,6.6185,6.6185,6.6185,6.6185,6.6185,6.6185,6.6185,6.6185,6.6185,6.6185,6.6185,6.622,6.6307,6.6322,6.641,6.6513,6.6594,6.6683,6.679,6.6822,6.6873,6.6914,6.6914,6.6914,6.6914,6.6914,6.6914,6.6914,6.6914,6.6914,6.6914,6.6914,6.6914,6.6914,6.6914,6.6914,6.6914,6.6914,6.6914,6.6914,6.6914,6.6914,6.6914,6.6914,6.6914,6.6914,6.6914,6.6914,6.7617,6.9297,6.9414,7.0195,7.1914,7.1992,7.1992,7.1992,7.1992,7.1992,7.1992,7.1992,7.1992,7.1992,7.1992,7.1992,4.8816,4.889,4.889,4.889,4.9262,4.993,5.1119,5.1751,5.2382,5.3562,5.3784,5.3784,5.3784,5.3784,5.4091,5.501,5.58,5.6878,5.8465,5.8687,5.8687,5.8687,5.8687,5.8687,5.8687,5.8687,5.9266,6.0582,6.1039,6.1912,6.3406,6.4199,6.4786,6.519,6.552,6.5795,6.5999,6.6052,6.6107,6.6139,6.617,6.6185,6.6185,6.6185,6.6185,6.6185,6.6185,6.6185,6.6185,6.6185,6.6185,6.6185,6.6185,6.6185,6.6185,6.6185,6.6185,6.6185,6.6185,6.62,6.6269,6.6298,6.6329,6.6422,6.6506,6.6605,6.6726,6.6799,6.6866,6.6913,6.6914,6.6914,6.6914,6.6914,6.6914,6.6914,6.6914,6.6914,6.6914,6.6914,6.6914,6.6914,6.6914,6.6914,6.6914,6.6914,6.6914,6.6914,6.6914,6.6914,6.6914,6.6914,6.6914,6.6914,6.6914,6.6914,6.7617,6.9297,7.0273,7.1172,7.1953,7.1992,7.1992,7.1992,7.1992,7.1992,7.1992,7.1992,7.1992,7.1992,7.1992,7.1992,4.889,4.889,4.889,4.889,4.9559,5.0376,5.1193,5.2011,5.2828,5.3645,5.3784,5.3784,5.3784,5.3933,5.4564,5.606,5.6469,5.71,5.8502,5.8687,5.8687,5.8687,5.8687,5.8687,5.8687,5.8687,5.9393,6.1076,6.1209,6.2034,6.3851,6.4328,6.4732,6.5109,6.547,6.5756,6.5978,6.5999,6.6019,6.608,6.6139,6.6165,6.6165,6.618,6.6185,6.6185,6.6185,6.6185,6.6185,6.6185,6.6185,6.6185,6.6185,6.6185,6.6185,6.6185,6.6185,6.6185,6.6185,6.6185,6.6195,6.6274,6.6298,6.634,6.6458,6.6523,6.6613,6.6725,6.6813,6.6871,6.6914,6.6914,6.6914,6.6914,6.6914,6.6914,6.6914,6.6914,6.6914,6.6914,6.6914,6.6914,6.6914,6.6914,6.6914,6.6914,6.6914,6.6914,6.6914,6.6914,6.6914,6.6914,6.6914,6.6914,6.6914,6.7109,6.7851,6.9336,7.1055,7.1992,7.1992,7.1992,7.1992,7.1992,7.1992,7.1992,7.1992,7.1992,7.1992,7.1992,7.1992,7.1992,4.889,4.889,4.889,4.889,4.9522,5.033,5.1193,5.2011,5.2828,5.3645,5.3784,5.3784,5.3784,5.4416,5.5233,5.6134,5.6952,5.7722,5.8576,5.8687,5.8687,5.8687,5.8687,5.8687,5.8687,5.8687,5.9393,6.1076,6.1257,6.2124,6.3977,6.4482,6.4839,6.519,6.5441,6.5683,6.591,6.5978,6.5999,6.6013,6.6074,6.6107,6.6107,6.616,6.6185,6.6185,6.6185,6.6185,6.6185,6.6185,6.6185,6.6185,6.6185,6.6185,6.6185,6.6185,6.6185,6.6185,6.6185,6.6185,6.6185,6.619,6.6264,6.6326,6.6385,6.65,6.6615,6.6685,6.6748,6.6821,6.6874,6.6914,6.6914,6.6914,6.6914,6.6914,6.6914,6.6914,6.6914,6.6914,6.6914,6.6914,6.6914,6.6914,6.6914,6.6914,6.6914,6.6914,6.6914,6.6914,6.6914,6.6914,6.6914,6.6914,6.6914,6.7656,6.8515,6.9414,7.1055,7.1992,7.1992,7.1992,7.1992,7.1992,7.1992,7.1992,7.1992,7.1992,7.1992,7.1992,7.1992,7.1992,4.889,4.889,4.9039,4.9513,5.0302,5.1008,5.1305,5.2419,5.3413,5.3747,5.3784,5.3784,5.3784,5.4453,5.527,5.6172,5.6989,5.7769,5.8576,5.8687,5.8687,5.8687,5.8687,5.8687,5.8687,5.9133,5.9945,6.1183,6.1784,6.2757,6.4219,6.4577,6.4926,6.5314,6.5597,6.5762,6.5897,6.5929,6.5954,6.5933,6.5996,6.6041,6.6041,6.6107,6.6134,6.6134,6.617,6.6185,6.6185,6.6185,6.6185,6.6185,6.6185,6.6185,6.6185,6.6185,6.6185,6.6185,6.6185,6.6185,6.6185,6.6185,6.6239,6.623,6.6301,6.6398,6.651,6.661,6.6703,6.6763,6.6871,6.6914,6.6914,6.6914,6.6914,6.6914,6.6914,6.6914,6.6914,6.6914,6.6914,6.6914,6.6914,6.6914,6.6914,6.6914,6.6914,6.6914,6.6914,6.6914,6.6914,6.6914,6.6914,6.6914,6.6914,6.8164,6.9101,6.9414,7.0547,7.1445,7.1992,7.1992,7.1992,7.1992,7.1992,7.1992,7.1992,7.1992,7.1992,7.1992,7.1992,7.1992,4.889,4.889,4.9076,4.9884,5.0748,5.1454,5.1714,5.2828,5.3784,5.3784,5.3784,5.3859,5.4119,5.4862,5.5689,5.6543,5.736,5.8056,5.8613,5.8687,5.8687,5.8687,5.8687,5.8687,5.8687,5.943,6.0301,6.1246,6.2178,6.3239,6.4435,6.4741,6.506,6.5435,6.5667,6.5826,6.5904,6.5904,6.5904,6.5904,6.5952,6.5961,6.5984,6.6041,6.6069,6.6074,6.6134,6.616,6.616,6.618,6.6185,6.6185,6.6185,6.6185,6.6185,6.6185,6.6185,6.6185,6.6185,6.6185,6.6185,6.6185,6.6185,6.6195,6.6288,6.6333,6.6439,6.6543,6.6658,6.6739,6.6823,6.6873,6.6914,6.6914,6.6914,6.6914,6.6914,6.6914,6.6914,6.6914,6.6914,6.6914,6.6914,6.6914,6.6914,6.6914,6.6914,6.6914,6.6914,6.6914,6.6914,6.6914,6.6914,6.6914,6.6914,6.8203,6.914,6.9375,7.0234,7.1094,7.1953,7.1992,7.1992,7.1992,7.1992,7.1992,7.1992,7.1992,7.1992,7.1992,7.1992,7.1992,4.889,4.889,4.9104,4.9921,5.0748,5.1602,5.2419,5.3237,5.3784,5.3784,5.3784,5.4044,5.4862,5.5716,5.658,5.735,5.8167,5.8687,5.8687,5.8687,5.8687,5.8687,5.8687,5.8687,5.8687,5.943,6.0301,6.1246,6.2286,6.3423,6.466,6.4951,6.5245,6.5594,6.5715,6.5826,6.5904,6.5904,6.5904,6.5904,6.5904,6.5935,6.6002,6.5978,6.6007,6.6007,6.6069,6.6096,6.6102,6.616,6.6185,6.6185,6.6185,6.6185,6.6185,6.6185,6.6185,6.6185,6.6185,6.6185,6.6185,6.6185,6.6185,6.6195,6.6288,6.6333,6.6431,6.6552,6.6631,6.6718,6.6766,6.6869,6.6914,6.6914,6.6914,6.6914,6.6914,6.6914,6.6914,6.6914,6.6914,6.6914,6.6914,6.6914,6.6914,6.6914,6.6914,6.6914,6.6914,6.6914,6.6914,6.6914,6.6914,6.6914,6.6914,6.7695,6.8555,6.9375,7.0234,7.1094,7.1953,7.1992,7.1992,7.1992,7.1992,7.1992,7.1992,7.1992,7.1992,7.1992,7.1992,7.1992,4.889,4.889,4.9262,5.0673,5.1193,5.1751,5.3116,5.3645,5.3784,5.3784,5.3784,5.4044,5.4862,5.5716,5.658,5.735,5.8167,5.8687,5.8687,5.8687,5.8687,5.8687,5.8687,5.8687,5.8687,5.9988,6.1002,6.1425,6.2922,6.4123,6.4886,6.5164,6.5428,6.5715,6.5833,6.5878,6.5904,6.5904,6.5904,6.5904,6.5904,6.591,6.5935,6.5996,6.5988,6.5993,6.6007,6.6058,6.6102,6.616,6.6185,6.6185,6.6185,6.6185,6.6185,6.6185,6.6185,6.6185,6.6185,6.6185,6.6185,6.6185,6.6185,6.619,6.6205,6.6298,6.6333,6.6435,6.6549,6.6633,6.6697,6.6819,6.6913,6.6914,6.6914,6.6914,6.6914,6.6914,6.6914,6.6914,6.6914,6.6914,6.6914,6.6914,6.6914,6.6914,6.6914,6.6914,6.6914,6.6914,6.6914,6.6914,6.6914,6.7148,6.7773,6.8594,6.9453,7.0273,7.1133,7.1719,7.1992,7.1992,7.1992,7.1992,7.1992,7.1992,7.1992,7.1992,7.1992,7.1992,7.1992,7.1992,4.889,4.9141,4.9707,5.1045,5.1639,5.2197,5.3497,5.3784,5.3784,5.3784,5.4044,5.4527,5.5345,5.6209,5.7063,5.7833,5.839,5.8687,5.8687,5.8687,5.8687,5.8687,5.8687,5.8708,5.875,6.0285,6.1331,6.1599,6.328,6.452,6.5035,6.5306,6.5568,6.5826,6.5878,6.5904,6.5904,6.5904,6.5904,6.5904,6.5904,6.5904,6.5904,6.5941,6.5966,6.5966,6.5988,6.6024,6.6102,6.6139,6.6165,6.6185,6.6185,6.6185,6.6185,6.6185,6.6185,6.6185,6.6185,6.6185,6.6185,6.6185,6.6185,6.6185,6.6185,6.6264,6.6326,6.6377,6.6489,6.6624,6.6677,6.6768,6.6869,6.6875,6.6914,6.6914,6.6914,6.6914,6.6914,6.6914,6.6914,6.6914,6.6914,6.6914,6.6914,6.6914,6.6914,6.6914,6.6914,6.6914,6.6914,6.6914,6.7226,6.7617,6.8164,6.9297,7.0195,7.0664,7.1523,7.1992,7.1992,7.1992,7.1992,7.1992,7.1992,7.1992,7.1992,7.1992,7.1992,7.1992,7.1992,7.1992,4.8936,4.9485,5.0302,5.1193,5.2048,5.2902,5.3645,5.3784,5.3784,5.3784,5.4453,5.527,5.6134,5.6952,5.7759,5.8576,5.8687,5.8687,5.8687,5.8687,5.8687,5.8687,5.8698,5.8787,5.8879,6.0298,6.1375,6.1768,6.3408,6.4637,6.5198,6.542,6.5646,6.5891,6.5904,6.5904,6.5904,6.5904,6.5904,6.5904,6.5904,6.5904,6.5904,6.5904,6.5904,6.5904,6.5972,6.6029,6.6091,6.6096,6.6134,6.6185,6.6185,6.6185,6.6185,6.6185,6.6185,6.6185,6.6185,6.6185,6.6185,6.6185,6.6185,6.6185,6.6185,6.622,6.6322,6.6373,6.6492,6.6615,6.6666,6.6755,6.6821,6.6874,6.6914,6.6914,6.6914,6.6914,6.6914,6.6914,6.6914,6.6914,6.6914,6.6914,6.6914,6.6914,6.6914,6.6914,6.6914,6.6914,6.6914,6.6992,6.7734,6.8242,6.8398,6.9805,7.0742,7.082,7.1562,7.1992,7.1992,7.1992,7.1992,7.1992,7.1992,7.1992,7.1992,7.1992,7.1992,7.1992,7.1992,7.1992,4.9068,4.9574,5.0302,5.1193,5.2494,5.3599,5.3747,5.3784,5.3784,5.3784,5.4453,5.527,5.6134,5.6952,5.7759,5.8576,5.8687,5.8687,5.8687,5.8687,5.8687,5.8687,5.8807,5.8869,5.8889,5.9946,6.0929,6.1808,6.3084,6.4234,6.5291,6.5494,6.5694,6.5897,6.5904,6.5904,6.5904,6.5904,6.5904,6.5904,6.5904,6.5904,6.5904,6.5904,6.5904,6.5904,6.5972,6.6005,6.603,6.608,6.6134,6.6185,6.6185,6.6185,6.6185,6.6185,6.6185,6.6185,6.6185,6.6185,6.6185,6.6185,6.6185,6.6185,6.6185,6.6195,6.6264,6.6367,6.645,6.6536,6.6661,6.6738,6.6817,6.6871,6.6914,6.6914,6.6914,6.6914,6.6914,6.6914,6.6914,6.6914,6.6914,6.6914,6.6914,6.6914,6.6914,6.6914,6.6914,6.6914,6.7148,6.7851,6.8086,6.8711,7.0039,7.0508,7.0976,7.168,7.1914,7.1992,7.1992,7.1992,7.1992,7.1992,7.1992,7.1992,7.1992,7.1992,7.1992,7.1992,7.1992,7.1992,4.9603,5.0213,5.1044,5.2215,5.3124,5.3754,5.3754,5.3754,5.3875,5.4295,5.5057,5.5763,5.6209,5.7286,5.8205,5.8613,5.8687,5.8687,5.8687,5.8687,5.8708,5.8797,5.8859,5.897,5.9139,5.9975,6.1008,6.2141,6.32,6.4304,6.5434,6.5632,6.5748,6.5897,6.5904,6.5904,6.5904,6.5904,6.5904,6.5904,6.5904,6.5904,6.5904,6.5904,6.5904,6.5904,6.5941,6.5964,6.6007,6.6041,6.6107,6.6185,6.6185,6.6185,6.6185,6.6185,6.6185,6.6185,6.6185,6.6185,6.6185,6.6185,6.6185,6.6185,6.6185,6.6185,6.6249,6.6354,6.6461,6.6538,6.6681,6.6766,6.6812,6.687,6.6913,6.6914,6.6914,6.6914,6.6914,6.6914,6.6914,6.6914,6.6914,6.6914,6.6914,6.6914,6.6914,6.7031,6.7461,6.7539,6.7851,6.8711,6.918,6.9765,7.0625,7.1094,7.1523,7.1953,7.1992,7.1992,7.1992,7.1992,7.1992,7.1992,7.1992,7.1992,7.1992,7.1992,7.1992,7.1992,7.1992,7.1992,5.0198,5.1036,5.2019,5.3382,5.3704,5.3704,5.3704,5.3704,5.3955,5.4805,5.5689,5.6357,5.6469,5.7722,5.8687,5.8687,5.8687,5.8698,5.8719,5.8719,5.8807,5.893,5.898,5.9119,5.9408,6.0137,6.1178,6.2558,6.3383,6.4359,6.5569,6.576,6.5826,6.5897,6.5904,6.5904,6.5904,6.5904,6.5904,6.5904,6.5904,6.5904,6.5904,6.5904,6.5904,6.5904,6.5904,6.5933,6.6007,6.6007,6.608,6.6185,6.6185,6.6185,6.6185,6.6185,6.6185,6.6185,6.6185,6.6185,6.6185,6.6185,6.6185,6.6185,6.6185,6.619,6.622,6.6358,6.6457,6.6532,6.6681,6.6761,6.6808,6.6869,6.6913,6.6914,6.6914,6.6914,6.6914,6.6914,6.6914,6.6914,6.6914,6.7031,6.7109,6.7109,6.7265,6.7617,6.832,6.8437,6.875,6.9609,7.0312,7.0742,7.0898,7.1601,7.1992,7.1992,7.1992,7.1992,7.1992,7.1992,7.1992,7.1992,7.1992,7.1992,7.1992,7.1992,7.1992,7.1992,7.1992,7.1992,5.0491,5.1607,5.2744,5.3493,5.3704,5.3704,5.3704,5.3704,5.3955,5.4805,5.5689,5.6506,5.7212,5.8093,5.8687,5.8687,5.8687,5.8719,5.8859,5.8869,5.895,5.9157,5.9253,5.9408,5.9626,5.9964,6.0936,6.271,6.3019,6.389,6.569,6.5787,6.5826,6.5897,6.5904,6.5904,6.5904,6.5904,6.5904,6.5904,6.5904,6.5904,6.5904,6.5904,6.5904,6.5904,6.5904,6.5933,6.6007,6.6007,6.608,6.6185,6.6185,6.6185,6.6185,6.6185,6.6185,6.6185,6.6185,6.6185,6.6185,6.6185,6.6185,6.6185,6.6185,6.6259,6.6307,6.6367,6.6501,6.6594,6.669,6.6769,6.6816,6.687,6.6913,6.6914,6.6914,6.6914,6.6914,6.6914,6.6914,6.6914,6.6914,6.7539,6.8047,6.8047,6.8672,6.918,6.9219,6.9297,6.9648,7.0469,7.0625,7.1015,7.1758,7.1914,7.1992,7.1992,7.1992,7.1992,7.1992,7.1992,7.1992,7.1992,7.1992,7.1992,7.1992,7.1992,7.1992,7.1992,7.1992,7.1992,5.1895,5.2815,5.3525,5.3633,5.3627,5.3588,5.3588,5.3588,5.4007,5.5426,5.6023,5.6543,5.736,5.8167,5.8687,5.8687,5.8739,5.8838,5.8889,5.9,5.9119,5.9281,5.9443,5.9669,5.9937,6.0106,6.0814,6.2302,6.2847,6.3712,6.5077,6.5583,6.5872,6.5897,6.5904,6.5904,6.5904,6.5904,6.5904,6.5904,6.5904,6.5904,6.5904,6.5904,6.5904,6.5904,6.5904,6.5954,6.5999,6.5996,6.6058,6.6139,6.6175,6.6185,6.6185,6.6185,6.6185,6.6185,6.6185,6.6185,6.6185,6.6185,6.6185,6.6185,6.6185,6.6264,6.6322,6.6394,6.6485,6.6609,6.667,6.6738,6.6817,6.687,6.6913,6.6914,6.6914,6.6914,6.6914,6.6914,6.7305,6.7617,6.7617,6.8359,6.8906,6.8867,6.9219,6.9609,7.0078,7.0156,7.0508,7.1328,7.1445,7.1562,7.1953,7.1992,7.1992,7.1992,7.1992,7.1992,7.1992,7.1992,7.1992,7.1992,7.1992,7.1992,7.1992,7.1992,7.1992,7.1992,7.1992,7.1992,5.3059,5.3758,5.4136,5.3766,5.3649,5.3561,5.3568,5.3706,5.432,5.5946,5.6469,5.684,5.7658,5.8316,5.8687,5.8687,5.8818,5.8909,5.897,5.9148,5.9336,5.9514,5.9727,5.9961,6.0268,6.0373,6.0839,6.1927,6.2784,6.3617,6.4545,6.5436,6.5904,6.5904,6.5904,6.5904,6.5904,6.5904,6.5904,6.5904,6.5904,6.5904,6.5904,6.5904,6.5904,6.5904,6.5904,6.5941,6.6008,6.5984,6.6041,6.6107,6.6165,6.6185,6.6185,6.6185,6.6185,6.6185,6.6185,6.6185,6.6185,6.6185,6.6185,6.6185,6.6185,6.6274,6.6345,6.6381,6.651,6.6635,6.6693,6.6749,6.6859,6.6872,6.6914,6.6914,6.6914,6.6914,6.6953,6.7187,6.7773,6.8242,6.8476,6.9219,6.9805,6.9726,6.9922,7.0312,7.0937,7.1015,7.1289,7.1914,7.1992,7.1992,7.1992,7.1992,7.1992,7.1992,7.1992,7.1992,7.1992,7.1992,7.1992,7.1992,7.1992,7.1992,7.1992,7.1992,7.1992,7.1992,7.1992,7.1992,5.333,5.3986,5.4368,5.399,5.3814,5.3783,5.3686,5.4286,5.5104,5.6115,5.6915,5.7685,5.8502,5.865,5.8687,5.8687,5.8818,5.897,5.9176,5.9373,5.9609,5.992,6.0166,6.0366,6.0552,6.0635,6.1055,6.2012,6.2852,6.3698,6.4551,6.5436,6.5904,6.5904,6.5904,6.5904,6.5904,6.5904,6.5904,6.5904,6.5904,6.5904,6.5904,6.5904,6.5904,6.5904,6.5904,6.5941,6.6008,6.5984,6.6041,6.6107,6.6165,6.6185,6.6185,6.6185,6.6185,6.6185,6.6185,6.6185,6.6185,6.6185,6.6185,6.6185,6.6185,6.6298,6.639,6.6389,6.6545,6.6685,6.6718,6.6803,6.6906,6.6914,6.6914,6.6914,6.6914,6.6914,6.7148,6.7969,6.8164,6.8437,6.9219,7.0078,7.0625,7.0625,7.1328,7.1875,7.1914,7.1914,7.1953,7.1992,7.1992,7.1992,7.1992,7.1992,7.1992,7.1992,7.1992,7.1992,7.1992,7.1992,7.1992,7.1992,7.1992,7.1992,7.1992,7.1992,7.1992,7.1992,7.1992,7.1992,5.4502,5.4726,5.4731,5.4443,5.4196,5.4046,5.3954,5.4558,5.5348,5.6311,5.7064,5.7823,5.8679,5.8777,5.8687,5.8687,5.8852,5.9041,5.9253,5.9505,5.9809,6.0099,6.0332,6.0546,6.0648,6.0716,6.0917,6.1248,6.2056,6.2897,6.3737,6.4589,6.532,6.5859,6.5904,6.5904,6.5904,6.5904,6.5904,6.5904,6.5904,6.5904,6.5904,6.5904,6.5904,6.5904,6.5904,6.5916,6.5947,6.5967,6.6019,6.6052,6.6149,6.6185,6.6185,6.6185,6.6185,6.6185,6.6185,6.6185,6.6185,6.6185,6.6185,6.6185,6.6185,6.6279,6.6349,6.6381,6.6493,6.6631,6.6677,6.6805,6.6907,6.6914,6.6914,6.6914,6.6914,6.6914,6.7148,6.8047,6.8633,6.9258,7.0078,7.0976,7.1523,7.1523,7.1797,7.1992,7.1992,7.1992,7.1992,7.1992,7.1992,7.1992,7.1992,7.1992,7.1992,7.1992,7.1992,7.1992,7.1992,7.1992,7.1992,7.1992,7.1992,7.1992,7.1992,7.1992,7.1992,7.1992,7.1992,7.1992,5.5185,5.5255,5.5057,5.4792,5.4549,5.4417,5.4605,5.521,5.5977,5.6912,5.7659,5.8291,5.8888,5.8882,5.8781,5.8698,5.8882,5.9063,5.9262,5.9635,5.9976,6.0225,6.0475,6.0673,6.0722,6.0763,6.0787,6.0787,6.1595,6.2441,6.3275,6.4122,6.5013,6.5859,6.5904,6.5904,6.5904,6.5904,6.5904,6.5904,6.5904,6.5904,6.5904,6.5904,6.5904,6.5904,6.5904,6.5904,6.591,6.5955,6.6007,6.6019,6.6139,6.6185,6.6185,6.6185,6.6185,6.6185,6.6185,6.6185,6.6185,6.6185,6.6185,6.6185,6.6185,6.6264,6.6326,6.6377,6.6486,6.6621,6.6675,6.681,6.6911,6.6914,6.6914,6.6914,6.6914,6.6914,6.7226,6.8398,6.9062,6.9765,7.0937,7.1601,7.1992,7.1992,7.1992,7.1992,7.1992,7.1992,7.1992,7.1992,7.1992,7.1992,7.1992,7.1992,7.1992,7.1992,7.1992,7.1992,7.1992,7.1992,7.1992,7.1992,7.1992,7.1992,7.1992,7.1992,7.1992,7.1992,7.1992,7.1992,0.0,0.0,0.0,5.5071,5.4859,5.4873,5.5559,5.6307,5.7064,5.7937,5.8718,5.9206,5.9206,5.9119,5.8945,5.876,5.8865,5.9072,5.9281,5.9782,6.0159,6.0286,6.0591,6.0787,6.0787,6.0787,6.0787,6.0787,6.1595,6.2403,6.3237,6.4128,6.5013,6.5859,6.5904,6.5904,6.5904,6.5904,6.5904,6.5904,6.5904,6.5904,6.5904,6.5904,6.5904,6.5904,6.5904,6.5904,6.591,6.5955,6.6001,6.6019,6.6139,6.6185,6.6185,6.6185,6.6185,6.6185,6.6185,6.6185,6.6185,6.6185,6.6185,6.6185,6.6185,6.6264,6.6326,6.6377,6.6486,6.6621,6.6677,6.6782,6.6914,6.6914,6.6914,6.6914,6.6914,6.6914,6.7461,6.914,6.9453,6.9961,7.1719,7.1992,7.1992,7.1992,7.1992,7.1992,7.1992,7.1992,7.1992,7.1992,7.1992,7.1992,7.1992,7.1992,7.1992,7.1992,7.1992,7.1992,7.1992,7.1992,7.1992,7.1992,7.1992,7.1992,7.1992,7.1992,7.1992,7.1992,7.1992,7.1992,5.5583,0.0,0.0,0.0,0.0,0.0,5.609,5.6793,5.7526,5.8375,5.9085,5.9569,5.9569,5.9452,5.9354,5.9299,5.9225,5.9309,5.9531,5.9922,6.0268,6.05,6.0685,6.0787,6.0787,6.0787,6.0787,6.0787,6.1018,6.1518,6.2403,6.382,6.5013,6.5859,6.5904,6.5904,6.5904,6.5904,6.5904,6.5904,6.5904,6.5904,6.5904,6.5904,6.5904,6.5904,6.5904,6.5904,6.591,6.5952,6.6011,6.6013,6.6091,6.6149,6.6185,6.6185,6.6185,6.6185,6.6185,6.6185,6.6185,6.6185,6.6185,6.6185,6.6185,6.6195,6.623,6.6372,6.6446,6.6569,6.6794,6.687,6.6914,6.6914,6.6914,6.6914,6.6914,6.7383,6.8164,6.9219,6.9922,7.0703,7.1797,7.1992,7.1992,7.1992,7.1992,7.1992,7.1992,7.1992,7.1992,7.1992,7.1992,7.1992,7.1992,7.1992,7.1992,7.1992,7.1992,7.1992,7.1992,7.1992,7.1992,7.1992,7.1992,7.1992,7.1992,7.1992,7.1992,7.1992,7.1991,7.199,5.5708,5.5682,5.5638,5.5575,0.0,0.0,5.6816,5.7357,5.7958,5.9115,5.9657,5.9906,5.9906,5.9826,5.976,5.976,5.9711,5.9685,5.9736,6.003,6.0332,6.0526,6.0691,6.0787,6.0787,6.0787,6.0787,6.0787,6.0787,6.132,6.2551,6.3858,6.5013,6.5859,6.5904,6.5904,6.5904,6.5904,6.5904,6.5904,6.5904,6.5904,6.5904,6.5904,6.5904,6.5904,6.5904,6.5904,6.5904,6.5941,6.597,6.6013,6.6074,6.6134,6.6185,6.6185,6.6185,6.6185,6.6185,6.6185,6.6185,6.6185,6.6185,6.6185,6.6185,6.6185,6.6249,6.6354,6.6479,6.6619,6.685,6.6911,6.6914,6.6914,6.6914,6.6914,6.6914,6.7851,6.8867,6.9336,7.0117,7.0976,7.1836,7.1992,7.1992,7.1992,7.1992,7.1992,7.1992,7.1992,7.1992,7.1992,7.1992,7.1992,7.1992,7.1992,7.1992,7.1992,7.1992,7.1992,7.1992,7.1992,7.1992,7.1992,7.1992,7.1992,7.1992,7.1992,7.1992,7.1991,7.199,7.1988,5.5708,5.5708,5.5692,5.5638,5.5625,0.0,5.7615,5.7972,5.8417,6.0029,6.0279,6.023,6.023,6.0203,6.0144,6.0144,6.021,6.0143,5.9906,6.0135,6.0387,6.05,6.0673,6.0787,6.0787,6.0787,6.0787,6.0787,6.0787,6.1512,6.3198,6.4045,6.4897,6.5859,6.5904,6.5904,6.5904,6.5904,6.5904,6.5904,6.5904,6.5904,6.5904,6.5904,6.5904,6.5904,6.5904,6.5904,6.5904,6.5904,6.5933,6.6013,6.6069,6.6128,6.6185,6.6185,6.6185,6.6185,6.6185,6.6185,6.6185,6.6185,6.6185,6.6185,6.6185,6.6185,6.6215,6.6381,6.6549,6.6723,6.6856,6.6911,6.6914,6.6914,6.6914,6.6914,6.6914,6.8203,6.9414,6.9492,7.0234,7.1094,7.1875,7.1992,7.1992,7.1992,7.1992,7.1992,7.1992,7.1992,7.1992,7.1992,7.1992,7.1992,7.1992,7.1992,7.1992,7.1992,7.1992,7.1992,7.1992,7.1992,7.1992,7.1992,7.1992,7.1992,7.1992,7.1992,7.1992,7.199,7.1989,7.1982,5.5708,5.5708,5.5703,5.5692,5.6181,0.0,5.7999,5.8676,5.9363,6.0405,6.0578,6.052,6.052,6.0506,6.05,6.05,6.0513,6.0435,6.023,6.0401,6.0572,6.0648,6.0734,6.0787,6.0787,6.0787,6.0787,6.0787,6.0787,6.1512,6.3198,6.3468,6.4282,6.5865,6.5904,6.5904,6.5904,6.5904,6.5904,6.5904,6.5904,6.5904,6.5904,6.5904,6.5904,6.5904,6.5904,6.5904,6.5904,6.5904,6.5933,6.6007,6.6019,6.6091,6.6185,6.6185,6.6185,6.6185,6.6185,6.6185,6.6185,6.6185,6.6185,6.6185,6.6185,6.6185,6.6245,6.6446,6.6577,6.6723,6.6856,6.6911,6.6914,6.6914,6.6914,6.6914,6.6914,6.8242,6.9453,6.9414,7.0664,7.1797,7.1953,7.1992,7.1992,7.1992,7.1992,7.1992,7.1992,7.1992,7.1992,7.1992,7.1992,7.1992,7.1992,7.1992,7.1992,7.1992,7.1992,7.1992,7.1992,7.1992,7.1992,7.1992,7.1992,7.1992,7.1992,7.1991,7.199,7.1989,7.2019,7.201,5.5708,5.5708,5.5785,5.6247,5.667,0.0,0.0,5.9181,5.9696,6.0586,6.071,6.0685,6.0685,6.0685,6.0685,6.0685,6.0685,6.066,6.0559,6.0617,6.0654,6.0691,6.0752,6.0787,6.0787,6.0787,6.0787,6.0787,6.0787,6.1364,6.2627,6.3083,6.3891,6.5205,6.5667,6.5904,6.5904,6.5904,6.5904,6.5904,6.5904,6.5904,6.5904,6.5904,6.5904,6.5904,6.5904,6.5904,6.5904,6.5904,6.5921,6.6011,6.5996,6.6063,6.6144,6.6175,6.6185,6.6185,6.6185,6.6185,6.6185,6.6185,6.6185,6.6185,6.6185,6.6264,6.6315,6.6471,6.6582,6.672,6.681,6.687,6.6914,6.6914,6.6914,6.6914,6.6914,6.8242,6.9453,6.9414,7.082,7.1992,7.1992,7.1992,7.1992,7.1992,7.1992,7.1992,7.1992,7.1992,7.1992,7.1992,7.1992,7.1992,7.1992,7.1992,7.1992,7.1992,7.1992,7.1992,7.1992,7.1992,7.1992,7.1992,7.1992,7.1992,7.1991,7.1988,7.1986,7.1985,7.2013,7.2003,5.5708,5.5824,5.6132,5.6824,5.7247,5.7824,0.0,0.0,0.0,6.0666,6.0787,6.0787,6.0787,6.0787,6.0787,6.0787,6.0787,6.0787,6.0787,6.0746,6.071,6.071,6.0757,6.0787,6.0787,6.0787,6.0787,6.0787,6.0787,6.1172,6.2056,6.2858,6.3698,6.4589,6.5436,6.5904,6.5904,6.5904,6.5904,6.5904,6.5904,6.5904,6.5904,6.5904,6.5904,6.5904,6.5904,6.5904,6.5904,6.5904,6.5935,6.599,6.5978,6.6047,6.6107,6.6165,6.6185,6.6185,6.6185,6.6185,6.6185,6.6185,6.6185,6.6185,6.6185,6.6303,6.6411,6.6496,6.6605,6.6713,6.6763,6.6868,6.6914,6.6914,6.6914,6.6953,6.7109,6.8359,6.9453,6.9609,7.0937,7.1992,7.1992,7.1992,7.1992,7.1992,7.1992,7.1992,7.1992,7.1992,7.1992,7.1992,7.1992,7.1992,7.1992,7.1992,7.1992,7.1992,7.1992,7.1992,7.1992,7.1992,7.1992,7.1992,7.1992,7.1991,7.199,7.1983,7.2017,7.2017,7.2007,7.1997,5.5708,5.6247,5.6868,5.6983,5.8132,5.9281,5.9473,0.0,6.0671,6.0787,0.0,6.0787,6.0787,0.0,0.0,6.0787,6.0787,6.0787,6.0787,6.0781,6.0775,6.0775,6.0781,6.0787,6.0787,6.0787,6.0787,6.0787,6.0787,6.1172,6.2056,6.2858,6.3698,6.4589,6.5436,6.5904,6.5904,6.5904,6.5904,6.5904,6.5904,6.5904,6.5904,6.5904,6.5904,6.5904,6.5904,6.5904,6.5904,6.5904,6.5904,6.5923,6.5961,6.6047,6.6107,6.6165,6.6185,6.6185,6.6185,6.6185,6.6185,6.6185,6.6185,6.6185,6.6185,6.6303,6.6411,6.6496,6.6591,6.6734,6.6761,6.6865,6.6912,6.6914,6.6914,6.7109,6.789,6.875,6.9648,7.039,7.1328,7.1992,7.1992,7.1992,7.1992,7.1992,7.1992,7.1992,7.1992,7.1992,7.1992,7.1992,7.1992,7.1992,7.1992,7.1992,7.1992,7.1992,7.1992,7.1992,7.1992,7.1992,7.1992,7.1992,7.1991,7.199,7.199,7.2017,7.2007,7.2007,7.1996,7.1989,5.7203,5.7473,5.7857,5.8319,5.8973,5.9627,6.0127,6.055,6.0787,6.0787,0.0,0.0,0.0,0.0,0.0,0.0,6.0787,6.0787,6.0787,6.0787,6.0787,6.0787,6.0787,6.0787,6.0787,6.0787,6.0787,6.0787,6.0787,6.0979,6.1325,6.2589,6.3468,6.3814,6.5166,6.5904,6.5904,6.5904,6.5904,6.5904,6.5904,6.5904,6.5904,6.5904,6.5904,6.5904,6.5904,6.5904,6.5904,6.5904,6.5904,6.591,6.5961,6.6024,6.6058,6.6155,6.6185,6.6185,6.6185,6.6185,6.6185,6.6185,6.6185,6.6185,6.6185,6.6303,6.6407,6.647,6.6612,6.6728,6.6791,6.6861,6.6912,6.6914,6.6914,6.7148,6.8008,6.8867,6.9687,7.0547,7.1406,7.1992,7.1992,7.1992,7.1992,7.1992,7.1992,7.1992,7.1992,7.1992,7.1992,7.1992,7.1992,7.1992,7.1992,7.1992,7.1992,7.1992,7.1992,7.1992,7.1992,7.1992,7.1992,7.1991,7.199,7.1987,7.2018,7.201,7.2003,7.1996,7.199,7.1987,5.8313,5.8467,5.8775,5.9358,5.9665,6.0012,6.0666,6.0787,6.0787,6.0787,6.0787,0.0,0.0,0.0,6.0787,6.0787,0.0,6.0787,6.0787,6.0787,6.0787,6.0787,6.0787,6.0787,6.0787,6.0787,6.0787,6.0787,6.0787,6.0787,6.0787,6.2391,6.3314,6.3314,6.4974,6.5904,6.5904,6.5904,6.5904,6.5904,6.5904,6.5904,6.5904,6.5904,6.5904,6.5904,6.5904,6.5904,6.5904,6.5904,6.5904,6.591,6.5961,6.6007,6.6024,6.6144,6.6185,6.6185,6.6185,6.6185,6.6185,6.6185,6.6185,6.6185,6.6185,6.6303,6.6403,6.6485,6.6594,6.6718,6.6784,6.6857,6.6911,6.6914,6.6914,6.7187,6.832,6.9062,6.9805,7.0859,7.1562,7.1992,7.1992,7.1992,7.1992,7.1992,7.1992,7.1992,7.1992,7.1992,7.1992,7.1992,7.1992,7.1992,7.1992,7.1992,7.1992,7.1992,7.1992,7.1992,7.1992,7.1992,7.1991,7.199,7.1987,7.1981,7.2006,7.2003,7.1997,7.1987,7.1987,7.1987,5.8313,5.8858,5.9473,5.9473,6.0127,6.0787,6.0787,6.0787,6.0787,6.0787,6.0787,6.0787,6.0787,6.0787,6.0787,0.0,6.0787,0.0,0.0,6.0787,6.0787,6.0787,6.0787,6.0787,6.0787,6.0787,6.0787,6.0787,6.0787,6.0787,6.0787,6.2391,6.3314,6.3314,6.4974,6.5904,6.5904,6.5904,6.5904,6.5904,6.5904,6.5904,6.5904,6.5904,6.5904,6.5904,6.5904,6.5904,6.5904,6.5904,6.5904,6.591,6.5961,6.6007,6.6024,6.6144,6.6185,6.6185,6.6185,6.6185,6.6185,6.6185,6.6185,6.6185,6.6185,6.6303,6.6403,6.6485,6.6617,6.6736,6.6781,6.6852,6.6907,6.6914,6.6914,6.7383,6.9101,6.9492,7.0,7.164,7.1992,7.1992,7.1992,7.1992,7.1992,7.1992,7.1992,7.1992,7.1992,7.1992,7.1992,7.1992,7.1992,7.1992,7.1992,7.1992,7.1992,7.1992,7.1992,7.1992,7.1992,7.1991,7.199,7.199,7.2017,7.2006,7.2006,7.1995,7.1989,7.1987,7.1987,7.1987,5.9935,6.0165,6.0358,6.0358,6.0589,6.0787,6.0787,6.0787,6.0787,6.0787,6.0787,6.0787,6.0787,6.0787,6.0787,0.0,6.0787,6.0787,0.0,6.0787,6.0787,6.0787,6.0787,6.0787,6.0787,6.0787,6.0787,6.0787,6.0787,6.0787,6.0787,6.2391,6.3314,6.3314,6.4974,6.5904,6.5904,6.5904,6.5904,6.5904,6.5904,6.5904,6.5904,6.5904,6.5904,6.5904,6.5904,6.5904,6.5904,6.5904,6.5929,6.5978,6.5978,6.603,6.608,6.616,6.6185,6.6185,6.6185,6.6185,6.6185,6.6185,6.6185,6.6185,6.6185,6.6303,6.6403,6.6485,6.6614,6.6734,6.678,6.6852,6.6907,6.6914,6.6914,6.7383,6.9101,6.9453,6.9922,7.168,7.1992,7.1992,7.1992,7.1992,7.1992,7.1992,7.1992,7.1992,7.1992,7.1992,7.1992,7.1992,7.1992,7.1992,7.1992,7.1992,7.1992,7.1991,7.1991,7.199,7.1987,7.1985,7.1982,7.2016,7.2009,7.2002,7.1995,7.199,7.1987,7.1987,7.1987,7.1987,6.0787,6.0787,6.0787,6.0787,6.0787,6.0787,6.0787,6.0787,6.0787,6.0787,6.0787,6.0787,6.0787,6.0787,6.0787,0.0,0.0,6.0787,0.0,6.0787,6.0787,6.0787,6.0787,6.0787,6.0787,6.0787,6.0787,6.0787,6.0787,6.0787,6.0787,6.2391,6.3314,6.3314,6.4974,6.5904,6.5904,6.5904,6.5904,6.5904,6.5904,6.5904,6.5904,6.5904,6.5904,6.5904,6.5904,6.5904,6.5904,6.5929,6.5966,6.6014,6.6013,6.6063,6.6107,6.6165,6.6185,6.6185,6.6185,6.6185,6.6185,6.6185,6.6185,6.6185,6.6185,6.6288,6.6376,6.6461,6.6559,6.6683,6.6733,6.6849,6.6907,6.6914,6.6914,6.7383,6.9101,6.9453,6.9922,7.164,7.1992,7.1992,7.1992,7.1992,7.1992,7.1992,7.1992,7.1992,7.1992,7.1992,7.1992,7.1992,7.1992,7.1992,7.1992,7.1992,7.1992,7.199,7.199,7.1987,7.198,7.2016,7.2012,7.2006,7.2002,7.1996,7.1987,7.1987,7.1987,7.1987,7.1987,7.1987]}]]